GFSMA_prec_cloud_003.txt.gz
Cloud_Cover
0 0 0 0 0 0 2 0 0 0 0 0 0 0 0 0 2 2 5 5 3 5 6 65 59 100 100 100 100 100 100 100 100 100 100 100 100 100 100 100 100 100 100
2 0 0 0 0 2 0 0 0 0 0 0 0 0 0 0 0 0 0 2 4 5 22 71 98 39 100 100 100 100 100 99 100 100 100 100 100 100 100 100 100 100 100
5 10 5 6 15 5 5 5 5 4 5 0 0 0 0 0 0 1 4 5 3 4 5 5 90 15 99 100 96 100 72 100 100 100 100 100 100 100 100 100 100 100 100
5 12 59 55 94 100 90 60 44 38 5 5 4 0 0 0 0 0 0 1 5 4 4 5 5 81 20 71 100 97 98 10 100 100 100 100 100 100 100 100 100 100 100
5 27 82 91 80 13 5 5 5 4 5 4 24 5 13 4 5 4 4 5 0 3 5 0 5 5 5 7 17 100 100 100 30 100 100 100 100 100 100 100 100 100 100
40 6 5 5 5 5 4 4 2 6 68 98 69 99 87 92 28 24 49 56 28 4 0 1 1 4 5 0 5 5 15 100 100 65 100 100 100 100 100 100 100 100 100
98 30 5 5 5 4 4 9 77 36 16 6 5 8 13 16 14 17 5 3 3 7 67 5 4 0 0 3 1 2 0 10 100 100 94 100 100 100 100 100 100 100 100
18 78 80 5 5 22 79 8 5 27 15 5 5 33 81 68 90 81 96 100 35 0 5 5 63 10 0 4 0 0 0 0 1 77 100 68 98 99 100 100 100 100 100
100 97 94 26 23 6 13 12 5 5 5 5 5 5 12 5 12 48 25 97 100 82 22 5 5 12 1 0 0 1 0 0 0 0 62 100 100 85 96 100 100 100 100
100 100 96 5 5 5 5 5 5 31 44 5 51 84 5 31 8 29 5 51 96 97 74 96 96 73 3 0 0 0 0 0 0 0 0 3 94 88 8 98 100 100 100
37 16 5 1 8 30 58 74 96 71 86 77 12 5 4 5 5 93 24 5 100 100 99 100 100 84 74 11 2 0 4 4 0 0 0 0 0 3 57 98 98 100 100
14 40 97 100 100 100 100 100 100 90 47 35 75 89 100 81 69 92 46 14 39 98 100 99 100 100 98 100 83 5 2 2 5 0 0 0 0 0 3 43 100 100 100
100 100 100 100 100 100 76 87 100 99 100 52 70 78 99 79 85 100 100 100 98 72 100 100 100 100 99 100 100 94 6 2 42 5 3 0 0 0 4 1 20 58 100
100 86 6 8 5 71 99 100 97 38 84 90 64 100 75 49 77 100 100 100 100 100 100 100 99 69 100 100 100 99 62 5 11 8 5 4 0 0 0 5 5 5 54
90 61 16 6 95 100 100 89 85 64 76 94 100 100 100 100 100 100 100 100 100 100 100 76 100 100 100 100 100 84 97 94 48 5 5 5 2 0 0 4 5 5 5
92 17 95 64 100 98 81 95 100 100 100 98 100 100 100 89 100 100 100 100 100 100 94 100 82 66 99 100 100 98 100 100 92 78 51 5 5 4 1 0 2 5 5
84 26 39 68 97 84 69 95 98 83 98 99 100 100 100 100 98 100 100 100 100 100 90 98 100 100 100 100 100 100 96 100 98 18 35 100 5 3 5 4 0 0 4
96 91 97 65 100 100 100 100 100 99 100 100 100 100 100 100 100 100 100 100 100 100 100 98 98 100 100 100 100 100 100 100 100 100 63 5 46 3 0 2 5 0 0
100 100 89 36 49 70 92 94 97 100 100 100 99 93 100 100 74 100 100 100 99 100 100 92 85 97 86 100 100 100 100 96 61 100 46 5 5 34 50 0 0 0 1
100 56 16 5 16 26 43 86 65 5 6 28 92 89 100 100 100 96 99 100 100 100 100 52 12 26 50 41 5 5 50 90 54 79 49 54 5 5 3 5 1 0 0
7 5 5 8 85 96 99 6 4 5 5 5 7 32 100 100 85 81 20 94 100 100 100 100 100 100 94 100 100 100 100 100 99 99 93 45 58 92 17 4 1 0 0
5 5 43 98 100 100 95 5 2 5 5 5 39 54 54 81 96 100 98 49 89 100 100 100 100 100 100 100 100 96 83 64 89 57 5 5 52 29 12 86 100 100 9
66 96 100 100 100 100 97 6 5 5 5 5 61 100 100 100 100 100 94 100 98 89 92 98 100 100 99 90 100 99 84 100 91 100 96 38 74 99 49 16 76 100 95
100 100 98 99 93 100 100 31 5 36 95 99 100 100 100 100 100 100 100 97 100 100 100 100 98 98 100 100 100 99 100 100 100 100 100 76 36 36 87 100 51 5 96
100 100 94 75 96 99 100 93 30 100 100 100 100 100 100 97 59 19 99 99 100 100 100 85 29 10 14 26 91 100 100 100 100 100 100 100 92 97 100 52 40 5 0
100 66 24 96 100 100 100 96 85 100 100 100 100 100 100 94 98 100 100 100 100 100 100 99 100 100 100 77 88 71 67 100 100 82 78 100 100 100 95 100 62 11 7

GFSMA_prec_cloud_009.txt.gz
Cloud_Cover
0 0 0 0 0 0 0 0 0 0 0 0 0 0 0 0 0 0 0 0 2 5 5 18 100 100 100 100 100 100 100 100 100 100 100 100 100 100 100 100 100 100 100
2 0 5 4 3 5 2 0 0 0 0 0 0 0 0 0 0 0 0 0 0 1 5 5 5 19 10 17 100 100 100 100 100 100 100 100 100 100 100 100 100 100 100
5 0 5 4 0 0 1 4 0 0 0 0 0 0 0 0 0 0 1 0 0 0 0 5 5 5 63 55 24 100 100 100 100 100 100 100 100 100 100 100 100 100 100
3 0 5 5 5 5 5 5 5 5 2 0 0 3 3 0 5 5 1 3 4 0 0 0 3 5 4 53 95 43 100 100 100 100 100 100 100 100 100 100 100 100 100
4 5 5 7 88 32 5 5 5 5 4 5 5 4 5 4 5 5 5 9 5 1 0 3 0 0 5 5 3 38 69 100 100 100 100 100 100 100 100 100 100 100 100
10 39 49 6 5 5 5 14 5 0 1 5 5 14 69 48 5 5 5 5 5 31 4 5 1 0 3 5 5 5 4 21 53 100 100 100 100 100 100 100 100 100 100
16 74 5 5 5 0 2 4 2 5 5 5 46 64 19 41 5 9 29 5 7 38 29 5 13 83 59 5 5 5 5 5 5 92 100 100 97 100 100 100 100 100 100
70 5 5 2 3 2 5 5 2 2 5 5 5 5 5 85 31 63 45 47 92 69 12 5 12 84 28 91 95 93 17 7 0 4 10 100 100 100 98 100 100 100 100
90 77 9 7 5 5 5 5 4 5 2 5 5 5 7 22 20 67 94 84 96 73 52 89 60 72 90 72 98 35 17 44 23 2 0 5 100 100 100 100 100 100 100
68 61 68 10 5 5 5 5 5 5 5 5 14 5 12 44 83 59 33 100 100 100 100 100 98 89 100 100 56 73 78 72 99 91 0 0 15 100 100 100 100 92 100
7 7 30 61 89 100 100 89 57 6 5 5 15 54 100 100 100 93 7 3 2 3 0 3 4 13 40 100 98 100 100 73 33 100 5 5 0 3 90 100 100 100 100
100 100 100 94 13 9 5 5 4 5 5 5 5 100 97 94 75 41 48 14 98 14 0 0 0 3 0 72 98 100 100 93 100 100 95 100 5 5 0 6 87 71 100
78 58 23 5 5 2 0 0 40 98 92 56 84 41 21 14 97 94 99 100 48 5 4 0 0 5 5 10 46 100 100 100 100 100 100 100 100 91 5 3 3 5 40
87 7 4 4 2 0 4 13 26 84 78 100 100 24 100 9 100 87 82 77 100 97 42 5 0 4 72 86 89 100 94 100 100 100 100 100 100 100 7 84 5 0 5
53 5 5 0 2 0 0 5 19 5 5 16 96 86 82 96 100 100 100 100 100 100 58 77 24 5 30 99 99 68 100 100 100 100 100 100 100 100 62 100 29 0 0
5 3 0 0 0 0 0 3 13 58 18 90 100 100 100 93 98 100 100 100 100 100 98 37 98 100 100 100 100 96 99 100 100 100 100 100 100 100 100 98 43 1 0
0 0 0 1 5 47 5 4 0 0 1 17 29 53 32 74 93 95 95 100 100 100 100 11 52 42 78 99 100 100 100 100 100 100 100 100 100 100 100 19 4 5 5
0 0 0 0 0 0 3 4 5 5 5 5 66 22 5 5 6 5 52 72 100 100 89 16 81 100 58 100 100 100 100 100 100 100 100 100 100 100 100 100 73 73 5
79 90 2 0 0 0 0 3 5 5 5 5 5 5 5 2 0 0 61 5 5 51 58 63 8 99 74 100 94 98 77 100 100 100 100 100 100 100 100 99 95 100 38
51 10 2 0 0 4 5 5 5 2 4 5 4 0 0 0 0 0 0 5 5 5 16 5 17 40 100 100 100 76 5 84 100 100 100 100 98 100 18 5 7 99 100
98 100 100 4 5 4 5 5 13 8 5 4 4 5 3 2 5 5 49 70 20 95 35 5 28 5 96 100 100 99 13 69 98 100 100 100 79 94 28 50 8 34 100
12 100 77 55 0 5 5 62 26 30 5 5 2 0 5 5 71 69 83 100 100 100 88 62 5 5 76 73 100 84 10 5 23 76 100 6 5 5 5 5 5 35 18
86 100 26 5 5 52 94 100 26 5 5 5 5 5 5 5 5 6 100 100 99 100 100 100 91 20 37 59 9 76 76 68 18 49 15 35 5 5 5 4 5 58 53
100 52 94 5 5 13 8 4 5 5 5 20 57 26 6 26 66 100 73 7 5 23 85 100 98 5 25 91 5 23 40 95 87 98 98 9 99 11 83 6 5 5 5
44 100 6 5 5 5 5 5 13 6 10 34 56 89 73 41 93 97 98 81 85 15 12 5 18 86 96 81 98 100 97 88 88 61 52 12 73 50 37 8 12 5 5
12 5 5 5 5 5 5 71 79 96 96 100 100 100 100 100 100 100 87 64 92 27 15 57 53 68 45 5 58 89 47 92 100 70 46 71 5 5 5 6 58 45 5

GFSMA_prec_cloud_012.txt.gz
Cloud_Cover
29 63 7 5 0 1 0 0 0 0 0 0 0 0 0 5 2 0 0 0 0 0 3 5 58 100 100 100 100 100 100 100 100 100 100 100 100 100 100 100 100 100 100
43 39 82 5 0 5 5 5 5 2 3 5 4 4 0 0 0 2 8 0 0 0 0 0 3 35 96 64 100 100 100 100 100 97 100 94 99 100 100 100 100 100 100
89 54 3 5 5 5 5 0 4 5 5 5 5 5 5 5 5 0 0 0 0 0 0 0 0 2 5 7 13 68 100 100 100 100 100 100 99 100 100 100 100 100 100
6 2 1 0 4 2 1 4 2 0 1 5 5 5 5 5 5 5 5 1 0 0 0 0 0 2 4 5 5 59 75 100 100 100 100 100 82 100 100 100 100 100 100
5 5 5 5 6 31 5 0 0 0 5 5 5 5 5 5 5 8 42 78 54 9 11 2 0 51 35 2 2 4 7 34 91 100 100 100 100 100 100 100 100 100 100
74 94 96 34 58 7 5 0 0 0 5 5 5 5 38 94 91 96 71 30 97 96 43 61 24 5 1 4 1 5 5 5 5 64 100 100 100 100 100 100 100 100 100
56 73 29 5 5 5 0 0 0 0 0 4 5 5 80 100 100 100 97 72 47 6 47 100 100 78 5 4 0 29 100 5 5 5 6 100 100 100 100 100 100 100 100
82 45 70 62 5 5 5 5 2 0 0 0 0 0 2 5 5 23 71 80 94 99 94 39 6 79 100 49 6 5 29 31 96 5 5 5 100 100 100 100 100 100 100
40 4 4 3 5 5 7 6 5 5 5 3 0 0 3 4 4 39 5 10 59 92 67 35 97 20 12 95 100 92 11 6 66 13 9 5 6 75 100 100 100 100 100
19 27 10 23 44 14 5 5 5 7 5 5 5 5 17 20 6 5 5 4 5 2 0 1 1 5 5 61 52 94 62 6 5 34 8 5 5 5 10 100 100 100 100
100 93 100 100 97 62 5 5 0 0 3 5 70 51 83 9 5 5 5 4 4 0 0 0 0 0 1 0 21 32 19 6 43 45 36 99 7 5 3 5 64 100 100
58 13 98 100 85 41 75 77 1 7 54 98 100 100 97 100 100 60 55 30 5 5 4 0 0 0 3 5 5 49 99 57 99 69 60 82 100 33 4 5 0 71 100
98 44 82 44 20 6 0 0 0 1 6 14 30 100 88 100 100 100 100 100 95 18 6 5 0 0 1 5 57 56 100 100 16 100 100 100 100 99 87 15 2 0 55
68 4 5 5 0 0 0 0 0 0 0 5 5 8 68 92 91 100 100 100 100 100 87 8 5 5 4 5 5 90 96 100 100 41 100 100 100 100 95 32 5 8 0
1 5 3 0 0 0 0 0 0 0 0 2 4 5 91 99 100 100 100 100 100 100 71 94 82 18 75 5 7 6 32 66 100 100 100 100 100 100 100 100 23 93 7
14 70 95 39 21 57 4 2 2 0 0 0 1 2 3 4 5 44 80 91 100 100 100 95 6 85 98 80 37 14 15 12 100 100 100 100 100 100 100 100 83 82 54
5 40 52 34 80 100 100 0 0 0 0 2 7 31 54 59 5 5 5 4 22 22 89 34 100 92 95 100 99 6 5 62 100 100 100 100 100 100 100 100 100 100 99
100 98 100 100 100 100 99 3 0 5 57 96 100 48 9 5 3 0 0 0 0 0 6 5 63 84 99 100 100 100 12 19 100 100 100 100 100 100 100 100 100 100 100
89 100 100 100 100 100 100 37 1 5 5 5 6 5 5 3 0 0 0 0 0 0 2 5 5 34 48 100 100 96 11 5 100 100 100 100 100 100 100 100 100 100 100
94 100 100 100 100 100 14 4 5 5 5 5 5 5 3 0 0 5 5 35 61 78 15 5 49 56 46 5 100 100 37 28 94 100 100 100 100 100 100 100 100 100 100
20 98 100 100 83 9 15 95 6 5 5 2 5 5 4 4 5 5 100 100 100 95 100 100 95 100 64 2 6 100 66 5 10 59 100 100 100 100 100 100 100 100 100
100 100 97 69 5 27 99 5 5 5 5 5 5 5 5 5 5 5 5 15 99 100 100 100 100 100 91 5 5 24 51 32 19 6 5 100 37 100 100 100 100 100 81
100 99 45 39 19 100 15 5 5 6 11 5 5 5 5 5 100 62 5 7 95 96 100 100 98 93 45 5 19 5 5 5 5 71 5 5 95 74 84 100 100 100 76
94 73 100 100 100 6 5 24 54 9 5 5 5 5 5 80 100 100 85 99 82 100 98 14 35 5 5 5 5 5 16 55 48 100 44 51 60 76 100 90 87 99 100
93 100 100 55 5 5 5 19 82 8 5 5 5 64 98 99 100 100 100 98 86 100 99 97 99 99 92 97 93 86 99 100 100 100 50 6 6 5 5 5 15 37 5
100 100 70 5 5 5 2 30 92 80 38 83 15 98 100 100 100 100 100 100 100 97 73 5 5 6 55 61 21 5 39 95 55 100 100 69 100 11 5 5 6 5 4

GFSMA_prec_cloud_015.txt.gz
Cloud_Cover
55 37 64 43 87 86 100 53 5 5 5 0 0 0 0 0 1 0 0 0 0 2 4 0 0 0 0 5 28 7 16 84 100 100 100 100 100 100 100 100 100 100 100
100 100 100 100 91 100 100 10 5 0 5 0 0 0 0 0 0 0 1 5 5 5 5 4 2 0 0 0 62 92 28 94 100 100 100 100 100 100 100 100 100 100 100
100 99 100 100 100 60 3 4 4 0 0 5 4 0 3 2 0 0 0 0 4 5 5 5 5 5 1 0 0 20 96 100 95 100 100 100 100 100 100 100 100 100 100
5 5 5 5 5 5 4 5 2 0 0 0 0 1 4 4 0 0 3 4 3 0 5 5 5 5 4 0 0 0 5 35 100 100 99 100 100 100 100 100 100 100 100
11 72 35 16 47 5 5 5 2 0 0 0 0 0 0 0 0 0 0 3 4 1 0 2 5 5 5 5 5 4 0 4 5 22 100 100 100 100 97 100 100 100 100
74 98 88 74 6 5 4 0 0 0 0 0 1 5 5 5 5 5 5 5 5 5 5 5 5 5 2 3 5 5 5 4 3 5 6 77 100 100 100 93 74 100 100
99 43 5 5 5 5 3 0 0 0 0 0 0 0 5 5 5 5 5 5 11 8 6 5 59 14 5 0 0 5 5 5 3 0 5 5 14 100 100 100 100 100 100
5 5 5 4 1 0 5 5 5 5 5 5 4 0 1 5 5 5 5 5 21 30 14 5 5 8 96 87 10 1 4 3 4 5 0 2 5 5 81 100 100 100 100
2 2 4 4 4 6 26 5 22 29 12 4 2 0 9 6 6 4 3 0 0 0 0 0 2 5 5 19 98 66 76 3 0 2 4 0 3 5 5 62 100 100 100
5 9 59 14 81 100 98 100 99 19 5 13 1 0 2 18 55 24 5 1 0 0 0 0 0 0 1 3 1 15 72 78 5 3 5 4 4 5 3 5 52 100 100
100 100 17 100 100 100 37 75 0 3 2 5 77 100 100 84 100 95 99 60 8 3 0 0 0 0 0 2 5 0 11 90 97 56 6 5 2 10 4 2 3 67 100
5 14 7 28 22 5 13 0 0 0 0 0 0 5 60 93 99 100 100 100 100 100 91 8 0 0 1 4 5 5 4 2 12 100 79 86 65 100 7 5 4 1 61
5 5 5 5 5 5 4 5 3 2 0 0 0 15 1 5 19 60 100 95 100 31 28 13 19 14 5 2 0 4 5 5 3 34 100 100 99 100 96 86 17 2 0
4 5 6 23 50 45 96 60 96 91 5 65 94 1 0 0 5 5 98 100 98 89 12 18 74 100 93 29 5 0 5 5 5 5 92 100 100 100 100 100 87 5 5
10 98 98 99 100 100 100 100 84 9 50 14 94 100 53 0 0 1 3 32 98 68 7 5 95 100 100 100 87 5 5 5 4 5 5 93 98 100 100 100 100 100 100
68 24 6 73 99 100 100 100 79 57 100 49 7 40 4 0 5 5 5 5 31 12 45 5 5 95 100 100 100 62 5 5 5 1 5 68 100 100 100 100 100 100 99
89 100 96 99 100 100 100 100 99 100 100 22 18 6 18 5 4 5 5 3 3 5 5 2 0 8 20 100 100 100 13 5 5 5 3 8 100 100 100 100 100 100 100
98 100 94 83 100 100 100 100 99 100 99 5 5 72 53 5 5 5 5 0 0 1 5 5 3 4 5 5 100 100 90 12 5 0 5 24 100 100 100 100 100 100 100
0 26 59 29 98 100 100 81 64 83 40 9 92 88 5 5 4 0 0 3 5 16 85 97 20 5 5 5 4 21 74 99 6 5 5 28 100 100 100 100 100 100 100
68 68 68 99 100 100 97 6 4 89 10 5 5 5 5 5 5 2 5 5 75 100 100 100 69 40 33 37 5 3 3 4 89 5 30 28 100 100 100 100 100 100 100
100 26 10 71 100 47 97 5 97 6 5 5 5 5 5 5 53 31 64 82 100 87 89 100 100 100 99 56 5 20 5 4 36 5 90 88 100 100 100 100 100 100 100
5 86 41 95 6 98 11 99 5 5 5 16 66 80 5 5 5 71 85 99 100 100 100 100 76 100 100 78 50 5 5 5 5 7 5 100 58 100 100 100 100 100 100
14 21 5 6 61 90 37 9 34 5 6 61 74 29 11 53 51 34 71 100 100 100 100 100 100 100 100 100 95 27 5 5 5 5 5 97 96 100 100 100 100 100 100
18 10 25 99 100 23 5 5 40 5 5 5 5 5 63 81 94 100 100 100 100 100 100 100 100 100 32 44 80 5 5 5 33 22 8 98 61 100 100 69 100 100 100
93 58 98 100 16 5 3 8 51 52 5 5 62 5 98 100 95 100 100 100 100 100 96 79 63 99 100 100 98 87 96 100 100 98 68 76 53 69 100 41 34 83 96
99 99 69 34 5 5 2 7 77 44 40 77 9 5 55 100 100 100 100 100 100 100 97 94 76 5 28 5 37 86 13 14 66 64 11 97 43 25 72 8 6 88 100

GFSMA_prec_cloud_018.txt.gz
Cloud_Cover
41 82 6 35 100 88 86 13 48 71 0 0 0 0 0 0 0 0 0 0 0 0 0 0 0 0 0 0 0 1 3 87 100 100 100 100 100 100 100 100 100 100 100
13 6 14 18 5 5 4 2 2 0 0 0 0 0 0 0 0 0 0 0 0 0 0 0 0 0 5 0 0 0 0 0 11 100 100 100 100 100 100 100 100 100 100
5 5 5 5 5 5 5 5 5 5 1 0 0 0 3 1 0 0 0 0 0 0 0 5 0 0 0 4 3 0 0 0 4 5 50 100 100 100 100 100 100 100 100
25 62 5 28 79 97 15 12 5 5 5 0 0 1 5 5 5 5 4 1 0 0 0 0 0 0 4 1 1 4 0 1 0 5 4 6 88 100 100 100 100 100 100
31 97 21 87 88 65 35 5 5 5 0 0 0 0 3 5 5 1 2 5 5 4 0 0 0 1 1 0 5 2 3 0 0 1 0 1 35 81 100 100 100 100 100
97 100 24 5 8 5 5 5 4 1 0 0 0 0 0 0 0 0 2 5 5 5 5 5 4 0 0 4 0 2 5 5 4 0 3 1 5 100 98 100 100 100 100
70 5 5 5 32 5 2 0 2 5 5 5 5 5 3 4 5 5 5 5 5 4 5 5 6 9 5 5 1 4 0 5 4 5 5 19 0 12 100 100 100 100 100
5 5 7 4 1 1 2 6 97 33 5 4 2 5 4 4 4 4 4 2 0 0 0 0 0 2 4 5 5 5 5 7 1 5 8 3 0 0 4 75 99 100 100
0 1 4 5 5 5 5 10 5 5 5 2 3 6 22 2 30 3 1 0 4 1 0 0 0 0 0 0 0 4 16 76 97 3 7 8 9 0 0 1 5 19 94
5 5 48 46 42 6 5 3 0 0 0 5 0 1 20 71 100 93 5 5 5 5 0 0 4 2 0 0 0 0 0 1 37 51 44 87 28 14 0 1 3 0 7
78 72 68 6 0 4 3 4 1 0 0 0 0 0 2 25 7 98 100 100 14 27 5 0 0 5 5 5 2 0 0 0 0 0 49 47 100 98 24 0 1 4 5
3 0 2 5 5 6 54 5 5 5 5 1 0 0 18 65 5 31 61 79 91 47 5 42 24 6 16 5 5 0 0 0 0 0 0 32 100 100 100 33 17 97 5
0 0 4 5 5 42 26 12 49 64 31 50 60 5 54 92 2 1 8 28 68 5 5 5 90 64 66 78 10 4 1 0 0 0 0 0 51 72 94 51 84 6 4
5 5 5 5 5 5 26 63 96 99 65 99 100 100 94 50 37 15 35 41 25 5 5 5 5 95 88 92 99 5 5 5 1 2 0 0 2 26 100 100 98 26 5
5 0 49 90 41 72 42 95 100 100 97 94 98 89 4 2 5 5 7 43 100 41 4 0 4 1 43 90 100 100 50 5 5 0 0 0 0 47 100 100 100 100 37
2 5 87 12 34 86 95 100 99 96 59 84 36 5 26 58 5 70 72 76 92 100 67 0 0 0 0 0 6 88 95 74 5 5 2 0 0 1 42 100 100 100 98
0 0 2 84 100 94 98 5 28 49 87 29 0 5 5 5 5 5 5 5 3 4 5 1 0 0 0 0 0 4 92 74 9 9 91 5 3 0 5 88 100 100 92
2 0 44 100 100 40 5 64 54 74 5 3 5 5 5 5 5 1 1 5 0 4 5 91 5 5 5 0 74 5 5 98 81 12 5 87 5 5 5 46 100 100 100
1 5 92 96 5 46 88 100 63 5 5 5 5 5 5 5 5 5 5 5 5 5 11 100 85 5 5 5 2 33 4 0 0 44 6 5 16 5 5 14 100 100 100
2 5 95 44 81 100 100 100 12 5 5 4 5 5 5 5 5 8 46 64 44 83 96 73 61 99 88 11 88 99 34 3 0 0 5 1 34 51 70 52 100 100 100
5 93 99 78 97 100 99 5 5 5 5 5 5 7 5 59 100 100 100 99 100 100 100 100 100 98 92 92 99 100 95 45 4 0 2 3 8 90 100 95 100 100 100
52 99 46 92 100 65 5 80 6 5 5 5 6 5 5 5 29 100 83 100 100 100 100 94 78 88 100 83 100 100 100 98 5 0 5 2 4 98 88 100 100 100 100
83 26 9 10 19 14 79 18 13 5 5 5 5 5 13 76 25 49 32 87 100 100 100 100 100 100 100 99 99 99 100 96 37 5 5 5 5 18 100 100 100 100 100
5 66 96 88 96 80 5 5 5 5 5 5 5 8 41 68 52 99 98 100 100 100 100 100 100 88 76 100 99 100 99 85 77 6 7 90 5 10 72 97 100 100 100
83 98 99 85 16 22 5 5 5 5 5 5 9 5 97 98 66 100 100 100 100 100 100 100 100 100 97 100 100 100 94 83 75 96 100 94 56 5 8 60 100 100 100
74 10 5 8 62 5 0 5 43 56 31 44 14 19 32 100 100 100 100 91 100 100 100 100 98 95 83 97 72 42 46 99 97 96 92 85 6 5 14 5 5 92 93

GFSMA_prec_cloud_021.txt.gz
Cloud_Cover
5 5 5 4 24 31 5 5 5 2 1 0 0 0 0 0 0 0 0 0 0 0 0 0 0 0 0 0 0 0 0 0 0 2 5 85 100 100 100 100 100 100 100
67 64 28 8 76 18 34 6 13 5 5 5 0 0 0 0 0 0 0 0 0 3 0 0 0 0 0 0 0 0 0 0 0 0 2 20 100 100 100 100 100 100 100
100 66 65 100 100 96 19 5 38 5 5 5 1 0 0 0 0 0 0 0 0 0 0 0 0 0 0 0 0 0 8 6 0 0 0 32 91 100 100 100 100 100 100
100 100 96 100 100 99 5 5 31 5 5 5 5 5 5 0 0 0 4 5 5 0 0 0 0 0 0 0 0 0 1 5 45 2 0 0 93 100 100 100 100 100 100
100 100 100 100 84 2 3 2 2 5 5 5 5 4 2 0 0 0 0 1 0 1 1 5 5 5 0 0 0 0 0 0 5 100 83 0 0 76 100 100 100 100 100
93 28 11 5 0 0 0 0 2 2 0 5 5 5 5 0 0 0 0 0 0 0 1 5 5 9 5 4 1 5 2 0 0 8 73 100 14 0 89 100 100 100 100
5 5 5 5 5 0 0 1 5 5 2 0 0 0 0 0 3 5 5 17 14 16 5 5 0 0 5 5 5 5 0 0 0 0 0 5 52 12 0 100 100 100 100
2 0 0 4 5 19 70 21 4 0 0 0 0 0 0 0 4 1 0 0 0 1 4 5 3 4 0 0 0 0 0 0 0 0 0 0 2 2 2 0 22 93 100
2 1 5 5 5 4 1 0 4 5 5 2 0 1 0 0 5 0 2 4 5 5 5 5 5 5 5 5 2 0 0 0 0 2 0 0 0 1 0 2 8 0 5
0 5 4 5 5 0 2 3 0 0 0 0 1 3 5 5 5 5 5 17 6 5 5 5 5 5 5 15 6 0 0 0 0 0 4 0 0 0 59 79 7 7 0
0 0 2 0 0 0 0 5 3 5 5 11 5 5 5 5 16 100 50 39 52 42 22 5 5 5 5 72 48 4 0 0 0 0 0 0 2 25 100 100 100 21 0
0 0 0 0 0 1 6 83 84 56 40 16 5 12 68 11 5 65 92 98 40 5 5 5 10 5 6 5 85 97 7 4 2 0 0 0 0 13 100 36 100 99 22
0 0 2 5 6 80 100 100 51 5 5 5 5 61 17 5 3 5 37 77 80 5 5 5 5 5 1 5 5 55 98 53 5 5 0 0 2 0 34 98 7 12 96
5 46 54 5 42 100 83 49 6 5 5 5 5 5 0 0 4 0 5 47 49 41 5 5 6 5 5 5 3 5 6 100 100 59 5 0 0 0 0 100 35 4 88
58 98 9 5 8 2 5 39 7 6 5 5 5 4 0 0 1 5 5 76 99 98 14 5 5 5 5 5 5 5 5 4 98 100 81 5 0 0 0 99 94 5 12
5 5 5 2 2 5 56 50 48 44 5 6 5 5 0 3 5 5 5 55 89 91 75 5 5 5 5 5 5 5 5 2 1 35 100 15 5 4 0 1 17 18 5
5 4 5 5 5 5 100 76 31 25 55 86 7 4 4 5 7 81 93 76 60 77 81 2 5 5 5 10 44 6 4 5 5 5 45 57 5 21 5 1 1 66 95
5 4 5 5 5 96 93 5 14 89 99 90 5 5 5 8 5 80 100 100 100 100 100 97 52 76 100 100 100 100 16 82 100 40 1 5 5 16 62 5 3 41 97
5 5 5 9 84 98 85 99 98 100 100 17 7 5 5 74 42 60 98 100 100 100 100 100 64 100 100 100 100 100 100 100 100 5 0 2 5 5 77 52 5 5 87
5 5 6 28 68 53 100 100 100 99 6 5 5 5 5 5 5 77 100 100 100 100 100 100 100 100 100 100 100 100 100 100 100 93 4 0 1 2 6 100 15 26 42
5 1 6 5 13 97 100 100 78 77 25 5 5 2 5 5 58 94 100 100 100 100 100 100 100 100 100 100 100 100 100 99 97 99 7 5 3 5 21 30 97 11 72
4 5 5 5 6 16 68 83 5 5 4 0 0 2 5 5 84 100 100 100 100 100 100 100 100 100 100 100 100 100 100 100 100 95 68 98 5 14 93 34 100 100 57
0 16 5 5 49 91 60 5 5 5 4 5 5 7 75 100 100 100 100 98 100 98 100 99 100 100 100 100 100 100 100 100 100 100 98 100 88 9 35 81 99 100 100
1 6 5 5 52 49 5 5 5 4 5 5 10 94 100 100 100 100 100 100 100 100 100 100 100 100 100 100 100 100 100 100 100 100 100 96 98 86 20 7 99 100 100
4 5 5 5 5 5 5 5 3 5 24 51 94 100 100 100 100 100 100 100 100 100 100 86 95 99 100 100 100 100 100 100 100 100 100 100 97 100 99 16 5 100 100
5 5 15 56 5 5 5 2 5 94 100 100 100 30 99 100 100 100 100 100 100 100 100 99 100 100 100 100 99 94 100 100 100 100 100 98 100 100 100 36 5 100 100

GFSMA_prec_cloud_024.txt.gz
Cloud_Cover
100 100 99 100 98 91 9 5 5 22 3 5 2 2 0 0 0 0 0 0 0 0 0 0 0 0 0 0 0 2 8 1 5 0 1 5 92 100 100 100 100 100 100
100 100 90 94 94 100 41 35 87 100 100 61 27 0 0 0 0 0 0 0 0 0 0 0 0 0 0 0 0 0 0 16 10 0 4 2 6 100 100 100 100 100 100
100 100 100 88 96 100 100 94 100 100 99 6 0 0 2 1 0 0 0 0 0 0 0 0 0 0 0 0 0 0 0 0 0 45 6 3 0 17 100 100 100 100 100
100 100 100 100 100 100 100 100 100 96 5 0 0 0 5 5 5 1 4 0 0 0 0 0 0 0 0 0 0 0 0 0 0 1 70 26 13 4 42 100 100 100 100
100 100 100 100 100 100 100 100 34 3 0 0 1 0 0 0 1 3 0 5 0 2 0 0 4 1 0 0 0 0 0 0 0 0 2 100 49 38 23 6 100 100 100
99 100 100 100 100 100 76 4 0 2 2 5 3 0 0 0 0 2 5 5 2 5 5 5 4 4 5 5 3 0 0 0 0 0 0 1 22 31 14 2 68 100 100
100 100 100 29 0 0 0 4 2 0 0 4 3 0 0 0 5 7 80 65 42 35 77 74 51 13 5 4 3 5 3 0 0 0 1 0 0 0 0 5 3 92 100
27 5 5 4 0 0 0 1 5 4 2 5 5 5 7 17 4 99 24 5 5 10 5 5 5 3 5 4 5 5 4 5 1 0 1 0 0 0 0 0 0 11 87
2 0 0 0 0 0 0 0 1 4 5 5 5 4 3 2 4 3 28 62 58 5 5 5 64 5 32 15 16 46 32 5 2 0 0 0 2 0 0 2 2 3 29
5 5 0 0 0 0 0 5 5 5 5 4 5 5 5 12 80 57 91 100 99 34 60 66 79 56 77 44 97 100 82 4 0 0 0 0 5 5 1 0 32 98 100
5 5 0 0 5 5 5 5 5 67 6 5 5 5 70 96 100 100 100 98 82 100 100 85 11 5 7 5 21 94 88 5 12 3 3 47 23 12 5 5 100 100 100
4 5 4 4 2 2 5 5 48 80 63 27 43 99 100 100 100 100 100 100 97 6 84 94 93 74 57 31 5 5 5 3 9 88 10 55 4 0 4 5 27 100 100
0 0 2 5 5 5 6 70 90 100 100 99 98 100 100 100 100 100 100 100 97 7 7 57 92 100 100 91 39 23 9 5 0 12 99 13 5 1 0 0 57 100 100
9 48 9 5 5 6 93 79 100 100 100 100 100 100 100 100 100 100 100 100 84 56 36 62 16 58 89 100 83 2 5 5 5 3 12 93 74 5 0 0 0 6 100
49 5 5 5 5 91 100 100 96 91 77 68 100 100 100 100 100 100 100 100 100 91 52 38 38 83 89 100 100 64 42 5 5 5 1 5 6 5 5 2 0 0 0
5 5 5 5 5 13 94 99 98 74 74 97 100 100 100 100 100 100 100 100 100 100 71 79 92 100 100 100 100 100 96 27 5 2 0 0 5 70 5 5 2 0 0
5 5 5 5 5 42 95 81 46 90 88 99 100 100 100 100 100 100 100 100 100 100 98 5 100 100 100 100 100 89 100 100 100 32 5 5 0 4 5 5 5 1 0
5 5 6 40 44 82 87 100 100 82 90 100 100 100 100 100 67 98 100 100 100 100 100 100 100 100 100 100 100 100 100 100 100 100 100 100 5 0 1 5 5 5 0
52 54 96 52 76 92 69 23 97 100 100 99 100 95 79 5 5 5 5 83 100 100 100 100 100 100 100 100 100 100 100 100 100 100 68 96 5 0 0 4 5 97 20
93 99 49 46 15 49 97 90 84 100 100 100 68 5 5 5 5 5 16 95 100 100 100 100 100 100 100 100 100 100 100 100 100 100 100 62 60 12 0 0 4 95 89
39 22 75 85 84 64 36 32 87 97 95 15 5 2 2 4 5 72 97 97 100 100 100 100 100 100 100 100 100 100 100 100 100 100 100 100 100 92 79 6 6 11 95
71 48 46 95 75 82 5 5 9 20 5 5 4 0 2 5 87 16 96 93 90 100 100 100 100 100 100 100 100 100 100 100 100 100 100 100 100 100 100 100 67 5 83
65 6 94 81 87 90 5 5 4 1 5 5 4 5 5 31 100 100 100 100 100 100 100 96 100 100 100 100 100 100 100 100 100 100 100 100 100 100 89 100 21 4 74
99 100 100 94 82 39 5 5 3 4 5 5 5 7 53 30 100 83 100 100 100 100 100 100 100 100 100 100 100 100 100 100 100 100 100 100 100 100 75 100 70 4 94
100 100 100 94 80 93 5 5 0 6 75 54 44 75 33 5 100 94 100 100 100 100 100 100 88 72 28 38 77 92 100 100 100 100 100 99 100 100 100 100 98 5 94
100 100 93 69 34 61 5 5 2 24 89 94 83 79 18 28 45 98 100 100 100 100 100 100 100 100 100 100 99 99 100 100 100 100 100 100 100 100 95 100 100 97 92

GFSMA_prec_cloud_027.txt.gz
Cloud_Cover
100 100 85 64 84 100 91 58 24 15 100 100 98 95 100 96 100 96 2 0 0 0 0 0 0 0 0 0 0 0 0 0 0 1 0 0 2 54 100 100 100 100 100
100 100 100 100 100 100 97 91 70 82 100 100 100 100 100 100 65 5 5 5 0 0 0 0 0 0 0 0 0 0 0 0 0 0 4 14 0 4 100 100 100 100 100
100 100 100 100 100 100 100 100 100 100 85 87 84 29 94 5 5 5 5 5 5 5 5 5 0 0 0 0 0 0 0 0 0 0 0 0 15 14 85 100 100 100 100
100 100 100 100 100 100 100 87 100 97 92 76 100 95 5 0 0 0 0 0 5 5 10 10 5 1 0 0 0 0 0 0 0 0 0 0 0 1 34 100 100 100 100
100 100 100 74 56 78 95 99 73 22 34 25 3 0 0 0 0 0 0 3 22 23 46 7 5 4 0 1 0 1 0 0 3 0 0 0 2 0 2 10 100 100 100
10 87 94 86 30 22 16 5 9 5 0 0 0 1 0 0 0 4 5 6 57 75 50 89 56 69 78 5 2 5 12 5 5 81 10 2 0 0 0 0 51 100 100
21 96 100 100 100 82 28 58 1 3 0 0 0 2 0 0 5 5 5 70 75 11 95 76 85 100 48 100 99 82 5 5 100 44 17 5 5 0 0 0 0 16 100
18 23 42 47 5 8 0 0 3 4 0 0 0 5 5 5 5 4 15 31 46 45 75 95 26 67 100 78 100 58 75 30 5 2 5 5 4 3 2 4 0 0 0
6 69 65 65 44 19 0 0 5 5 5 5 5 5 5 4 4 2 5 6 14 81 89 50 69 89 94 94 97 94 50 49 3 5 4 5 5 5 8 5 5 1 0
83 33 4 6 0 2 5 5 5 5 5 5 5 5 35 28 13 5 69 18 36 55 28 5 98 76 49 5 90 13 82 46 34 0 5 16 88 97 76 10 6 6 6
5 5 3 2 1 4 2 5 5 5 6 82 95 5 13 48 53 100 82 99 60 70 77 100 71 14 10 46 90 86 100 9 4 0 2 5 48 100 100 97 41 7 9
45 42 62 1 0 3 5 5 54 80 100 88 28 81 98 96 99 100 86 96 77 27 96 28 6 20 16 22 30 100 88 21 5 5 4 1 5 15 92 100 5 5 21
70 84 35 5 5 5 5 5 18 92 66 74 93 100 39 88 88 100 100 91 74 24 26 66 88 100 71 91 28 45 28 22 17 5 1 5 5 4 5 3 0 1 2
99 6 5 5 5 5 5 36 51 90 36 7 30 100 95 97 100 100 100 98 7 5 55 89 96 64 80 96 17 5 4 4 5 3 5 15 5 4 5 5 0 0 0
10 5 5 5 5 5 5 81 59 23 56 5 28 100 72 91 72 100 100 100 100 5 5 30 80 100 100 86 46 5 36 5 5 5 2 5 5 5 0 5 5 0 0
14 5 5 5 5 5 30 85 93 13 57 22 99 100 84 72 98 100 98 94 100 35 6 82 74 98 86 93 84 45 17 21 6 5 5 5 1 0 0 2 1 5 0
5 5 5 5 5 8 29 5 11 5 11 76 92 23 72 100 94 89 100 41 100 98 63 2 26 96 98 94 100 76 90 35 22 89 56 89 63 4 4 0 0 14 5
5 5 5 6 40 48 17 68 82 23 98 100 100 88 100 100 100 48 5 7 5 5 78 8 13 100 100 100 92 100 100 100 96 83 97 93 19 58 9 5 0 0 5
9 5 5 21 72 75 100 98 90 100 98 85 92 96 99 97 5 5 19 5 5 50 100 70 65 98 94 100 74 98 99 75 100 100 64 89 60 96 100 5 0 0 1
42 51 52 19 87 95 98 100 100 75 94 100 99 100 61 15 5 5 5 5 61 100 100 100 100 100 100 97 100 99 93 78 100 99 92 92 100 58 99 5 0 0 0
100 58 63 50 58 100 100 42 56 60 88 100 92 9 16 5 0 1 5 85 100 100 100 100 99 75 98 100 100 100 100 100 67 47 85 98 100 100 86 97 17 4 5
100 100 77 97 88 100 96 61 45 5 5 6 5 5 5 27 81 5 88 86 54 99 99 100 100 100 100 100 100 100 100 100 91 92 100 100 100 100 100 100 100 100 86
77 43 76 99 84 99 21 4 6 0 5 10 9 5 14 12 94 64 74 93 99 94 90 71 97 100 100 100 99 97 99 100 100 99 98 45 100 100 100 100 70 5 4
93 97 100 100 100 100 54 17 5 0 11 62 74 77 67 78 70 5 5 70 80 100 100 100 100 96 99 70 69 100 99 96 85 81 98 96 100 100 100 31 7 2 0
100 100 100 100 100 99 46 98 5 5 44 78 99 76 41 12 18 4 5 74 80 94 100 94 37 21 5 5 21 95 100 100 100 80 100 100 100 100 59 90 70 2 3
100 100 100 100 99 99 100 5 5 5 66 98 98 69 100 5 5 5 12 65 97 99 39 72 73 98 100 100 100 93 100 100 99 86 100 100 100 100 77 100 93 7 7

GFSMA_prec_cloud_030.txt.gz
Cloud_Cover
100 80 84 64 100 58 89 100 79 43 82 77 47 25 100 100 100 39 17 77 5 1 3 2 2 0 0 0 0 0 0 0 0 0 6 6 11 15 100 100 100 100 100
94 99 72 100 99 99 86 100 98 92 100 100 100 100 100 100 100 85 44 2 5 5 5 4 5 5 0 0 0 0 0 0 0 0 0 0 0 3 49 100 100 100 100
100 100 100 63 100 100 100 92 100 82 100 100 10 14 8 59 84 43 51 15 0 0 7 92 5 4 5 0 0 0 0 0 0 0 0 0 14 1 0 87 81 100 100
99 100 100 100 100 100 100 89 42 5 40 37 95 27 5 5 2 0 0 0 0 0 5 8 13 6 3 0 0 1 4 5 5 2 0 0 5 66 60 8 80 100 100
100 100 86 90 100 100 95 76 5 5 5 0 0 1 0 0 0 0 0 1 35 95 100 100 100 100 97 65 19 5 1 83 49 70 100 84 0 1 26 69 23 100 100
91 87 60 37 96 100 88 94 8 5 3 0 0 0 0 0 2 0 0 3 1 68 100 100 100 96 82 18 7 74 97 99 96 100 100 100 61 5 1 4 0 58 100
0 0 0 1 4 41 5 0 0 0 0 0 0 0 0 0 0 0 0 0 1 49 100 100 98 31 5 5 5 6 5 5 14 73 100 79 6 5 20 2 0 0 79
5 5 5 34 5 1 5 4 0 0 0 0 0 0 4 3 0 0 0 0 4 6 34 59 41 88 65 5 3 0 74 5 7 45 37 19 5 5 15 18 3 0 1
64 7 26 27 5 5 5 1 0 0 0 0 0 4 3 5 4 0 0 0 0 0 3 5 73 51 80 7 5 1 1 14 5 0 0 5 14 35 100 98 98 7 2
72 78 15 4 5 5 1 0 0 3 1 2 4 5 1 10 6 5 5 3 1 0 0 0 8 80 17 51 5 1 4 2 5 3 4 0 1 25 90 81 100 90 0
91 5 0 5 5 5 0 0 5 5 5 5 5 5 5 5 5 5 2 0 0 0 0 3 5 7 5 5 5 5 10 26 5 5 4 0 0 5 79 100 49 80 100
6 3 4 5 5 0 1 0 2 16 16 5 4 3 5 12 30 48 3 3 5 0 0 0 0 5 1 4 5 5 7 5 6 25 5 3 3 5 7 99 100 91 100
57 16 5 5 4 5 5 5 5 5 10 5 5 5 11 6 100 95 49 5 5 0 0 0 0 0 0 2 3 18 20 1 1 2 5 0 1 5 49 100 100 100 100
100 28 5 54 35 69 5 14 16 24 5 5 15 5 86 98 100 100 92 5 6 2 0 0 0 0 0 4 66 5 2 1 0 0 0 0 0 0 5 54 56 92 100
25 5 5 5 75 72 86 44 5 5 5 7 5 5 76 94 100 99 32 67 100 93 2 4 0 0 61 56 5 4 0 0 0 0 0 0 0 3 5 5 5 5 72
65 54 5 64 100 100 100 100 100 80 5 5 5 18 100 100 100 8 5 5 82 96 21 1 5 36 5 0 0 0 0 0 0 0 0 0 2 5 5 10 4 5 5
80 5 84 100 100 100 100 100 18 5 5 29 94 84 100 100 98 58 6 6 5 18 5 1 0 0 4 3 0 0 0 0 0 4 5 5 10 29 5 13 43 4 0
45 80 88 100 74 100 84 5 5 5 48 100 79 90 73 91 18 31 5 4 0 0 0 3 5 5 5 0 4 5 5 5 5 5 1 5 5 5 5 9 100 27 5
99 100 96 34 50 26 46 66 53 10 100 66 26 15 16 5 5 3 0 0 0 1 5 5 5 3 5 5 5 5 5 5 8 5 8 7 55 100 100 100 100 100 9
94 86 93 87 95 99 95 98 35 100 88 38 25 16 49 5 5 4 0 0 1 5 5 5 5 5 5 5 22 42 24 5 5 5 2 5 3 55 74 100 70 100 82
100 100 100 100 98 98 100 100 100 100 100 66 5 80 14 5 4 0 1 3 5 5 5 5 5 5 5 5 10 71 86 27 5 5 5 2 95 87 5 93 100 93 100
100 100 100 100 100 84 100 100 100 100 100 100 100 42 4 5 5 5 5 5 5 5 5 5 10 99 39 86 98 89 79 17 39 4 5 0 39 5 88 100 100 100 100
100 100 100 100 100 88 100 100 100 100 98 92 72 5 5 5 5 5 4 0 0 4 47 99 100 100 100 91 17 16 5 5 14 5 5 0 5 10 100 100 82 14 100
100 100 100 100 100 100 100 100 100 100 82 22 36 5 5 46 5 0 0 0 2 5 5 68 93 8 20 5 5 5 5 5 5 5 85 28 26 5 82 96 68 67 100
100 100 100 100 100 100 100 100 76 100 100 5 5 5 17 8 5 5 2 4 5 4 5 11 5 5 5 76 83 99 76 96 62 41 99 6 93 70 6 55 90 100 100
100 100 100 100 100 100 99 100 100 98 5 5 5 5 5 5 5 5 4 5 5 5 4 1 5 5 20 61 100 100 100 100 98 61 100 93 99 97 18 74 100 100 100

GFSMA_prec_cloud_036.txt.gz
Cloud_Cover
99 100 100 99 98 100 100 96 100 100 100 100 100 100 11 8 5 6 1 0 0 0 1 0 0 2 19 0 0 0 0 0 0 0 0 0 1 52 100 100 100 100 100
100 100 100 100 100 100 100 100 100 100 100 99 98 9 5 5 1 1 0 0 0 0 0 0 0 0 0 0 2 4 2 2 0 0 10 16 14 11 96 91 93 100 100
100 100 100 100 100 100 100 100 100 100 100 96 22 64 5 5 0 0 0 0 0 0 0 0 0 0 3 5 5 5 5 5 23 5 5 0 0 0 0 7 0 2 84
100 100 100 100 100 100 100 100 100 94 5 81 5 4 0 0 0 0 0 0 0 0 0 5 5 5 5 5 5 5 5 6 69 25 31 5 1 0 0 0 1 0 0
100 100 100 100 100 100 100 86 12 42 6 5 0 0 0 0 0 0 0 0 0 0 5 0 5 5 5 5 5 5 5 49 86 43 5 4 5 5 4 0 0 0 6
100 100 100 100 100 100 44 29 5 5 3 0 0 0 0 0 0 0 0 0 0 0 1 1 4 5 5 8 71 5 15 49 55 27 22 5 5 5 5 5 2 0 100
100 100 100 81 17 11 42 5 5 0 4 5 0 0 0 0 0 0 0 0 0 0 0 0 3 5 5 76 96 57 32 38 5 5 4 5 7 5 0 5 5 2 95
98 90 47 83 87 16 5 9 8 20 77 66 3 0 0 0 5 5 3 5 5 0 0 0 0 0 0 0 0 0 0 0 1 5 5 1 0 7 4 3 2 17 5
100 98 67 80 26 17 70 98 91 75 56 87 0 0 0 0 4 6 88 44 5 5 0 0 0 0 0 0 0 0 0 0 1 5 5 0 1 2 96 44 41 6 4
5 5 5 5 5 26 93 90 75 96 100 0 0 0 4 4 5 5 5 5 1 0 0 0 0 0 0 0 0 0 0 0 0 0 0 0 5 13 100 99 85 83 15
5 5 5 5 68 41 69 100 100 100 99 13 5 5 5 5 5 5 6 5 5 3 4 5 6 4 0 0 0 0 0 0 0 0 2 5 5 5 98 100 100 92 84
11 66 80 100 100 53 100 88 44 44 6 5 5 5 5 5 5 5 5 5 5 5 5 5 54 5 1 1 0 0 0 0 0 0 0 4 5 5 17 95 100 100 100
74 100 70 32 100 95 78 90 41 49 5 5 5 5 5 5 5 5 7 12 89 20 9 56 68 9 6 5 0 0 0 0 3 5 5 5 5 5 5 15 100 100 100
100 97 100 100 100 87 93 97 90 100 5 42 5 5 5 5 11 54 88 100 100 38 74 73 98 90 5 0 0 0 0 0 0 0 0 1 0 4 5 66 90 100 100
99 100 93 100 100 100 99 34 80 56 87 63 11 35 9 81 81 81 84 100 100 88 63 49 99 5 2 0 0 0 0 0 0 0 0 0 5 23 93 100 100 100 100
100 100 100 100 100 81 98 84 100 95 98 65 5 75 6 5 70 97 100 100 100 100 51 5 5 6 4 0 0 0 0 0 0 0 0 5 5 5 5 23 33 96 100
84 100 100 100 78 92 96 66 100 91 74 82 82 100 66 67 100 66 72 87 88 100 66 27 5 2 0 0 0 0 0 0 0 0 5 5 5 5 1 5 5 5 5
100 100 99 87 31 22 15 92 97 100 100 100 100 100 100 100 100 100 100 100 100 100 81 0 1 0 0 0 0 2 0 0 1 0 5 5 3 0 0 27 81 5 5
65 66 73 91 70 65 30 98 98 84 95 100 100 100 100 100 100 100 100 100 100 42 5 3 1 0 0 0 0 1 4 5 0 2 0 0 0 0 5 5 1 2 5
66 56 68 66 98 96 89 77 73 74 80 96 100 100 100 100 100 100 100 99 50 4 0 5 5 5 5 1 5 5 32 5 0 0 0 0 3 2 1 0 0 0 5
80 100 100 96 100 100 100 100 100 100 100 100 100 100 100 100 100 100 44 3 0 3 5 5 5 5 5 5 13 9 13 5 2 0 2 4 5 0 3 4 0 0 3
100 100 100 100 100 100 100 100 100 100 100 100 100 100 100 100 73 100 2 1 5 5 5 66 5 5 6 70 26 38 6 48 87 5 65 5 5 5 5 5 5 5 5
100 100 100 99 100 100 100 100 100 100 100 100 100 100 100 100 30 3 5 5 5 4 0 5 6 17 66 5 48 70 81 96 90 17 68 86 5 5 5 5 5 5 38
96 100 100 100 100 100 100 100 100 100 100 100 100 100 82 3 5 5 5 5 5 1 0 0 5 4 4 38 96 99 100 97 70 5 5 92 5 5 5 5 5 17 75
100 100 100 100 100 100 100 100 100 100 100 94 17 79 83 4 0 5 5 5 5 5 5 2 5 5 5 5 48 100 90 96 87 20 38 89 88 22 5 5 5 7 5
88 56 97 100 100 93 5 21 98 100 100 87 51 83 5 0 5 5 5 5 5 5 5 5 5 1 0 2 3 36 94 100 100 71 97 61 44 97 61 6 45 5 5

GFSMA_prec_cloud_039.txt.gz
Cloud_Cover
100 100 100 100 100 100 100 100 100 100 100 100 94 28 5 42 5 5 11 5 2 0 0 0 11 30 0 0 0 0 0 0 0 2 0 0 0 0 0 0 0 0 3
100 100 100 100 100 100 100 100 100 99 100 56 17 5 29 56 13 5 5 1 0 0 0 24 6 33 1 16 8 16 46 5 5 4 0 0 0 0 0 0 0 0 0
100 100 100 100 100 100 95 100 100 100 100 61 61 100 79 11 5 5 5 0 0 0 0 0 0 4 5 7 100 100 100 100 11 10 20 12 2 0 0 0 0 0 0
100 100 100 100 100 100 100 100 100 100 100 100 100 92 9 5 24 4 0 0 0 0 0 0 0 3 5 5 5 5 24 53 87 77 70 5 5 1 0 0 3 1 1
100 100 100 100 100 100 100 100 100 100 100 88 16 5 5 3 0 0 0 0 0 0 0 0 3 2 5 5 5 5 12 40 40 48 32 97 10 5 5 2 4 2 6
100 100 100 100 100 100 97 100 100 100 63 7 13 4 4 5 4 0 0 0 0 0 0 0 0 0 0 1 1 0 3 4 5 17 65 51 5 5 5 0 2 3 5
100 100 100 100 100 100 100 99 69 5 17 4 5 58 48 26 0 0 0 0 0 0 0 0 0 0 0 0 0 0 0 0 1 4 5 5 5 5 5 3 0 5 47
100 99 72 61 89 84 96 12 4 0 5 26 84 52 95 100 100 30 5 5 5 0 0 0 0 0 0 0 0 0 0 0 0 0 1 5 5 5 5 5 9 0 40
75 76 50 53 35 3 1 0 1 5 66 64 65 99 60 26 5 5 5 4 5 5 3 0 0 0 0 0 0 4 0 0 0 0 0 5 5 5 7 51 54 51 15
47 18 1 2 30 37 84 69 89 54 5 5 18 50 64 6 5 0 3 5 5 5 5 3 5 40 65 83 59 22 5 44 56 0 0 5 5 5 92 94 79 87 97
1 5 7 7 7 40 28 100 32 6 5 91 92 37 5 5 12 52 5 5 5 5 5 5 5 7 15 5 4 0 1 0 0 0 4 5 5 5 58 94 10 93 63
6 22 91 6 64 84 100 74 68 71 18 50 85 92 73 41 100 100 88 81 5 5 34 94 43 88 100 49 5 1 0 0 0 3 0 2 5 5 5 6 40 41 54
98 100 62 44 100 88 99 100 100 91 63 62 47 88 100 100 94 55 6 6 26 25 100 100 100 98 100 100 7 5 5 19 0 0 0 5 5 4 5 4 4 5 5
100 100 100 100 100 100 100 96 100 100 100 93 85 100 100 100 100 98 100 100 100 100 100 100 100 100 100 100 100 68 46 1 0 0 3 5 2 5 5 5 10 10 95
100 100 100 100 100 100 100 97 100 95 100 80 98 59 72 100 100 100 100 100 100 100 100 100 100 100 100 100 98 7 0 0 0 3 4 5 5 54 99 95 100 100 100
100 100 100 100 100 100 100 100 95 99 98 92 80 100 100 100 100 100 100 100 100 100 90 87 100 100 97 97 1 0 0 0 0 0 5 5 5 46 95 92 97 99 100
87 42 61 100 100 100 100 98 100 100 100 100 92 100 87 79 88 100 100 100 100 85 89 98 100 100 18 0 0 0 0 0 1 0 5 5 5 24 5 5 5 5 23
74 58 100 100 100 97 98 100 100 100 100 33 15 83 100 100 100 100 83 99 100 100 100 100 33 5 0 0 0 4 0 0 0 0 5 4 1 5 5 5 5 5 5
92 98 100 100 100 100 88 100 94 80 28 79 90 65 96 100 100 100 100 100 100 100 87 43 3 0 5 0 0 1 5 0 2 2 0 0 0 0 5 5 5 5 5
100 100 100 100 100 100 100 97 64 90 82 45 68 100 100 100 100 100 98 23 3 2 1 5 5 3 5 2 5 5 5 5 0 0 0 0 4 3 5 5 5 5 5
89 100 100 100 100 100 95 72 100 78 15 45 99 100 100 83 9 5 5 0 0 5 5 5 5 4 5 5 11 5 5 5 5 2 4 4 5 5 5 5 5 5 5
100 100 100 100 100 100 100 90 86 22 64 63 45 89 82 65 5 5 5 1 5 5 5 45 5 5 5 5 5 14 22 98 94 7 5 34 5 5 5 5 5 5 5
100 100 100 100 100 100 100 98 19 5 5 77 97 87 74 5 75 99 15 5 5 5 5 5 5 5 5 5 31 88 97 100 100 23 16 56 5 5 5 5 5 5 5
100 100 100 100 100 100 99 21 72 58 15 69 77 70 93 64 39 50 5 5 5 5 5 5 3 5 5 5 10 72 96 73 26 5 5 92 5 5 5 5 5 5 5
100 100 100 100 100 72 35 100 53 5 85 27 89 99 82 30 5 5 5 5 5 5 5 5 5 5 5 5 5 5 5 96 93 53 5 98 10 5 5 5 5 5 5
100 100 100 87 66 100 100 35 4 5 5 59 99 89 99 48 5 5 5 5 5 5 5 5 5 5 5 5 5 5 5 100 100 75 81 21 15 92 71 5 10 32 5

GFSMA_prec_cloud_042.txt.gz
Cloud_Cover
100 100 100 100 100 100 100 100 52 7 100 93 87 100 99 43 5 21 9 44 38 14 5 5 3 18 29 9 0 1 19 68 70 10 15 0 0 0 0 0 0 0 0
95 100 93 90 100 100 48 97 100 87 77 32 11 8 4 91 94 60 5 5 5 5 1 1 0 7 16 0 2 45 100 100 100 65 13 15 5 3 2 0 0 0 0
100 100 100 100 100 100 96 57 54 69 24 22 41 7 97 59 54 14 30 28 5 0 0 0 0 1 2 13 16 0 2 4 5 5 48 80 15 11 4 1 2 1 2
100 100 100 100 100 100 64 97 69 88 17 75 91 100 86 82 43 7 4 1 0 0 0 0 0 4 4 5 0 0 0 0 1 6 6 5 92 26 5 5 0 1 4
100 18 85 100 100 100 100 100 100 100 100 100 30 32 18 5 3 4 0 0 0 0 0 0 0 0 0 0 0 0 0 4 5 5 5 62 23 5 5 5 3 1 0
100 100 100 100 100 100 100 100 100 77 95 68 31 4 1 0 0 0 0 1 4 5 5 0 0 0 0 0 0 0 0 5 5 5 5 5 5 5 5 5 5 2 1
100 100 100 100 100 100 100 60 16 96 35 3 0 0 0 0 0 0 5 5 5 0 0 0 0 0 0 0 0 0 0 0 0 0 4 5 5 5 5 5 5 5 5
100 100 99 100 68 17 15 54 54 2 0 0 1 4 0 0 3 10 3 0 0 0 0 0 0 0 0 0 0 0 0 0 0 0 0 4 5 5 5 5 5 5 5
96 76 67 6 31 86 29 1 0 0 4 5 17 99 5 2 5 18 98 98 69 59 46 5 5 5 5 5 5 44 18 5 5 5 2 1 5 5 5 9 67 31 5
95 26 11 46 8 1 0 0 4 5 70 99 40 6 5 58 5 4 3 5 17 29 10 40 5 13 5 6 91 98 100 88 12 16 5 5 5 5 5 5 51 93 82
68 7 4 0 0 5 4 14 91 86 99 11 14 76 8 20 87 5 5 5 5 5 5 55 99 84 99 100 100 100 100 100 99 100 100 96 46 5 5 10 50 57 21
1 5 5 5 5 10 79 67 98 100 100 18 6 31 5 5 5 5 6 5 4 5 53 100 100 100 100 100 100 100 100 14 14 42 6 5 5 18 5 32 20 46 55
22 10 19 62 60 63 69 100 100 100 100 12 15 5 5 5 5 5 5 5 13 14 10 94 74 100 100 100 100 97 100 100 95 100 69 18 76 5 5 5 5 5 5
66 94 98 100 100 99 100 96 100 98 19 95 72 78 5 14 42 5 5 38 96 76 98 98 88 100 100 100 100 100 97 88 100 100 92 10 5 5 5 10 23 58 23
94 100 100 100 99 97 100 100 100 100 99 69 90 92 74 5 5 5 8 56 100 99 8 91 100 100 100 100 100 100 100 100 59 5 5 5 5 5 73 98 100 100 100
100 100 100 74 96 92 99 100 99 100 100 100 73 26 5 5 5 5 6 19 88 100 57 100 97 100 99 85 44 0 0 0 0 0 5 5 5 5 47 88 91 76 99
100 98 78 100 100 100 97 100 90 100 100 67 5 5 26 8 5 5 4 4 5 48 32 0 0 0 0 0 0 0 0 0 0 0 5 5 5 5 5 5 5 5 7
100 100 100 100 100 100 98 100 100 94 85 38 79 63 5 5 22 5 5 3 0 5 5 0 0 0 0 0 0 0 0 0 0 0 5 5 5 5 5 5 5 5 5
100 100 95 100 96 94 100 100 96 98 89 86 100 27 78 98 78 5 5 5 5 5 0 3 0 0 0 0 0 0 4 4 2 4 2 5 5 5 5 6 26 21 5
96 100 93 100 100 100 100 100 100 100 100 100 100 100 100 89 5 5 5 5 5 5 0 1 5 4 0 0 3 5 5 1 4 0 0 5 4 4 5 5 5 5 5
97 100 91 100 100 97 100 94 100 100 100 100 100 100 82 65 5 89 90 39 71 5 4 5 5 4 0 2 1 5 5 5 5 4 5 5 5 4 5 5 5 5 5
100 100 100 100 100 100 100 100 100 100 100 100 96 68 100 100 99 99 14 73 86 46 5 5 5 5 4 2 5 5 41 100 97 37 21 5 5 5 5 5 5 5 5
100 100 100 100 100 100 100 100 100 100 100 84 80 91 98 96 93 100 69 84 42 5 5 5 5 4 5 5 5 54 97 99 95 13 35 38 5 5 5 5 5 5 7
100 100 100 100 100 100 100 100 100 100 66 94 52 91 98 92 76 100 80 5 5 5 5 5 5 5 5 5 5 5 10 35 34 12 5 93 5 5 5 2 4 5 5
100 100 100 100 100 100 100 100 100 32 47 83 57 75 96 87 96 100 65 5 5 5 5 5 2 5 5 30 9 5 5 56 91 37 1 100 19 5 5 3 5 5 5
100 100 100 100 100 100 100 100 44 40 41 5 5 5 89 98 98 100 84 29 5 5 5 5 5 5 5 5 5 5 5 75 100 41 4 12 26 96 12 5 5 5 5

GFSMA_prec_cloud_045.txt.gz
Cloud_Cover
100 100 100 100 100 100 100 99 99 100 99 97 89 84 84 2 5 5 5 7 5 2 3 2 2 11 19 4 0 0 6 51 4 3 11 1 4 1 1 2 0 0 0
100 100 100 100 100 100 100 95 100 100 96 25 13 4 25 81 22 17 9 5 5 5 2 6 6 0 1 0 15 0 2 0 0 0 0 5 5 5 5 3 2 0 2
100 100 100 100 100 100 100 100 98 99 66 5 44 43 37 52 23 5 5 5 3 0 0 0 0 0 3 4 2 0 0 0 0 4 5 5 5 5 5 2 1 0 0
52 76 100 100 100 91 90 84 63 20 13 14 59 18 37 6 5 6 5 3 0 0 0 0 0 0 0 0 0 0 0 1 1 5 5 7 100 18 4 4 4 2 0
100 100 100 100 100 94 100 69 6 32 98 56 6 52 15 5 3 0 0 0 0 0 0 0 0 0 0 0 0 0 0 5 5 5 5 6 6 5 5 5 5 5 3
100 100 100 86 90 88 98 43 100 64 40 7 23 5 4 0 0 0 0 0 0 0 0 0 0 0 0 0 0 0 0 2 5 5 5 5 5 5 5 5 5 5 5
100 83 14 100 100 97 100 86 5 5 36 19 5 0 5 0 0 0 0 0 0 0 0 0 0 0 0 0 0 0 0 0 3 3 4 5 5 5 5 5 5 5 5
99 100 100 52 31 34 8 13 11 56 5 3 2 4 5 0 0 0 0 0 0 1 3 0 0 0 0 0 0 0 2 2 1 1 0 5 5 5 5 5 5 5 14
100 98 100 40 5 5 5 5 13 4 5 5 5 2 7 5 3 0 0 0 0 0 0 0 0 0 1 5 5 5 5 5 5 5 37 37 22 8 5 5 8 82 18
100 100 100 48 5 5 5 5 0 5 5 43 91 51 15 8 4 2 0 0 0 0 0 0 2 2 4 5 5 79 80 5 5 5 5 6 14 9 72 94 40 5 93
100 100 100 50 5 5 5 5 6 8 44 100 22 53 9 5 5 5 0 0 1 5 0 5 5 5 0 5 12 100 98 99 99 96 100 100 100 100 100 92 30 5 89
34 5 55 28 19 47 16 75 58 90 100 94 100 95 5 5 5 5 4 4 5 5 5 5 5 5 5 5 7 56 100 94 96 100 100 100 100 100 100 100 100 79 70
84 58 78 36 55 98 95 100 100 100 100 56 40 59 7 17 49 5 5 2 4 5 5 5 5 5 5 5 8 68 69 100 100 100 100 100 100 93 21 46 50 91 100
98 97 83 100 100 100 100 100 100 94 100 64 95 61 73 26 14 5 5 5 4 4 5 70 52 5 3 0 0 0 0 0 0 0 2 20 10 14 9 5 15 5 67
99 100 66 99 100 100 98 100 100 100 100 99 34 53 40 29 28 47 79 90 7 5 4 17 27 10 1 0 0 0 0 0 0 0 0 2 5 5 5 8 75 94 100
97 100 100 100 100 100 100 100 100 100 100 86 99 98 100 66 98 100 100 38 10 27 5 5 5 5 2 0 0 0 0 0 0 0 2 5 5 5 5 30 49 29 38
100 100 100 100 100 100 100 100 100 100 100 96 58 99 100 93 20 5 5 5 5 47 58 5 5 5 0 0 0 0 0 0 0 0 5 4 5 5 5 5 5 5 5
100 100 100 100 100 100 100 100 100 100 100 99 100 84 95 65 10 5 13 17 5 5 5 5 5 5 5 4 0 0 0 0 0 0 0 5 6 12 5 5 5 6 50
100 91 100 100 100 100 100 100 100 100 99 100 90 87 61 41 29 62 38 6 5 5 5 5 5 5 5 5 2 0 0 2 0 0 0 4 5 5 5 5 5 5 5
100 100 100 100 100 93 100 100 100 100 100 100 96 100 98 76 97 100 69 5 5 5 13 8 5 5 5 5 5 0 1 0 0 1 4 5 2 5 5 5 5 5 5
75 100 100 100 100 100 100 100 100 100 100 100 100 99 97 100 100 100 14 50 58 5 39 85 66 5 5 5 0 0 5 1 5 5 5 97 5 16 5 5 4 5 5
92 99 100 100 100 100 100 100 100 88 100 100 100 100 100 100 100 94 64 74 90 56 56 100 89 14 5 5 0 5 5 5 5 5 51 65 5 5 5 5 0 5 5
100 100 100 100 100 100 100 100 100 100 100 100 100 100 100 98 43 82 54 87 94 99 8 7 71 33 89 6 2 5 38 61 66 5 13 62 5 54 51 5 0 4 5
100 100 99 100 100 100 92 92 91 89 73 72 91 100 54 5 25 89 79 83 100 78 54 5 5 5 37 1 6 83 100 95 86 58 38 87 20 92 82 5 0 3 5
100 74 89 91 57 59 7 28 60 65 37 98 74 70 4 4 5 16 74 98 61 97 8 5 5 5 5 4 22 83 100 98 88 70 23 97 96 90 68 23 13 5 5
54 82 60 66 32 11 9 40 52 29 92 78 39 2 0 0 5 52 38 65 80 9 84 5 5 5 5 5 5 5 83 100 100 94 35 80 99 98 93 10 100 98 49

GFSMA_prec_cloud_048.txt.gz
Cloud_Cover
100 100 100 100 100 99 65 58 97 100 100 100 100 100 76 19 5 6 2 0 5 2 36 19 25 3 0 0 0 0 3 2 0 0 2 2 13 16 4 4 0 0 0
100 100 100 100 84 58 100 85 100 68 85 100 88 26 5 1 1 5 5 5 2 0 0 6 11 1 1 0 4 0 0 0 0 0 3 4 3 4 6 4 2 1 1
100 100 100 95 30 25 40 98 100 100 100 82 42 66 5 7 6 7 2 0 3 3 0 0 0 0 0 3 0 0 0 0 0 0 3 9 5 5 5 3 5 4 5
100 100 100 100 88 100 100 100 100 100 100 19 6 44 81 67 5 4 2 5 0 1 1 0 0 0 0 0 0 0 0 0 4 5 5 5 13 94 30 5 5 5 5
100 100 64 60 81 100 100 100 100 92 63 40 6 5 5 5 3 4 1 0 0 0 0 0 0 0 0 0 0 0 0 5 5 5 5 5 5 5 5 5 5 5 5
100 100 82 99 100 100 100 15 25 10 5 5 5 5 2 5 3 0 0 0 0 0 0 0 0 0 0 0 0 0 0 5 5 5 5 5 5 5 5 5 5 5 5
78 92 91 100 100 100 97 18 5 1 5 5 5 5 4 4 0 0 0 0 0 0 0 0 0 0 0 0 0 0 0 3 5 5 5 5 5 5 5 5 5 20 71
100 100 100 100 98 70 23 15 4 21 5 2 5 5 5 5 1 4 1 0 3 2 0 2 5 0 4 0 2 0 4 3 5 5 5 5 5 5 5 5 6 60 17
100 86 100 97 100 88 6 20 5 3 4 4 5 7 17 5 5 5 5 5 5 5 5 5 5 3 5 4 5 5 5 5 5 5 5 5 38 66 46 5 5 11 5
90 100 99 100 100 100 45 5 2 3 5 5 5 5 6 88 67 59 4 0 2 5 10 5 4 4 5 5 5 5 5 5 5 5 5 54 5 5 5 58 100 99 74
100 100 100 97 99 100 76 6 6 5 14 74 90 100 92 82 86 97 81 95 14 20 5 1 1 5 5 5 5 56 5 5 5 5 5 5 5 9 99 98 100 100 100
100 94 69 82 98 100 99 100 6 45 88 100 72 92 20 32 64 26 5 5 5 5 5 5 5 5 5 5 5 4 5 5 5 5 5 5 5 5 5 79 100 100 100
100 100 100 100 100 100 88 67 99 100 81 77 86 84 100 100 91 100 7 5 5 5 5 18 5 34 3 54 34 3 0 0 0 0 0 0 0 5 5 5 5 39 100
100 100 100 100 100 95 100 75 100 100 100 100 97 100 100 50 16 5 69 40 5 5 5 5 5 49 89 7 26 0 0 0 0 0 0 0 0 0 5 5 5 5 50
100 100 100 98 100 100 88 100 100 100 100 100 100 100 100 100 77 78 64 70 73 62 16 5 5 28 42 98 90 5 4 0 0 0 0 0 1 3 5 5 21 74 95
100 100 100 100 100 100 100 100 100 100 100 100 100 100 100 100 100 96 82 100 88 61 22 28 25 69 97 59 64 5 3 0 0 0 0 0 5 5 5 5 9 25 25
100 100 100 100 100 98 100 100 100 100 100 100 100 96 100 96 100 100 100 100 100 100 96 83 72 98 100 84 66 5 5 0 0 0 0 0 4 5 5 5 5 5 31
100 100 100 100 100 96 100 100 100 100 100 100 100 100 100 100 99 100 100 100 100 100 100 80 94 89 100 100 99 22 5 0 0 0 0 0 2 5 5 5 5 33 11
100 100 100 100 100 100 100 100 100 100 100 100 100 100 100 100 100 100 100 100 100 100 100 100 100 100 100 100 100 88 5 0 0 0 0 0 0 2 5 5 5 5 5
100 100 100 100 100 100 100 100 100 100 100 100 100 100 100 100 100 100 100 100 100 100 100 100 100 100 100 100 100 82 5 0 0 0 0 0 4 3 4 12 5 5 5
93 100 100 100 100 100 100 100 100 100 100 100 100 100 93 100 100 100 100 75 100 100 100 100 100 100 100 100 100 100 17 1 0 4 5 5 5 6 14 97 85 61 11
74 35 45 81 100 100 100 100 100 100 100 100 99 74 65 91 100 100 74 50 37 97 99 100 100 100 100 100 100 100 14 4 4 5 5 5 5 5 45 87 98 5 2
89 100 100 96 100 100 100 100 98 59 82 98 97 100 100 100 98 86 44 6 14 91 71 64 100 100 100 100 100 98 5 5 5 14 5 5 29 36 80 100 100 5 4
100 100 100 100 100 100 88 12 14 58 75 98 74 81 97 100 77 20 5 23 52 93 82 72 70 62 100 100 100 54 5 59 66 49 67 10 36 80 100 100 78 5 5
100 100 100 100 60 51 5 5 5 12 34 67 89 84 75 14 5 10 19 10 6 95 71 96 19 100 5 5 5 8 16 89 98 55 87 66 72 74 99 100 100 100 93
57 91 49 48 5 5 5 6 11 82 94 10 7 30 16 5 10 11 5 5 50 22 100 100 65 7 46 44 35 33 53 100 100 98 84 38 70 80 89 99 100 100 100

GFSMA_prec_cloud_051.txt.gz
Cloud_Cover
100 100 100 100 100 100 100 100 90 92 37 16 5 5 46 87 100 100 100 22 3 1 62 48 26 1 0 0 0 0 5 9 4 5 3 2 13 4 2 8 3 0 0
100 100 100 100 100 100 100 65 86 100 63 41 90 100 100 100 100 53 50 4 0 0 19 34 8 1 0 0 0 0 0 0 0 0 2 7 14 7 5 6 20 4 4
100 100 100 100 100 100 99 75 100 100 100 100 83 93 100 87 49 26 0 0 0 0 0 0 0 0 0 0 0 0 0 0 0 5 5 5 5 35 98 40 17 5 6
100 100 100 100 100 100 100 91 50 91 65 76 81 100 99 20 5 0 0 0 0 2 0 0 0 0 0 0 0 0 0 0 0 5 5 5 5 6 5 5 5 5 5
100 100 100 100 100 100 98 86 98 91 24 72 100 76 5 15 5 2 0 0 0 0 0 0 0 0 0 0 0 0 0 0 2 5 5 5 5 5 5 15 32 9 5
100 100 100 100 91 100 100 89 68 94 96 100 97 10 19 5 5 2 0 0 0 0 0 0 0 0 0 0 0 0 0 0 5 5 5 5 5 5 5 6 20 6 5
100 100 100 100 100 90 98 55 100 100 100 100 95 9 24 15 0 4 5 0 0 0 0 0 0 0 4 4 1 3 5 5 5 5 5 5 5 5 5 5 19 93 100
100 100 100 82 97 99 40 80 97 98 86 78 35 4 0 17 77 5 5 5 3 4 5 1 2 5 6 5 5 1 4 0 0 0 5 5 5 9 80 85 90 82 89
100 100 100 100 100 100 100 33 83 56 100 11 5 5 5 28 76 98 6 4 4 5 5 5 12 56 14 5 5 14 5 0 0 0 0 5 6 13 72 89 94 99 100
100 100 97 100 99 100 100 100 100 55 27 34 98 39 56 100 100 57 7 5 4 4 20 22 12 4 5 58 13 9 4 0 0 0 5 5 5 5 11 48 79 91 94
95 98 97 100 100 100 100 100 100 100 100 100 53 66 100 68 44 22 100 88 6 57 84 28 5 5 5 43 32 27 5 5 0 5 5 2 5 5 2 5 5 5 5
97 100 99 100 100 100 100 100 100 100 100 100 84 100 100 100 100 98 79 78 77 93 66 5 5 45 46 23 16 8 3 3 0 0 0 0 0 0 0 5 5 5 5
99 100 100 100 100 100 100 100 100 98 97 100 100 100 100 100 96 100 100 100 98 100 97 72 28 68 38 26 40 13 5 5 0 0 0 0 0 0 0 1 5 5 5
100 100 100 100 100 100 100 100 100 100 100 100 100 99 100 100 100 100 100 100 99 100 100 100 100 74 65 67 98 5 5 5 3 0 0 0 0 0 0 5 5 5 5
100 100 100 100 100 100 100 100 100 100 100 100 98 100 100 99 100 100 100 100 100 90 100 100 100 100 83 90 55 7 5 5 5 0 0 0 0 0 5 5 5 5 5
100 100 100 100 100 100 100 100 100 100 100 100 100 100 100 99 100 97 98 100 100 100 90 100 100 100 100 100 63 5 5 5 6 5 0 0 0 0 5 5 5 5 5
100 100 100 100 100 100 100 100 100 100 100 100 100 100 100 100 100 100 93 88 100 100 100 100 100 100 100 50 45 28 93 21 57 14 0 0 0 0 0 5 5 5 5
100 100 100 100 100 100 100 100 100 100 100 100 100 100 100 100 100 100 100 100 100 100 98 96 100 100 97 77 9 6 10 14 65 88 1 0 0 0 0 0 4 5 5
100 100 100 100 100 100 100 100 100 100 100 100 100 100 100 96 100 98 100 100 100 96 100 100 66 89 22 53 61 12 78 71 6 16 0 0 0 0 0 0 0 0 5
100 100 100 100 100 100 100 100 100 100 100 100 100 100 100 100 94 92 100 100 100 100 99 49 61 27 16 59 78 73 39 96 100 37 5 4 3 3 5 5 5 2 5
100 100 100 100 100 100 89 100 100 100 100 100 100 100 100 76 97 100 100 100 100 100 80 32 10 5 70 90 96 100 64 46 46 70 5 11 22 21 5 5 52 97 60
85 74 50 55 100 100 42 66 100 100 100 100 89 84 100 99 100 100 100 100 100 97 99 63 5 5 7 92 36 76 100 82 96 24 96 5 74 14 70 10 99 5 5
59 86 100 93 88 100 100 100 98 91 98 100 72 45 79 94 99 100 93 34 55 11 5 5 5 5 15 66 21 100 100 99 97 65 92 7 48 19 71 68 92 70 6
92 100 100 100 100 96 96 42 92 88 60 20 22 60 52 76 66 30 7 8 5 5 5 24 5 4 15 17 74 100 98 53 5 5 91 69 74 25 35 12 5 17 13
95 78 95 100 100 66 94 92 21 10 7 16 73 97 46 5 37 36 23 5 5 5 5 84 35 78 9 64 99 100 73 100 5 31 97 94 77 13 65 5 98 96 6
100 95 22 85 75 62 9 5 8 77 23 7 68 74 61 33 28 6 75 30 5 5 5 5 94 10 10 23 64 100 56 96 81 18 100 100 98 92 14 12 82 41 49

GFSMA_prec_cloud_054.txt.gz
Cloud_Cover
100 100 100 100 100 100 100 100 100 100 100 100 100 100 98 40 92 68 6 5 6 75 43 27 43 10 0 0 0 0 0 0 0 0 3 4 6 5 10 3 14 4 2
100 100 100 100 100 100 100 100 100 100 100 100 100 98 48 16 5 7 46 61 5 0 17 33 19 24 17 0 0 0 0 0 0 0 0 0 4 5 4 38 13 12 5
100 100 100 100 100 100 100 100 100 100 100 100 100 16 8 68 87 11 7 5 5 5 5 4 4 0 0 0 0 0 0 0 0 0 0 4 5 4 5 5 5 5 5
100 100 100 100 100 100 100 100 100 100 93 100 90 42 26 39 5 19 72 90 55 9 5 0 0 0 0 0 0 0 0 0 0 0 4 5 5 6 5 5 5 5 5
100 100 100 100 100 100 100 100 100 100 100 100 100 90 80 56 65 61 5 5 8 4 5 0 0 0 0 0 0 0 0 0 0 0 5 5 4 5 5 5 5 5 5
100 100 100 100 100 100 100 100 100 100 100 100 100 91 89 43 59 5 14 6 5 5 3 0 0 0 0 0 0 0 0 0 0 4 5 5 5 5 5 5 5 5 5
100 100 100 100 100 100 94 100 90 100 27 56 29 71 100 100 5 5 5 5 5 3 0 0 0 0 0 0 0 2 0 0 0 3 5 5 5 5 6 77 83 100 89
100 100 100 100 100 100 100 100 100 99 75 43 68 100 56 16 99 45 24 54 5 3 0 0 0 0 0 0 5 3 4 0 0 0 0 4 5 5 14 39 42 95 100
100 100 100 100 100 100 100 100 80 100 97 87 89 10 5 14 28 30 98 22 5 4 5 5 0 4 5 5 5 3 4 5 5 1 0 3 5 5 5 4 14 7 28
100 100 100 100 100 100 96 100 100 100 100 100 100 100 98 63 39 74 62 5 44 5 5 4 5 5 31 5 5 5 5 5 5 0 3 1 5 5 5 5 5 5 5
100 100 100 98 46 82 61 100 100 100 100 100 100 100 100 100 100 100 95 97 53 22 86 6 82 16 5 8 5 5 5 97 5 5 5 0 0 5 5 5 5 5 5
100 98 99 97 73 100 100 100 100 100 100 100 100 100 100 100 100 99 84 29 100 99 100 91 50 12 5 86 62 5 5 28 100 7 3 1 2 5 4 5 5 5 5
94 16 63 100 100 100 100 100 100 100 100 100 100 100 100 100 100 100 100 100 97 100 100 100 68 18 5 5 5 5 5 99 59 5 5 5 5 2 2 0 5 5 5
78 89 100 100 100 100 100 100 100 100 100 100 100 100 100 100 100 100 100 88 100 100 94 100 100 63 84 73 5 5 5 5 5 5 5 5 5 0 0 0 5 5 5
100 100 100 100 100 100 100 100 100 100 100 100 100 100 100 100 100 100 100 100 100 28 60 70 92 99 93 60 5 5 5 5 5 5 4 2 0 0 0 0 0 3 5
85 100 100 100 100 100 100 100 100 100 100 100 100 100 100 100 100 100 100 90 100 100 18 5 21 70 53 5 15 12 7 5 5 5 0 0 0 0 0 0 0 0 5
64 72 100 100 100 100 100 100 100 99 100 100 100 100 100 100 100 98 100 100 100 96 72 5 5 17 48 99 100 100 88 5 0 0 0 0 0 0 0 0 0 0 0
100 100 100 100 100 100 100 100 100 100 100 100 100 100 100 100 100 99 74 86 82 94 100 8 5 76 100 86 44 21 5 4 2 0 0 0 0 0 0 0 0 0 0
100 100 100 100 100 100 100 100 100 100 100 100 100 100 100 100 100 100 100 93 97 100 98 76 47 35 5 5 5 56 1 5 5 5 52 5 4 3 0 1 4 3 5
100 100 100 100 100 100 100 100 100 100 100 100 100 100 100 100 100 100 99 90 99 94 100 93 19 6 24 44 97 63 5 5 34 20 76 5 5 0 4 15 5 3 15
100 100 100 100 100 100 100 62 84 100 100 100 100 100 100 100 100 94 100 78 75 62 64 6 14 71 80 7 92 100 100 61 65 30 13 5 3 0 5 4 4 13 47
90 45 3 5 5 6 24 95 100 100 100 100 100 54 55 98 96 48 53 70 67 5 5 5 5 5 5 38 50 100 16 82 54 31 100 53 5 0 1 5 18 100 94
34 79 81 39 74 100 100 100 99 82 63 5 5 5 5 5 5 5 5 5 9 8 35 14 74 5 5 2 7 94 46 12 55 23 64 5 5 5 5 43 54 5 5
22 60 100 100 94 47 8 20 57 5 8 73 32 6 5 5 5 13 49 28 29 22 29 26 29 26 5 5 8 19 79 11 5 81 100 43 6 5 5 66 100 7 4
62 100 76 26 28 80 78 7 6 21 6 23 32 100 22 5 7 16 20 5 5 5 5 5 12 41 36 46 47 99 100 96 9 76 100 7 5 5 6 98 88 5 5
71 99 11 11 37 5 76 92 13 37 29 5 5 5 18 77 88 69 5 10 78 80 97 51 30 97 94 16 52 95 97 100 68 84 99 50 5 38 51 100 58 3 5

GFSMA_prec_cloud_057.txt.gz
Cloud_Cover
100 100 100 100 100 100 100 89 100 100 100 100 86 100 50 91 100 97 72 6 5 5 12 28 20 5 5 0 2 2 0 0 0 0 0 0 1 12 1 21 13 4 4
100 100 100 100 100 100 100 100 100 100 100 100 100 100 100 100 100 81 5 5 93 61 7 47 29 17 7 0 0 0 0 0 0 0 0 0 0 1 0 0 5 5 5
100 100 100 100 100 100 100 100 100 100 100 100 100 100 97 93 100 100 100 100 99 58 99 91 6 6 4 1 2 0 0 0 0 0 0 0 0 4 0 0 1 2 5
100 100 100 100 100 100 100 100 100 100 100 93 100 100 99 90 100 100 100 92 74 14 34 5 13 5 6 4 0 0 0 0 0 0 0 0 2 2 5 5 5 5 5
100 100 100 100 100 100 100 100 100 100 100 100 100 100 100 100 100 35 97 42 30 86 7 8 5 10 5 0 0 0 0 0 0 0 0 2 4 5 5 5 5 5 5
100 100 100 100 100 100 100 100 100 100 100 100 100 100 100 100 100 99 87 100 80 46 98 68 17 3 1 0 0 0 0 0 0 0 0 1 5 6 5 5 2 6 88
100 100 100 100 100 100 100 100 100 100 100 100 100 100 100 100 100 100 100 90 67 15 91 99 5 0 3 5 4 4 0 5 5 5 5 0 5 5 5 5 14 69 32
100 100 100 100 98 100 100 100 100 100 100 100 100 100 100 93 99 84 62 28 80 83 99 5 5 12 7 3 0 3 5 5 92 7 0 0 1 5 5 5 17 12 63
100 100 100 100 100 100 100 100 100 100 100 95 80 82 99 79 71 93 98 52 92 100 92 54 93 100 12 5 4 0 4 1 1 5 5 5 2 5 5 5 5 5 5
100 100 100 100 100 100 100 100 100 100 100 92 51 99 71 96 100 100 99 100 100 98 100 100 24 5 5 3 0 0 0 0 5 5 1 0 0 1 5 5 5 5 5
100 100 100 100 100 100 100 100 100 100 100 100 100 100 100 85 100 100 100 100 100 100 99 35 16 5 5 5 5 5 0 1 4 3 0 0 0 0 4 5 5 5 5
100 100 100 100 100 100 100 100 100 99 100 100 93 100 100 100 100 100 100 100 100 100 65 52 25 5 19 100 99 5 5 0 0 0 1 3 3 0 0 2 5 5 5
100 93 99 100 100 100 100 99 100 100 100 100 100 100 100 100 100 100 100 100 100 100 100 97 85 52 93 94 5 5 5 3 0 2 5 5 5 0 0 1 0 1 5
100 92 100 96 100 100 100 100 100 100 100 100 100 100 100 100 100 100 100 100 100 100 100 100 100 99 76 36 5 5 5 5 5 5 5 1 0 2 0 0 0 0 2
100 100 100 100 100 100 100 100 100 100 100 100 100 100 100 100 100 100 100 100 100 100 98 99 87 98 48 6 46 12 36 5 5 5 0 0 5 4 0 0 0 0 0
100 100 100 100 100 100 100 100 100 100 100 100 100 100 100 100 100 100 100 100 100 99 87 33 33 47 69 5 5 5 5 5 5 1 5 5 4 0 0 0 0 0 0
100 100 100 100 100 100 100 100 100 100 100 100 100 100 100 100 100 100 100 77 81 100 88 33 25 8 9 5 84 67 12 3 5 5 5 1 0 0 0 0 0 0 0
100 100 100 100 100 100 77 100 100 100 100 100 100 100 100 100 100 100 96 100 100 100 100 94 6 17 23 82 82 39 5 5 5 5 42 4 5 5 4 0 0 0 0
100 100 100 100 100 100 100 100 100 100 100 100 100 100 100 100 100 100 100 100 100 100 100 100 78 24 5 24 55 66 12 93 100 100 100 5 10 5 5 0 5 1 0
100 99 100 100 100 100 100 100 100 100 100 100 93 100 100 100 100 90 100 100 91 76 90 100 100 95 99 53 91 65 84 44 96 58 100 72 10 47 100 10 73 1 0
100 100 100 100 100 100 100 100 100 99 100 100 100 100 100 94 15 8 69 39 11 25 40 5 5 5 6 5 5 3 5 20 98 100 100 100 93 95 99 72 74 0 0
100 100 100 100 100 100 97 56 32 89 100 100 100 78 5 5 5 6 24 28 24 8 7 6 6 37 5 5 5 5 5 6 95 25 100 100 76 15 60 10 5 4 2
100 91 75 8 0 4 4 22 97 84 84 36 5 5 5 5 5 5 7 5 5 6 12 75 100 97 86 22 35 12 58 99 100 100 100 69 26 5 77 13 5 2 21
3 2 23 35 32 94 73 16 47 5 5 5 33 11 36 42 5 5 5 5 10 100 100 67 65 22 44 39 78 5 27 100 100 100 100 98 38 26 88 5 3 62 34
47 100 95 34 8 8 16 79 13 5 5 5 5 7 5 17 5 5 17 92 100 100 100 100 91 5 15 81 100 89 87 97 16 13 82 99 5 32 68 5 5 78 5
33 5 5 13 97 89 8 5 5 5 5 11 87 92 100 27 21 55 21 62 99 95 77 76 5 5 5 5 5 74 98 100 100 90 100 100 59 86 12 5 38 93 14

GFSMA_prec_cloud_060.txt.gz
Cloud_Cover
100 100 100 100 100 100 100 100 99 97 100 100 100 100 100 80 100 100 100 100 100 100 100 94 100 100 67 5 24 19 11 4 0 5 0 0 0 17 17 8 1 3 5
100 100 100 100 100 100 100 95 87 98 100 100 100 100 89 88 100 91 100 87 100 100 100 100 97 29 5 56 82 31 2 5 5 0 0 0 0 0 0 3 4 3 2
100 98 100 100 89 100 99 99 47 100 100 98 98 100 100 100 98 100 89 100 100 100 99 100 100 98 100 20 8 5 5 5 3 0 0 0 0 0 3 0 0 0 0
100 80 100 100 100 100 100 100 100 100 100 100 100 91 100 100 100 100 100 100 88 100 100 100 100 100 86 6 5 5 5 5 5 0 0 0 0 1 3 6 2 3 4
100 100 100 100 100 100 100 100 100 100 100 100 100 100 100 100 100 100 100 98 100 93 100 100 97 6 18 5 5 5 5 5 5 5 0 0 2 11 15 7 5 2 0
100 100 100 100 100 100 100 100 100 100 100 100 100 100 100 100 100 100 100 100 100 100 100 81 48 54 10 35 5 5 5 71 3 0 0 0 0 1 3 5 5 2 2
100 100 100 100 100 100 85 97 70 100 100 100 100 100 100 100 100 100 100 100 70 68 98 77 45 7 5 32 93 100 100 5 5 0 0 0 0 0 0 4 5 5 0
100 100 100 100 95 100 79 66 83 100 100 100 100 100 100 100 100 100 100 88 79 79 84 86 34 44 98 100 100 100 100 83 12 5 3 0 0 0 0 4 5 5 5
100 100 100 100 100 37 70 99 100 100 100 100 100 100 100 100 100 100 99 82 77 100 80 77 65 100 100 100 100 100 18 5 5 5 5 5 0 0 0 1 5 5 5
100 100 100 100 100 100 100 100 100 100 100 100 100 100 100 100 100 95 100 79 97 100 99 100 100 100 100 96 13 12 15 5 5 5 5 0 0 0 0 0 1 5 5
100 100 100 100 100 100 100 100 100 100 100 100 100 100 100 100 64 96 100 100 100 100 100 100 100 100 34 5 5 5 5 5 5 5 5 0 0 0 0 0 5 5 5
100 100 100 100 100 100 100 100 100 100 100 92 100 100 100 100 100 100 100 100 100 100 100 100 100 100 59 77 94 100 100 86 6 5 4 0 0 0 0 0 5 5 5
100 100 100 100 100 100 100 100 100 100 100 98 100 60 100 100 100 100 100 100 100 100 100 100 100 100 100 100 100 100 100 93 31 5 5 5 4 0 0 0 0 0 0
100 100 100 100 100 100 100 100 100 100 100 100 100 100 100 100 100 100 100 100 100 100 100 100 99 100 100 100 100 100 28 5 23 97 67 5 5 0 0 0 0 0 0
99 100 100 100 100 100 100 100 100 100 100 100 100 100 100 100 100 100 100 100 100 100 100 100 100 56 63 90 47 12 10 5 100 98 92 5 5 3 3 0 0 0 0
100 96 92 100 100 100 100 100 100 100 100 100 100 100 100 100 100 100 100 100 100 100 100 100 100 71 32 77 98 57 5 5 33 100 100 17 3 5 5 17 1 0 0
100 100 98 100 100 100 100 100 100 100 100 100 100 100 100 100 100 100 100 100 100 100 100 100 100 100 42 5 6 24 14 47 76 100 100 10 5 31 32 98 5 0 5
100 100 85 100 100 100 100 100 100 100 100 100 100 100 100 100 100 100 100 100 100 100 100 100 100 100 46 28 97 99 78 77 58 43 83 99 63 100 100 100 100 10 5
100 100 99 100 100 100 100 100 100 100 100 100 100 100 100 100 100 100 100 100 100 100 95 87 73 92 95 39 5 16 13 73 72 65 5 79 100 100 100 100 100 100 74
100 100 100 100 100 100 100 100 100 100 100 100 100 100 100 100 100 100 100 82 100 68 34 30 52 18 7 25 5 5 5 27 5 17 5 5 59 75 100 100 100 100 100
100 100 100 100 100 100 100 100 100 100 100 100 100 100 100 100 100 67 57 52 85 95 97 96 93 84 55 5 5 8 83 87 33 32 5 20 52 44 100 100 100 100 100
100 100 100 100 100 100 100 100 100 100 100 100 100 100 100 86 7 10 5 5 5 17 38 48 80 98 97 9 70 100 100 99 68 5 14 5 100 80 100 100 100 100 48
100 100 100 100 100 100 100 100 88 50 100 100 100 72 34 18 5 5 5 5 19 72 63 70 84 69 55 82 54 98 100 100 55 48 61 18 74 100 100 100 100 92 5
100 100 100 100 100 82 23 36 50 100 55 18 5 5 5 5 5 5 22 5 100 100 87 100 79 100 94 51 94 99 10 58 84 100 82 100 53 98 88 77 60 99 78
93 40 14 1 2 57 45 98 9 5 5 5 65 32 5 5 5 38 5 52 100 100 100 100 100 100 76 100 100 66 100 100 77 6 64 55 75 98 98 68 69 98 6
5 19 23 19 86 100 27 5 5 8 5 33 5 5 5 5 5 25 66 70 89 97 100 100 100 100 100 100 100 83 77 91 90 90 5 100 79 100 100 95 100 100 47

GFSMA_prec_cloud_063.txt.gz
Cloud_Cover
100 100 100 100 100 100 56 61 100 100 100 76 89 100 100 78 90 92 100 93 100 100 100 100 100 98 7 5 16 82 6 85 5 9 5 5 0 1 1 1 2 0 2
100 100 100 100 100 100 99 84 85 100 100 100 55 100 100 100 100 100 100 100 100 100 100 99 55 65 58 100 24 47 100 80 72 5 5 4 0 0 0 0 0 1 5
97 100 100 100 97 100 100 60 79 98 93 100 90 98 76 90 100 100 100 100 100 100 100 100 100 100 100 100 99 80 22 26 5 5 5 0 0 0 0 0 1 5 5
100 100 100 100 100 100 100 99 60 91 100 100 100 91 94 100 100 100 100 100 100 100 100 100 100 100 100 100 100 91 5 5 26 5 5 5 5 0 3 0 1 3 0
100 100 100 100 100 100 100 100 100 100 100 100 100 100 100 100 100 100 100 100 100 100 100 100 100 100 100 100 100 15 74 5 2 4 5 13 5 5 5 5 3 1 0
100 100 100 100 100 100 100 100 100 100 100 100 100 100 100 100 100 100 100 100 100 100 100 100 100 100 97 11 5 5 5 5 5 65 79 13 5 5 5 5 5 4 4
100 100 100 100 100 100 100 100 100 100 100 100 100 100 100 100 100 100 100 100 100 100 100 100 100 100 71 5 5 5 5 12 100 100 100 100 13 1 0 0 0 2 5
100 100 100 100 100 100 100 100 100 100 100 100 100 100 100 100 100 100 100 100 100 100 100 100 100 54 34 6 30 93 100 100 100 88 14 5 0 0 0 0 0 0 5
100 100 100 100 100 100 100 100 100 100 100 100 100 100 100 100 100 100 100 100 100 100 100 100 95 99 95 100 100 100 100 100 99 42 5 5 0 0 0 0 0 0 5
100 100 100 100 100 100 100 100 100 100 100 100 100 100 100 100 100 100 100 100 100 100 100 100 100 100 100 100 100 100 100 72 5 5 5 5 4 0 0 0 0 0 5
100 100 100 100 100 100 100 100 100 100 100 100 100 100 100 100 100 100 100 100 100 100 100 100 100 100 100 100 100 100 64 60 40 10 5 5 5 5 0 0 0 0 4
100 100 100 100 100 100 100 100 100 100 100 100 100 100 100 100 100 100 100 86 100 100 100 100 100 98 100 91 100 100 100 100 100 96 94 40 5 5 5 0 0 0 5
83 100 100 100 100 100 100 100 100 100 97 100 93 90 98 94 94 75 100 99 100 100 100 100 99 100 90 96 100 100 100 100 100 100 100 100 35 5 5 5 0 0 4
100 100 100 100 100 100 100 100 99 100 100 100 81 70 86 95 100 100 100 100 100 100 100 100 60 89 99 100 99 100 100 100 100 100 100 96 76 77 82 32 4 0 0
85 99 68 96 99 100 100 100 100 100 100 100 100 100 100 100 100 100 100 100 100 100 100 100 100 97 94 58 60 98 100 84 98 100 100 100 100 100 100 99 84 5 5
100 99 85 58 100 88 100 99 100 100 100 100 100 100 100 100 100 100 100 100 100 100 100 100 56 100 100 94 74 53 54 86 99 99 100 100 100 100 100 100 100 94 99
99 100 100 100 100 93 100 100 100 100 100 100 100 100 100 100 100 100 100 100 100 100 100 100 100 100 96 100 100 27 18 73 5 8 98 100 100 100 100 100 100 100 100
99 100 100 100 100 100 100 100 100 100 100 100 100 100 100 100 100 100 100 100 100 100 100 100 100 100 100 92 47 33 100 35 99 100 100 100 100 100 100 99 98 100 100
100 100 100 100 100 100 100 100 100 100 100 100 100 100 100 100 100 100 100 100 100 100 90 100 100 91 77 48 48 100 93 70 58 100 94 100 64 5 6 21 5 44 96
100 100 100 100 100 100 100 100 100 100 100 100 100 100 100 100 100 100 100 100 98 100 84 90 100 100 100 100 97 17 5 7 97 92 100 100 5 33 87 8 5 23 100
100 100 100 100 100 100 100 100 100 100 100 100 100 100 100 100 100 100 100 100 53 100 100 90 80 89 46 60 100 99 53 35 19 100 100 100 46 83 6 5 5 10 85
100 100 100 100 100 100 100 100 100 100 100 100 100 100 100 100 100 100 56 39 38 85 77 92 84 89 98 100 97 79 75 8 100 100 82 5 5 5 5 5 5 86 100
100 100 100 100 100 100 100 100 100 100 100 100 100 100 100 100 87 43 59 54 47 25 5 22 77 100 88 100 62 60 48 16 96 100 45 5 33 23 5 5 36 100 49
100 100 100 100 100 100 100 100 100 100 100 100 100 100 100 37 5 54 41 50 69 100 100 100 92 99 100 50 36 50 87 100 100 100 82 97 89 41 5 5 60 100 75
100 100 100 100 100 100 100 100 100 100 66 59 61 41 23 52 88 99 89 98 100 100 100 100 100 100 97 98 96 50 84 100 100 100 100 26 48 23 68 5 28 100 100
100 100 100 100 100 100 91 78 58 40 14 5 5 42 29 94 95 100 100 100 100 100 100 100 100 100 100 100 100 100 100 100 100 96 100 57 6 62 100 55 18 100 96

GFSMA_prec_cloud_066.txt.gz
Cloud_Cover
96 100 92 100 100 100 100 100 88 99 87 100 100 100 100 100 100 100 100 100 100 100 98 100 100 100 100 100 100 100 100 100 100 62 28 100 98 5 5 0 0 5 5
100 100 100 100 100 100 100 100 100 94 100 97 99 100 100 100 100 100 72 100 100 100 100 100 100 100 100 100 100 100 100 100 96 94 100 80 4 1 0 0 0 1 2
100 100 100 100 84 100 100 100 100 100 100 87 100 100 100 100 98 100 77 100 100 100 100 100 100 100 100 100 100 100 100 24 99 100 8 5 5 1 0 0 2 0 0
100 100 100 100 97 100 100 100 100 100 100 100 100 100 100 100 100 100 94 100 100 100 100 100 100 100 100 100 100 100 100 100 100 85 5 5 7 3 5 5 5 4 0
100 100 100 100 100 100 100 100 97 100 100 100 100 100 100 100 100 100 100 100 100 100 100 100 100 100 100 100 100 100 100 100 61 5 8 36 18 5 12 13 3 0 0
100 100 100 100 100 100 100 100 100 100 100 100 100 100 100 100 100 100 100 100 100 100 100 100 100 100 100 100 100 100 84 6 27 5 24 100 82 5 4 1 0 0 0
100 100 100 100 100 100 100 100 100 100 99 100 100 100 100 100 99 100 100 100 100 100 100 100 100 100 100 100 100 97 7 5 6 93 100 96 5 0 0 0 0 0 0
100 100 100 100 100 100 100 100 100 100 100 100 100 100 100 100 100 100 100 100 100 100 100 100 100 100 97 98 18 82 77 31 100 72 82 5 3 5 3 0 0 0 0
100 100 100 100 100 100 100 100 100 100 100 100 100 100 100 100 100 100 100 100 100 100 100 100 100 100 100 100 90 95 100 100 100 99 19 5 5 5 5 2 0 0 0
100 100 100 100 100 100 98 100 100 100 100 100 100 100 100 100 100 100 100 100 100 100 100 100 99 100 100 100 100 100 100 96 36 100 65 71 5 5 5 5 5 5 4
100 100 100 100 100 100 100 100 100 100 100 100 100 99 100 100 100 100 100 100 81 100 100 100 100 99 100 100 100 100 100 96 100 100 100 100 78 8 5 5 5 5 5
100 100 100 100 100 100 100 100 100 100 100 100 100 100 100 100 100 100 100 89 100 89 100 100 100 100 100 100 99 100 100 100 100 100 100 100 100 100 100 95 5 5 5
100 100 100 100 100 100 100 100 100 100 100 100 100 100 100 92 100 100 100 100 100 98 100 100 100 100 100 100 100 100 100 100 100 100 100 100 100 100 99 100 95 13 5
100 100 100 100 100 100 100 68 100 100 98 100 100 100 100 100 100 100 100 99 100 100 100 100 100 100 100 100 100 94 100 100 100 100 100 100 100 100 100 100 100 100 69
59 31 94 93 99 33 34 34 53 100 100 80 100 97 100 100 100 100 100 100 100 100 100 100 100 100 96 91 75 72 100 94 98 100 100 100 100 100 100 100 98 100 100
100 100 94 80 58 22 7 21 85 80 100 100 100 100 100 100 100 100 100 100 100 100 100 100 100 88 100 74 42 88 35 73 100 97 100 78 90 96 100 100 99 100 79
95 83 83 80 66 77 77 94 100 100 100 100 100 100 100 100 100 100 100 100 100 100 100 100 100 100 100 83 72 60 95 62 26 21 64 100 100 83 96 68 100 100 100
100 100 100 100 100 99 100 100 100 100 100 100 100 100 100 100 100 100 100 100 100 100 100 100 100 100 89 78 6 100 98 70 77 90 100 100 100 94 88 96 100 53 72
100 100 100 91 100 100 100 100 100 100 100 100 100 100 100 100 100 100 100 100 100 100 100 100 100 100 100 100 83 79 94 24 87 100 100 100 97 100 100 100 100 5 15
92 100 100 100 100 100 100 100 100 100 100 100 100 100 100 100 100 100 100 100 100 100 100 100 95 100 96 68 16 46 94 100 100 100 100 100 100 100 100 100 66 6 100
88 100 100 100 100 100 100 100 100 100 100 100 100 100 100 100 100 100 100 100 100 100 100 90 85 65 49 30 19 40 93 100 100 84 95 100 100 100 100 69 6 92 100
96 100 100 100 100 100 100 100 100 100 100 100 100 100 100 100 100 100 100 100 100 100 96 100 28 74 76 39 7 15 12 29 46 98 98 100 61 12 8 5 79 100 100
100 100 100 100 100 100 100 100 100 100 100 100 100 100 100 100 100 100 100 100 100 76 65 45 96 90 86 98 62 45 69 89 99 83 66 39 5 5 5 79 100 88 45
100 100 100 100 100 100 100 100 100 100 100 100 100 100 100 100 100 100 99 100 60 66 42 85 100 100 94 75 50 99 100 68 60 25 8 59 5 8 5 100 100 100 8
100 100 100 100 100 100 100 100 100 100 100 100 100 100 100 100 100 100 85 80 54 100 78 89 96 97 99 70 13 5 87 94 22 66 67 46 5 49 15 100 95 7 5
100 100 100 100 100 100 100 100 100 100 100 100 100 100 100 100 95 69 92 100 100 95 94 100 100 100 86 100 100 100 64 94 96 34 89 5 6 40 91 44 5 5 6

GFSMA_prec_cloud_069.txt.gz
Cloud_Cover
100 100 91 74 89 68 55 47 56 65 80 67 69 42 100 69 57 96 100 100 100 100 100 96 100 100 100 95 100 100 100 100 100 100 100 100 100 100 100 100 19 0 0
100 100 100 100 73 48 30 97 94 88 100 92 92 100 100 100 86 100 100 94 94 100 100 100 100 100 100 100 100 100 100 100 100 100 100 100 100 100 100 20 0 4 4
100 100 88 100 100 95 92 100 100 100 100 100 100 100 100 100 92 76 98 100 87 100 98 100 100 100 100 100 100 100 100 100 60 100 100 100 100 100 7 0 2 2 1
100 100 100 89 93 65 99 100 100 100 100 99 100 100 100 93 100 99 98 100 100 100 100 100 100 100 100 100 100 100 100 100 100 100 100 100 35 1 4 43 91 0 0
100 100 100 100 100 100 100 100 100 100 100 100 100 100 100 100 100 100 100 100 100 98 99 100 100 100 100 100 100 100 100 100 100 100 99 5 5 5 31 85 3 1 0
100 100 100 100 100 100 100 100 100 100 100 100 100 100 100 100 97 100 100 89 100 100 100 100 100 100 100 100 100 100 100 100 100 87 12 5 61 55 99 20 5 0 4
100 100 100 100 100 100 100 100 100 100 100 100 100 100 100 100 80 100 100 76 100 100 100 100 100 100 100 100 100 100 100 100 94 35 31 18 22 62 5 5 2 5 5
100 100 100 100 100 100 100 100 100 100 100 100 100 100 100 97 86 97 100 100 100 100 100 100 100 100 100 100 100 100 95 100 68 87 84 38 80 34 5 5 6 84 100
100 100 100 100 100 100 100 100 100 100 100 100 100 100 100 100 100 100 100 100 100 99 100 100 100 100 100 100 100 100 100 100 100 100 6 10 55 5 5 13 90 99 100
100 100 100 100 100 100 100 100 100 100 100 100 100 100 100 100 100 100 100 100 68 100 100 100 100 100 99 100 79 96 100 100 100 100 100 5 100 87 87 100 100 64 60
100 100 100 100 100 100 100 100 100 100 100 100 100 100 100 100 100 100 100 100 100 100 100 81 100 94 60 100 100 100 100 100 100 100 7 7 68 56 100 100 100 100 97
100 100 100 100 100 100 100 100 100 100 100 100 100 100 100 100 100 100 100 100 100 100 98 100 100 100 85 100 100 100 100 100 100 98 40 68 100 94 100 100 100 100 100
100 100 100 100 100 100 100 100 100 100 100 100 100 100 100 100 100 100 100 100 100 99 98 100 100 100 100 100 100 100 100 100 100 94 100 100 100 100 82 100 87 96 98
100 100 100 100 100 100 100 100 100 100 100 100 100 100 100 100 100 100 100 100 100 100 100 100 100 100 100 100 100 100 100 100 99 100 100 82 100 90 100 98 88 99 100
100 100 100 100 99 88 70 99 93 76 32 58 49 64 94 100 97 97 100 100 100 100 100 100 100 100 100 100 100 90 88 100 90 63 84 90 97 100 100 100 100 100 100
5 11 26 66 53 47 5 5 5 5 54 55 57 83 100 100 100 100 100 100 100 98 100 100 100 100 100 100 81 96 100 90 85 95 40 34 99 97 100 100 100 100 94
100 100 100 86 24 6 5 10 55 89 99 99 100 100 100 96 98 100 100 100 100 100 100 100 100 100 99 59 52 100 100 91 100 23 62 100 100 100 100 100 100 96 21
93 100 100 100 100 41 28 100 100 92 100 100 100 100 100 100 100 100 100 100 100 100 100 100 100 95 77 99 98 96 95 99 60 99 100 100 100 89 96 82 96 9 5
5 82 94 100 100 100 100 100 100 100 100 100 100 100 100 100 100 100 100 100 100 100 99 100 100 100 100 100 100 100 95 94 89 79 99 100 96 39 98 57 7 8 27
44 34 55 100 100 100 97 100 100 100 100 100 100 100 100 100 100 100 100 100 100 100 100 100 100 100 93 100 100 91 90 66 97 100 94 93 55 93 100 24 59 89 100
10 94 81 100 95 86 100 100 100 100 100 100 100 100 100 100 100 100 100 95 100 100 100 100 100 100 100 98 50 78 89 100 98 100 100 100 100 80 99 98 100 100 100
11 6 66 50 100 100 100 100 100 100 100 100 100 100 100 100 100 100 100 100 100 100 100 100 99 100 100 46 100 100 100 100 100 86 70 97 54 18 100 100 100 100 99
74 100 92 100 100 100 100 100 100 100 100 100 100 100 100 100 100 100 100 100 100 100 100 100 100 100 65 100 90 96 99 75 31 85 10 7 43 98 100 100 100 100 100
100 100 100 100 100 100 100 100 100 100 100 100 100 100 100 100 100 100 100 100 100 100 100 100 78 100 100 98 63 98 73 29 62 96 92 22 96 100 99 100 100 100 45
100 100 100 100 100 100 100 100 100 100 100 100 100 100 100 100 100 100 100 100 100 100 73 66 96 100 100 66 96 76 45 26 20 100 100 97 100 42 100 100 100 10 5
100 100 100 100 100 100 100 100 100 100 100 100 100 100 100 100 100 100 100 100 100 83 73 100 99 88 94 90 72 40 49 87 40 100 100 100 92 64 38 91 12 5 92

GFSMA_prec_cloud_072.txt.gz
Cloud_Cover
100 100 100 100 96 100 100 100 23 95 82 70 58 88 51 68 61 66 60 62 88 100 100 82 100 100 76 100 100 100 54 100 100 100 94 100 74 100 100 100 100 96 96
100 100 99 100 99 100 99 99 84 30 92 64 100 25 53 87 100 100 84 100 100 100 100 100 100 100 100 95 100 96 100 100 100 81 100 100 100 100 100 100 100 43 5
100 100 100 100 99 78 68 92 43 79 100 68 39 9 49 79 97 99 100 99 94 100 100 100 100 100 96 98 100 100 100 100 100 100 100 100 100 100 100 94 95 5 4
100 100 100 100 100 100 95 100 97 100 91 54 20 100 100 100 100 100 100 93 100 100 98 100 81 100 100 100 100 100 100 100 100 100 100 100 100 100 100 42 4 5 90
100 100 100 100 100 96 87 100 100 100 96 87 99 99 100 93 100 100 97 99 99 100 100 100 100 100 100 100 100 100 100 100 100 100 100 100 100 52 8 5 7 98 86
100 100 99 100 100 100 100 90 100 100 100 100 100 100 100 100 100 100 100 100 100 100 98 100 100 100 100 100 100 100 100 100 100 100 100 69 57 97 62 41 44 6 0
100 100 100 100 100 100 100 100 100 100 100 100 100 100 100 100 100 100 100 100 91 76 100 100 100 100 100 100 84 100 100 100 100 16 5 5 5 69 100 61 5 5 5
100 100 100 100 100 100 100 100 100 100 100 100 100 100 100 100 100 100 100 100 100 100 100 100 100 100 100 96 100 100 100 100 100 100 96 17 100 100 100 7 5 1 5
100 100 100 100 100 100 100 100 100 100 100 100 100 100 100 100 100 100 100 100 100 100 100 100 100 100 100 100 100 100 100 100 100 93 100 100 100 100 100 45 5 5 5
100 100 100 100 100 100 100 100 100 100 100 100 100 100 100 100 100 100 100 100 100 100 100 100 100 100 100 100 100 100 100 100 100 100 100 100 100 87 100 100 100 78 84
100 100 100 100 100 100 100 100 100 100 100 100 100 100 100 100 98 100 100 100 100 100 100 100 100 100 100 100 99 72 94 100 100 100 100 100 100 86 5 41 100 100 100
100 100 100 100 100 100 100 100 100 100 100 100 100 100 100 100 100 100 100 100 100 100 100 100 100 100 100 92 78 98 100 100 100 100 100 100 99 11 31 89 100 94 94
100 100 100 100 100 100 100 100 100 100 100 100 100 100 100 100 100 100 100 100 100 100 100 100 100 100 73 90 100 100 100 100 100 100 100 77 93 77 57 100 100 100 97
100 100 100 100 100 100 100 100 100 100 100 100 100 100 100 100 100 99 85 88 100 100 100 100 100 100 100 100 100 100 100 100 100 79 34 59 75 6 10 28 11 39 94
100 100 100 100 100 100 100 100 100 100 100 100 100 100 100 100 100 72 79 100 100 99 100 100 100 100 100 100 100 100 100 100 55 5 9 100 6 5 62 100 100 86 97
100 100 100 100 100 100 100 100 100 100 73 72 96 95 96 100 100 86 86 98 100 100 100 100 100 100 100 100 100 100 100 70 5 5 92 50 96 97 100 99 87 100 98
46 96 69 91 45 19 32 26 53 100 89 23 49 25 55 84 100 82 100 100 100 100 100 100 100 100 100 100 97 93 64 5 82 60 97 100 100 100 100 24 66 100 20
100 99 67 63 96 100 77 98 67 37 26 77 66 99 100 100 100 100 100 100 100 100 100 100 100 100 100 100 100 66 62 100 100 42 100 100 100 100 100 69 88 91 91
74 100 100 100 79 26 83 83 98 93 100 96 92 100 100 100 100 100 100 100 100 100 100 100 100 100 100 87 100 100 100 100 78 69 100 100 50 48 88 100 95 44 5
83 48 6 39 74 20 56 77 98 100 99 100 100 100 100 100 100 100 100 100 100 100 100 100 100 64 80 91 100 100 100 100 79 100 100 87 99 85 51 46 65 53 43
5 5 5 47 55 89 100 100 100 100 100 99 100 100 100 100 100 100 100 100 100 100 100 100 100 90 99 100 100 100 95 100 100 100 88 99 52 70 95 70 100 100 98
11 5 5 5 12 21 52 100 69 92 100 100 100 100 100 100 100 100 100 100 100 100 100 100 100 100 100 100 100 100 100 100 100 95 100 94 100 100 93 99 100 100 100
26 6 11 31 27 71 100 100 100 100 100 100 100 100 100 100 100 100 100 100 100 100 100 100 100 100 100 100 100 97 95 97 87 92 50 21 100 100 100 100 100 100 100
66 59 55 56 85 100 100 100 100 100 100 100 100 100 100 100 100 100 100 100 100 100 100 100 100 100 100 100 100 93 90 72 93 98 99 100 100 100 100 100 100 100 54
92 97 100 100 100 99 100 100 100 100 100 100 100 100 100 100 100 100 100 100 100 100 100 100 100 100 100 100 100 100 100 94 100 100 100 100 75 100 100 97 100 99 100
100 100 100 100 100 100 100 100 100 100 100 100 100 100 100 100 100 100 100 100 100 100 100 100 100 100 100 100 88 100 94 100 100 100 87 100 100 96 31 99 100 100 100

GFSMA_prec_cloud_075.txt.gz
Cloud_Cover
100 100 100 100 100 100 100 100 100 100 39 12 12 92 62 99 62 68 46 63 99 94 96 51 100 100 94 100 100 51 100 60 56 52 80 92 100 100 100 100 100 100 69
100 100 100 100 100 100 100 95 100 58 100 30 74 42 89 88 98 88 94 88 100 90 100 100 100 100 100 100 100 49 93 98 93 100 100 100 100 100 100 53 11 8 2
100 100 100 100 100 100 100 100 86 88 85 79 67 43 100 100 14 92 30 14 88 100 100 100 100 100 100 100 100 100 100 100 100 100 100 100 100 100 93 62 5 5 5
100 100 100 96 100 100 100 100 82 70 100 67 100 93 42 57 93 58 100 100 100 100 100 100 100 100 100 90 100 100 100 100 100 100 100 100 100 100 100 92 61 2 1
100 100 100 100 100 100 100 95 100 100 98 99 81 85 85 64 60 50 100 100 100 100 100 100 100 100 100 98 100 100 100 100 100 100 100 100 100 100 100 5 5 5 60
100 100 100 100 100 100 100 100 100 69 66 69 49 56 99 98 100 100 100 100 100 100 100 100 100 100 96 100 100 100 100 100 100 100 100 100 100 97 71 88 77 37 100
100 100 100 100 100 100 100 100 100 67 100 55 91 100 100 100 100 100 100 100 100 100 100 100 100 100 100 100 100 100 100 100 100 100 100 100 100 100 100 89 100 52 96
100 100 100 100 98 99 100 100 89 100 100 100 100 100 100 100 100 100 100 100 100 100 100 100 100 100 100 100 100 100 100 100 100 100 100 81 96 45 5 83 84 100 100
100 100 100 99 100 100 100 100 100 100 100 100 100 100 100 100 100 100 100 100 100 100 100 100 100 100 100 100 100 100 100 100 100 100 17 55 100 100 100 100 100 100 52
100 100 100 100 100 100 100 100 100 100 100 100 100 100 100 100 100 100 100 100 100 100 100 100 100 100 100 100 100 100 100 100 85 92 67 100 100 100 100 100 100 95 100
100 100 100 100 100 100 100 100 100 100 100 100 100 100 100 100 100 100 100 100 100 100 100 100 100 100 100 100 100 100 94 100 49 87 100 100 100 100 100 100 72 50 93
100 100 100 100 100 100 100 100 100 100 100 100 100 100 100 100 100 100 100 100 100 100 100 100 100 100 100 78 100 36 100 55 100 100 100 100 100 100 100 66 35 14 5
100 100 100 100 100 100 100 100 100 100 100 100 100 100 100 100 100 100 100 100 100 100 100 100 100 100 91 100 100 100 100 100 100 100 100 100 100 64 24 100 54 10 24
99 98 100 100 100 100 100 100 100 100 100 100 100 100 100 100 100 100 100 100 100 100 100 78 18 83 96 91 100 100 100 100 98 100 100 100 59 25 6 5 12 5 88
100 100 100 100 100 100 100 100 100 100 100 100 98 100 100 100 100 100 100 100 100 99 100 93 36 66 78 79 40 70 79 100 100 100 100 41 5 5 5 20 5 36 98
60 98 100 100 100 100 100 100 100 100 100 100 100 100 100 100 100 100 100 96 86 54 100 100 58 92 99 62 69 100 100 100 100 100 62 28 7 13 98 85 93 100 93
100 100 100 100 100 100 100 100 100 100 100 100 100 100 100 100 75 64 100 45 100 100 100 100 100 99 100 100 100 100 100 100 94 92 100 5 87 94 100 97 98 100 100
30 49 78 81 100 100 97 69 53 90 100 99 88 79 70 87 98 100 93 100 100 100 100 100 100 100 100 100 100 100 100 100 74 70 100 100 100 100 100 100 100 100 100
3 34 48 67 97 82 29 50 100 100 85 63 98 98 100 99 90 100 100 100 100 100 100 100 100 100 100 100 100 100 100 100 100 100 100 100 100 100 100 100 100 100 100
11 12 39 43 6 13 79 100 100 100 85 99 99 100 100 100 100 100 100 100 100 100 100 100 100 100 100 100 100 100 100 100 100 100 100 100 99 100 100 100 100 100 100
0 0 3 2 3 5 27 98 100 100 100 100 100 100 98 100 100 100 100 100 100 100 100 100 100 100 100 100 100 100 100 100 100 100 100 100 100 100 100 100 100 100 100
5 5 5 1 0 1 2 5 63 100 100 100 100 100 100 100 100 100 100 100 100 100 100 100 100 100 100 100 100 100 100 100 100 100 100 100 100 100 100 100 53 100 100
5 6 6 5 5 5 5 5 21 90 70 86 100 100 100 100 100 100 100 100 100 100 100 100 100 100 100 100 100 100 100 100 100 100 100 98 100 100 100 73 99 100 100
12 95 57 53 5 5 15 45 44 88 93 66 94 100 100 100 100 100 100 100 100 100 100 100 100 100 100 100 100 99 98 100 100 100 100 100 71 71 100 65 100 100 100
18 91 100 99 100 92 100 100 100 99 100 100 100 100 100 100 100 100 100 100 100 100 100 100 100 100 100 100 100 100 100 100 100 100 100 69 99 100 100 100 100 100 100
100 98 100 100 100 100 100 100 100 100 100 100 100 100 100 100 100 100 100 100 100 100 100 100 100 100 100 100 100 100 100 100 100 100 100 100 100 100 90 100 100 100 100

GFSMA_prec_cloud_078.txt.gz
Cloud_Cover
100 100 100 100 100 100 100 100 100 100 100 100 100 100 100 99 100 100 100 100 99 99 100 67 75 75 100 100 87 94 96 98 86 13 5 82 83 100 100 100 100 100 100
100 100 100 100 100 100 100 100 100 100 100 100 100 100 64 100 85 100 100 100 94 83 96 76 99 100 100 100 100 100 100 100 25 100 99 100 100 100 100 100 95 100 26
100 100 100 100 100 100 100 100 100 100 100 100 100 56 86 81 99 96 100 100 95 89 51 99 100 100 100 100 100 100 100 100 38 65 100 100 100 100 100 100 93 5 44
100 100 100 100 100 100 100 100 100 88 100 92 76 61 99 85 100 100 86 64 36 99 100 100 100 100 100 100 100 100 100 97 98 95 100 100 100 100 100 85 8 24 85
100 100 100 100 100 96 100 100 100 95 88 97 95 100 100 100 81 76 48 90 24 76 100 100 100 100 100 100 100 100 100 100 100 100 100 100 100 100 100 99 72 32 37
100 100 100 100 100 100 100 100 100 100 100 100 100 100 100 74 16 44 63 100 97 100 96 100 100 100 100 100 100 100 100 100 100 100 100 100 100 100 100 100 100 100 34
100 100 100 100 100 100 100 100 100 100 100 100 100 95 97 93 31 64 87 73 100 100 100 100 100 100 100 100 100 100 100 100 100 100 100 100 100 100 100 100 100 83 99
100 98 100 100 100 100 100 100 100 100 100 100 100 100 100 100 99 100 94 99 88 100 100 100 100 100 100 100 100 100 100 100 100 100 100 100 100 100 75 5 5 45 100
100 100 100 100 100 100 100 100 100 100 100 100 100 100 100 100 100 98 100 100 100 100 100 100 100 100 100 100 96 100 100 100 100 100 100 100 100 63 32 13 20 99 100
100 100 100 100 100 100 100 100 100 100 100 100 100 100 100 100 100 100 100 100 100 100 100 100 100 100 100 100 100 100 100 100 100 100 100 99 90 100 100 100 100 100 100
100 100 100 100 100 100 100 100 100 100 100 100 100 100 100 100 100 100 100 100 100 100 100 100 100 100 100 100 100 100 100 100 100 72 84 100 98 96 100 100 100 100 100
100 100 100 100 100 100 100 100 100 100 100 100 100 100 100 100 100 100 100 100 100 100 100 100 100 100 100 100 100 100 100 100 100 98 100 100 97 100 88 100 100 100 100
100 100 100 100 100 100 100 100 100 100 100 100 100 100 100 100 100 100 100 100 100 100 100 100 100 100 100 100 100 77 73 87 100 100 100 100 91 82 100 100 99 100 46
91 100 100 100 100 100 100 100 100 100 100 100 100 100 100 100 100 100 100 100 100 100 100 100 100 100 100 100 14 5 5 5 67 100 98 27 100 100 100 100 21 5 6
25 100 100 100 92 100 100 100 100 100 100 100 100 100 100 100 100 100 100 100 100 100 100 100 100 65 7 12 19 16 37 91 98 68 48 100 100 100 100 100 98 5 5
10 25 42 53 77 26 100 100 100 100 100 100 100 100 100 100 100 100 100 100 100 100 100 77 5 50 36 55 72 67 73 72 100 73 100 100 100 100 100 100 57 5 56
47 98 100 100 100 100 100 100 100 100 100 100 100 100 100 100 100 100 100 89 94 100 46 18 100 100 100 100 100 100 100 100 100 100 100 100 100 100 100 82 94 100 100
44 3 64 100 100 100 100 100 100 100 100 100 100 100 100 100 100 97 100 39 10 79 51 58 86 100 100 98 100 100 100 100 100 100 100 100 100 100 100 100 100 100 100
0 15 3 27 20 4 5 21 93 100 92 99 100 100 100 82 100 96 46 45 97 68 94 99 100 100 100 100 100 100 100 100 100 100 100 100 100 100 100 100 100 98 99
10 16 4 14 14 4 0 4 5 5 5 33 100 65 28 64 99 96 94 100 95 99 98 100 100 100 100 100 100 100 100 100 100 100 100 100 100 100 100 98 95 96 100
18 8 19 8 2 0 1 2 5 5 5 12 93 99 93 97 100 100 100 99 100 100 100 100 100 100 100 100 100 100 100 100 100 100 100 100 100 100 100 100 99 96 100
0 2 12 41 24 5 5 5 5 5 5 67 86 100 99 100 80 100 100 100 100 100 100 100 100 100 100 100 100 100 100 100 100 100 100 100 100 71 100 98 97 100 100
11 5 5 23 60 80 92 95 78 20 93 98 45 70 27 97 100 100 100 100 100 100 100 100 100 100 100 100 100 100 100 100 100 100 100 100 100 98 100 100 100 100 100
100 99 15 5 28 74 45 100 88 92 99 99 95 92 88 100 100 100 100 100 100 100 100 100 100 100 100 100 100 100 100 100 100 100 100 100 100 100 100 100 100 100 100
100 99 57 61 80 28 98 100 100 100 99 96 100 100 100 100 100 100 100 100 100 100 100 100 100 100 100 100 100 100 100 100 100 100 100 100 100 100 100 100 100 100 100
100 100 100 100 100 100 100 100 100 100 100 100 100 100 100 100 100 100 100 100 100 100 100 100 100 100 100 100 100 100 100 100 100 100 100 100 100 100 100 100 100 100 100

GFSMA_prec_cloud_081.txt.gz
Cloud_Cover
100 100 100 100 99 100 100 100 95 64 100 100 100 100 100 100 100 100 100 100 100 100 85 100 69 100 90 88 96 100 100 100 100 100 100 100 100 100 100 100 100 94 99
100 99 100 100 100 100 100 100 80 91 100 77 100 100 100 100 100 100 100 100 100 100 100 99 96 85 85 100 89 98 100 100 100 100 100 100 100 100 100 100 100 100 100
100 100 100 100 100 100 99 96 85 100 100 100 100 100 100 100 100 100 100 99 100 98 100 100 97 98 100 100 100 100 100 100 100 100 100 100 100 100 100 100 100 100 100
100 100 100 100 100 100 100 100 100 100 100 100 100 100 100 100 100 57 50 100 100 100 97 96 90 100 100 100 100 100 100 100 100 100 100 100 100 100 100 100 100 100 100
100 100 100 100 100 100 100 100 100 100 100 100 100 100 100 100 100 63 99 100 75 100 88 100 100 100 100 100 100 100 100 100 100 100 100 100 100 100 100 100 100 100 100
100 100 100 100 100 100 100 100 100 100 100 100 100 99 100 100 100 91 90 99 95 80 78 82 91 95 100 100 100 100 100 100 100 100 100 100 100 100 100 100 100 100 100
100 100 100 100 100 100 100 100 100 99 100 100 100 100 90 100 100 100 98 84 40 52 99 98 99 100 100 100 100 100 100 100 100 100 100 97 100 100 100 100 100 100 100
100 100 100 100 100 100 100 100 100 97 100 100 100 100 100 100 100 100 100 100 92 53 66 98 100 100 100 100 100 100 100 100 100 100 100 100 100 100 100 100 100 100 21
100 100 100 100 100 100 100 100 100 100 100 100 100 100 90 100 92 95 100 87 67 100 100 99 94 100 100 100 100 100 100 100 100 100 100 100 100 100 100 100 100 64 5
100 100 100 100 100 100 100 100 100 100 100 100 100 100 100 100 100 100 85 84 98 100 100 100 100 100 100 100 100 100 100 100 100 100 100 100 100 100 100 57 90 98 91
100 100 99 100 100 100 100 100 100 100 100 100 100 100 100 100 100 100 100 100 100 100 100 100 100 100 100 100 100 100 100 100 100 100 100 100 100 89 70 53 60 100 95
100 100 100 100 100 100 100 100 100 100 100 100 100 100 100 100 96 100 99 100 100 100 100 100 100 100 100 100 100 100 100 100 100 100 100 79 95 63 10 15 57 85 100
100 100 100 100 100 100 100 100 100 100 100 100 100 100 100 100 100 100 100 100 100 100 100 100 100 100 100 94 82 100 100 100 100 100 96 5 64 43 26 5 24 99 98
100 100 100 100 100 100 100 100 100 100 100 100 100 100 100 100 100 100 100 100 100 100 100 100 100 100 100 100 100 100 58 13 5 75 67 83 96 67 43 52 47 52 91
100 96 100 100 100 100 100 100 100 100 100 100 100 100 100 100 100 100 100 100 100 100 100 100 100 100 100 100 100 29 17 97 92 50 97 100 60 70 86 76 99 95 100
93 82 68 72 99 96 100 100 100 100 100 100 100 100 100 100 100 100 100 100 100 100 100 100 100 100 99 74 90 92 20 33 94 100 100 100 100 100 100 99 100 100 100
100 50 2 20 38 42 76 86 91 100 100 100 100 100 100 99 100 100 100 100 100 100 100 100 100 82 68 69 100 99 99 100 100 100 100 100 100 100 100 100 100 100 100
100 88 22 12 0 2 62 72 100 99 100 50 100 100 100 100 100 100 100 100 97 97 100 100 100 100 48 91 100 100 100 100 100 100 100 100 100 100 100 100 100 100 100
100 100 93 7 0 4 1 2 46 36 63 78 96 100 100 100 95 67 84 100 99 77 73 96 100 85 100 100 100 100 100 100 100 100 100 100 100 100 100 100 100 100 100
34 26 5 7 0 0 0 4 4 5 5 5 5 5 5 5 42 58 72 100 100 100 99 100 100 100 92 100 100 100 100 100 100 100 100 100 100 100 100 100 100 100 100
4 5 4 11 7 14 2 2 5 5 5 5 5 5 36 62 46 57 73 5 99 100 100 100 100 100 100 100 100 100 100 100 100 100 100 100 100 100 100 100 100 100 100
13 36 100 100 98 16 26 33 17 28 23 6 7 12 8 61 31 88 64 18 98 22 100 100 100 100 100 100 100 100 100 100 100 100 100 100 100 100 100 100 100 100 100
23 5 64 100 100 100 93 78 22 26 28 6 4 5 7 28 60 93 100 100 100 100 100 100 100 100 100 100 100 100 100 100 100 100 100 100 100 100 100 100 100 100 100
5 5 25 8 47 83 100 100 86 89 65 32 7 43 36 55 100 99 100 100 100 100 100 100 100 100 100 100 100 100 100 100 100 100 100 100 100 100 100 100 100 100 100
60 91 88 100 98 92 100 100 100 100 100 100 100 100 100 100 100 100 100 100 100 100 100 100 100 100 100 100 100 100 100 100 100 100 100 100 100 100 100 100 100 100 100
100 100 100 100 100 100 100 100 100 100 100 100 100 100 100 100 100 100 100 100 100 100 100 100 100 100 100 100 100 100 100 100 100 100 100 100 100 100 100 100 100 100 100

GFSMA_prec_cloud_084.txt.gz
Cloud_Cover
100 100 100 100 100 100 72 86 72 74 96 95 100 99 67 100 100 100 100 100 100 100 100 100 100 100 100 100 57 89 100 72 98 85 100 100 100 100 100 100 100 5 6
100 100 100 100 100 100 90 88 100 79 60 100 100 100 57 99 100 100 100 100 100 100 100 100 96 100 95 94 97 97 98 34 100 85 100 99 100 100 100 100 83 62 92
100 100 100 100 100 100 100 100 93 100 63 100 100 100 73 100 100 100 100 100 100 94 100 100 46 100 99 88 100 97 83 100 100 74 98 100 100 100 100 78 90 100 54
100 100 100 100 100 91 99 80 100 100 92 100 100 87 98 100 100 100 100 100 100 98 92 100 100 100 100 99 90 70 100 90 87 100 100 100 100 100 100 100 100 100 100
100 100 100 100 100 100 89 100 100 100 100 100 100 91 100 100 100 100 100 100 98 57 94 100 100 100 99 100 100 65 100 100 100 100 100 100 100 100 100 100 100 100 100
100 100 100 100 100 100 100 100 100 100 100 100 100 100 100 100 100 100 100 100 31 96 100 99 100 100 100 94 90 72 100 99 100 100 100 100 100 100 100 100 100 100 100
100 100 100 100 100 100 100 100 100 100 100 100 98 100 100 100 100 100 100 83 100 100 100 100 100 100 100 100 100 100 100 100 100 100 100 100 100 100 100 100 100 100 100
100 100 100 100 100 100 100 100 100 100 100 100 100 100 100 100 100 100 99 92 100 95 100 100 100 100 100 100 100 99 100 100 99 100 100 100 100 100 100 100 100 100 100
100 100 100 100 100 100 100 100 100 100 100 100 100 100 100 100 100 100 100 100 100 98 74 100 100 100 100 100 100 100 100 100 100 100 100 100 99 79 100 100 100 100 100
100 100 100 100 100 100 100 100 100 100 100 100 100 100 100 100 100 100 100 100 100 96 100 100 100 100 100 100 100 100 100 100 100 100 100 100 100 86 100 100 100 100 73
100 100 100 100 100 100 100 100 100 100 100 100 100 100 100 100 100 100 100 100 100 100 100 100 100 100 100 100 100 100 100 100 100 100 100 100 100 100 100 100 100 18 11
94 100 100 100 100 100 100 100 100 100 100 100 100 100 100 100 100 100 100 100 100 100 100 100 100 100 100 100 100 100 100 100 100 100 100 100 100 100 32 100 100 43 43
100 100 100 100 100 100 100 100 100 100 100 100 100 100 100 100 100 100 100 100 100 100 100 100 100 100 100 100 100 100 100 100 100 98 90 55 24 11 69 76 92 93 12
100 100 100 100 100 100 100 100 100 100 100 100 100 100 100 100 100 100 100 100 100 100 100 100 100 100 100 100 100 100 100 100 99 98 5 5 9 93 100 91 100 100 94
5 21 100 100 100 100 100 100 100 100 100 100 100 100 100 100 100 100 100 100 100 100 100 100 100 100 100 100 100 100 100 100 98 100 97 100 100 100 100 100 100 100 100
48 85 73 84 99 100 100 100 100 100 100 100 100 100 100 100 100 100 100 100 100 100 100 100 98 97 100 100 93 95 100 100 100 100 100 100 100 100 100 100 100 100 100
100 86 56 54 44 65 50 45 40 67 100 100 100 100 100 100 100 100 100 100 100 100 100 100 100 99 100 100 100 100 100 100 99 98 91 100 100 100 100 100 100 100 100
100 100 100 92 22 21 0 0 0 5 95 36 45 93 92 98 100 97 100 100 100 100 100 100 100 98 42 88 100 100 100 99 61 98 100 100 100 100 100 100 100 100 100
100 100 100 100 97 20 4 5 3 0 20 4 8 32 22 78 86 26 13 18 100 94 86 100 100 100 100 100 100 100 100 100 99 100 100 100 100 100 100 100 100 100 100
100 100 100 100 100 97 46 34 7 3 5 5 5 5 5 4 3 5 5 16 79 100 99 100 100 86 90 80 89 78 100 100 100 100 100 100 100 100 100 100 100 100 100
5 39 30 57 95 99 17 10 38 56 31 6 5 5 5 5 25 64 86 7 50 82 54 48 22 68 100 100 100 96 100 100 100 100 100 100 100 100 100 100 100 100 100
29 32 13 16 4 5 5 5 5 32 80 57 93 72 67 79 52 86 98 100 90 65 25 33 34 68 100 100 73 100 100 100 100 100 100 100 100 100 100 100 100 100 100
83 56 55 69 59 72 74 70 65 55 69 54 100 90 97 24 38 54 86 99 100 96 85 75 61 84 98 100 100 100 100 100 100 100 100 100 100 100 100 100 100 100 100
100 100 100 71 36 100 100 97 66 73 78 98 100 93 98 100 100 100 96 92 92 100 100 100 100 89 100 100 100 100 100 100 100 100 100 100 100 100 100 100 100 100 100
100 100 100 100 100 100 100 100 100 100 94 100 100 100 100 100 100 100 100 100 100 100 100 100 100 100 100 100 100 100 100 100 100 100 100 100 100 100 100 100 100 100 100
100 100 100 100 100 100 100 100 100 100 100 100 100 100 100 100 100 100 100 100 100 100 100 100 100 100 100 100 100 100 100 100 100 100 100 100 100 100 100 91 100 100 100

GFSMA_prec_cloud_087.txt.gz
Cloud_Cover
100 100 100 100 100 100 100 99 100 100 100 89 70 92 100 96 100 100 100 100 100 100 100 100 100 100 100 99 95 62 95 13 44 100 84 14 72 100 100 99 100 99 100
100 100 100 100 100 100 100 100 100 100 100 99 37 71 93 100 100 100 100 100 100 100 100 100 100 100 100 96 86 69 93 71 10 80 71 86 35 92 100 100 100 100 100
100 100 100 98 100 100 100 100 100 98 100 94 75 100 71 99 100 100 100 100 100 100 100 100 100 100 70 99 83 92 98 27 22 88 69 77 64 100 100 100 100 100 100
100 100 100 100 100 100 100 100 68 100 100 100 100 99 92 100 100 100 100 100 100 100 100 100 100 80 100 90 100 89 99 88 94 97 82 100 22 78 100 100 100 100 100
100 100 100 100 100 100 100 100 99 100 100 100 100 100 100 100 88 100 97 100 100 100 100 100 100 97 99 100 91 100 94 100 83 90 77 26 83 99 100 100 100 100 100
100 100 100 100 100 100 100 100 92 89 100 100 90 97 100 94 100 100 100 100 100 94 100 100 98 53 100 100 100 100 100 100 100 100 100 98 99 88 100 100 100 100 100
100 100 100 100 100 100 100 100 100 98 100 100 100 94 100 100 100 100 100 100 100 100 100 100 100 100 100 100 100 100 100 100 94 100 100 100 100 100 100 100 100 100 100
100 100 100 100 100 100 100 100 100 100 100 100 100 100 100 100 100 100 100 100 100 100 100 100 100 91 100 100 100 100 100 100 100 100 100 95 100 100 100 100 100 100 100
100 100 100 100 100 100 100 100 100 100 100 100 100 100 100 100 100 100 100 100 100 100 100 100 100 100 100 100 100 100 100 100 100 100 100 100 100 100 100 100 89 66 100
100 100 100 100 100 100 100 100 100 100 100 100 100 100 100 100 100 100 100 100 100 100 100 100 100 100 100 100 99 100 100 100 100 100 100 100 100 100 100 99 100 100 100
100 100 100 100 100 100 100 100 100 100 100 100 100 100 100 100 100 100 100 100 100 100 100 100 100 100 100 100 100 100 100 100 100 99 100 100 100 100 98 93 60 100 100
100 100 100 100 100 100 100 100 100 100 100 100 100 100 100 100 100 100 100 100 100 100 100 100 100 100 86 98 100 100 100 94 100 100 99 100 100 98 100 100 74 82 52
97 98 100 100 100 100 100 100 100 100 100 100 100 100 100 100 100 100 100 100 100 100 100 100 100 100 100 100 100 100 100 100 100 100 34 48 96 100 46 23 30 98 86
50 96 64 99 100 100 100 100 100 100 100 100 100 100 100 100 100 100 100 100 100 100 100 100 100 100 100 100 100 100 100 100 100 100 100 100 94 99 53 9 12 80 100
5 5 60 95 83 86 100 100 100 100 100 100 100 100 100 100 100 100 100 100 100 100 100 100 100 100 100 100 100 100 100 100 100 100 100 100 100 100 98 80 100 94 100
0 3 38 89 97 99 100 100 73 100 100 100 100 100 100 100 100 100 100 100 100 100 100 100 100 100 100 100 100 100 100 100 100 100 100 100 100 100 100 100 100 100 100
0 0 0 10 11 62 97 100 76 99 100 100 99 92 91 100 100 100 100 100 100 100 100 100 100 100 100 99 98 100 100 100 100 100 100 100 100 100 100 100 100 100 100
93 92 26 0 3 60 52 21 93 94 88 11 97 100 100 100 100 100 100 100 100 100 100 100 93 100 100 99 100 100 100 96 100 97 99 100 100 100 100 100 85 96 100
100 100 100 86 16 2 0 0 0 4 10 8 5 12 58 95 24 56 99 100 98 100 100 100 62 98 44 99 100 100 100 97 96 96 100 100 100 100 100 100 100 100 100
100 99 100 100 100 100 90 20 1 0 0 66 79 32 5 4 5 5 21 27 91 100 86 100 100 30 94 100 87 60 29 55 71 98 100 100 99 100 100 100 100 100 100
58 12 6 33 96 100 100 100 100 84 18 4 5 16 65 98 80 20 5 5 79 67 70 100 100 100 100 100 100 69 59 96 100 80 94 100 100 100 100 100 100 100 100
94 83 48 45 64 82 48 11 57 80 37 34 85 65 100 52 60 24 84 100 55 46 13 57 100 100 99 99 99 99 88 98 100 98 100 100 100 100 100 100 100 100 100
100 100 100 99 99 100 100 100 92 9 74 33 45 67 86 88 69 59 97 69 100 99 99 100 100 88 100 100 99 100 100 100 98 100 100 100 100 100 100 100 100 100 100
100 100 100 100 100 100 100 100 100 100 100 74 78 88 100 96 90 89 73 92 64 95 99 100 100 100 100 100 100 100 100 100 100 100 100 100 100 100 100 100 100 100 100
100 100 100 100 100 100 100 100 100 100 100 100 100 100 100 99 98 99 100 100 100 100 100 100 100 100 100 100 100 100 100 100 100 100 100 100 100 100 100 100 100 100 100
100 100 100 100 100 100 100 100 100 100 100 100 100 100 100 100 100 100 100 100 100 100 100 100 100 100 100 100 100 100 100 100 100 100 100 100 100 100 100 100 100 100 100

GFSMA_prec_cloud_090.txt.gz
Cloud_Cover
100 100 100 100 100 100 100 100 100 100 99 100 98 85 74 86 62 70 97 99 100 100 100 100 100 100 100 100 100 100 100 100 88 100 84 5 16 9 59 98 100 100 100
100 100 100 100 100 100 100 100 100 92 79 39 98 37 56 93 56 52 100 100 100 100 100 100 100 100 100 100 100 100 58 94 80 92 56 66 99 99 100 86 100 100 100
100 100 100 100 100 100 100 100 100 100 96 87 38 51 70 85 41 19 89 100 100 97 100 100 100 100 100 100 100 91 82 96 40 100 84 100 100 100 92 100 100 100 100
100 100 100 100 100 100 100 100 100 100 100 100 100 100 76 100 84 5 100 100 100 100 100 100 100 100 100 100 100 96 61 94 60 100 82 94 100 99 88 90 100 100 97
100 100 100 100 100 97 100 100 100 79 100 100 98 100 93 78 75 65 100 55 100 98 97 100 100 100 100 100 100 100 59 96 100 85 100 100 100 99 99 59 100 100 97
100 100 100 100 100 100 100 100 100 100 100 97 100 89 88 78 100 51 100 100 100 100 92 100 100 100 100 100 98 100 100 100 100 100 100 100 100 100 86 100 100 100 100
100 100 100 100 100 100 100 100 100 100 100 97 100 100 100 98 100 100 100 100 77 97 100 100 100 100 100 100 100 97 97 81 100 100 100 100 100 100 100 100 100 100 100
100 100 100 100 100 100 100 100 100 100 100 100 100 99 100 100 100 100 100 100 100 100 100 100 100 100 96 100 100 100 100 100 100 100 100 100 54 100 100 100 100 100 100
100 100 100 100 100 100 100 100 100 100 100 100 100 98 100 100 100 100 100 100 100 100 100 100 100 100 99 98 100 100 100 100 100 100 100 100 100 100 100 100 100 99 100
100 100 100 100 100 100 100 100 97 100 100 100 100 100 100 100 100 100 100 100 100 100 100 100 100 99 98 97 100 100 100 100 100 100 100 100 100 100 100 100 100 60 96
100 100 100 100 100 100 100 100 100 100 100 100 100 100 100 100 100 100 100 100 100 100 99 100 100 99 100 100 100 100 100 100 100 100 98 100 100 100 100 100 100 51 88
100 100 100 100 100 100 100 100 100 100 100 100 100 100 100 100 100 100 100 100 100 100 100 100 100 100 100 100 100 100 100 100 100 92 93 92 100 100 100 80 15 99 12
100 100 100 100 100 100 100 100 100 100 100 100 100 100 100 100 100 100 100 100 100 100 100 100 100 100 100 100 100 100 100 84 100 100 99 100 100 100 100 95 42 100 69
100 100 100 100 100 100 100 100 100 100 100 100 100 100 100 100 100 100 100 100 100 100 100 100 100 100 100 100 100 100 98 100 100 100 100 100 100 100 99 92 71 97 100
55 95 47 44 98 97 99 98 97 100 100 100 100 100 100 100 100 100 100 100 100 100 100 100 100 100 100 100 100 100 100 100 100 100 100 100 100 100 100 100 100 100 100
18 8 84 82 9 12 10 42 99 100 94 100 100 100 100 100 100 100 100 100 100 100 100 100 100 100 100 100 100 100 100 100 100 100 100 100 100 100 100 90 100 100 95
9 18 0 13 16 5 26 78 90 100 85 91 100 100 100 100 100 100 100 100 100 100 100 100 100 100 100 100 100 94 98 100 100 100 100 100 96 100 100 100 99 99 98
5 35 22 6 16 49 61 95 95 97 100 20 29 27 11 74 45 100 74 100 100 100 100 100 100 100 100 100 100 100 100 88 100 100 100 100 100 100 100 100 100 100 100
100 96 33 25 19 51 83 99 100 52 36 23 5 5 5 5 5 6 76 96 100 100 100 100 100 99 100 98 54 66 96 100 78 95 100 100 100 100 99 100 100 100 100
100 100 100 98 100 100 88 63 82 94 100 74 19 5 5 4 5 5 5 34 80 91 96 100 100 99 87 100 88 91 9 30 20 31 33 38 78 98 100 100 89 100 100
99 100 98 87 85 88 97 43 7 8 38 42 67 70 58 22 53 46 38 16 74 88 85 88 76 59 98 99 100 100 67 82 85 88 22 54 56 49 58 93 100 100 100
100 100 93 100 100 100 100 100 100 56 86 100 100 98 85 46 11 45 11 5 68 100 100 99 96 76 99 99 90 100 100 100 100 100 100 100 96 100 96 94 100 100 100
100 100 100 100 100 100 100 100 100 100 100 100 100 100 86 72 88 93 41 39 89 100 100 100 100 100 100 100 100 100 100 100 100 100 100 100 100 100 100 100 100 100 100
100 100 100 100 100 100 100 100 100 100 100 100 100 100 100 100 100 99 97 100 100 100 100 100 100 100 100 100 100 100 100 100 100 100 100 100 100 100 100 100 100 100 100
100 100 100 100 100 100 100 100 100 100 100 100 100 100 100 100 100 100 100 100 100 100 100 100 100 100 100 100 100 100 100 100 100 100 100 100 100 100 100 100 100 100 100
100 100 100 100 100 100 100 100 100 100 100 100 100 100 100 100 100 100 100 100 100 100 100 100 100 100 100 100 100 100 100 100 100 100 100 100 100 100 100 100 100 100 100

GFSMA_prec_cloud_093.txt.gz
Cloud_Cover
100 94 64 100 100 100 100 100 100 100 100 100 100 100 97 84 76 98 97 96 100 100 100 100 100 100 100 100 100 100 100 100 100 100 100 58 50 99 16 89 100 100 100
99 95 63 100 100 100 100 100 100 100 100 100 100 86 82 11 44 100 40 100 100 100 100 100 100 100 100 100 100 100 100 100 100 100 40 80 96 100 100 100 100 100 100
75 94 72 100 100 100 100 100 100 100 100 81 97 99 52 68 62 90 96 98 100 100 100 100 100 100 100 100 100 100 100 100 100 100 90 98 100 100 100 100 100 70 100
100 100 100 100 100 100 100 100 100 100 100 100 100 100 88 44 90 67 98 52 78 100 100 100 100 100 100 100 100 100 100 100 100 100 100 99 88 99 100 100 100 86 99
100 100 100 100 100 100 100 100 100 100 100 100 100 91 14 47 12 32 32 8 6 99 100 100 100 100 100 100 100 100 100 100 100 100 100 100 100 100 100 100 100 100 100
100 100 100 100 100 100 100 100 100 100 100 100 51 100 100 44 75 78 59 74 17 70 100 100 100 97 99 100 100 100 100 100 100 100 100 100 100 100 83 100 100 100 93
100 100 100 100 100 100 100 100 100 100 100 100 98 91 99 60 69 100 100 100 64 94 100 83 97 100 100 100 100 100 100 100 100 84 96 100 100 100 100 100 100 100 68
100 100 100 100 100 100 100 100 100 100 48 94 100 92 99 92 90 100 100 98 97 100 100 100 100 100 100 100 100 100 100 100 100 100 100 100 100 100 100 100 100 100 100
100 100 100 100 100 100 100 100 100 100 100 100 100 100 97 100 100 100 100 100 100 100 100 100 100 100 100 100 100 99 100 100 76 100 100 100 100 100 100 100 100 100 100
100 100 100 100 100 100 100 100 100 100 100 100 100 100 100 100 100 100 100 100 100 100 100 100 100 100 100 100 100 100 100 100 100 100 100 100 100 100 100 100 100 100 100
100 100 100 100 100 100 100 100 100 100 100 100 100 100 100 100 100 100 100 100 100 100 100 100 100 100 100 100 100 100 100 100 100 100 100 100 100 100 99 100 100 100 100
100 100 100 100 100 100 100 100 100 100 100 100 100 100 100 100 100 100 100 100 100 100 100 100 100 100 100 100 100 100 100 100 100 100 100 100 100 98 100 94 100 100 100
100 100 100 100 100 100 100 100 100 100 100 100 100 100 100 100 100 100 100 100 100 100 100 100 100 100 100 100 100 100 100 100 100 100 100 100 100 100 100 100 100 97 65
100 100 100 100 100 100 100 100 100 100 100 100 100 100 100 100 100 100 100 100 100 100 100 100 100 100 100 100 100 100 100 100 100 100 100 100 100 92 100 97 98 92 97
100 100 100 100 100 100 100 100 100 100 100 100 100 100 100 100 100 100 100 100 100 100 100 100 100 100 100 100 100 100 100 100 100 100 100 100 100 96 98 100 100 100 100
100 100 100 100 100 100 100 100 100 42 46 98 100 95 100 83 100 100 100 100 100 100 100 100 100 100 100 100 100 100 100 100 100 100 100 100 100 91 100 98 90 100 100
100 88 99 100 100 100 100 100 98 37 47 100 100 98 100 100 100 100 100 100 100 100 100 100 99 100 96 100 100 98 93 100 100 100 95 100 100 97 95 100 100 100 100
55 56 71 99 100 99 93 67 15 99 100 100 100 100 100 100 100 100 100 100 100 100 100 45 82 100 84 100 96 87 100 100 100 100 84 97 100 95 100 100 100 100 100
64 97 53 99 100 100 100 100 100 100 100 100 100 100 100 94 76 25 9 15 40 84 100 100 53 64 35 5 32 13 22 97 93 94 99 83 64 96 97 100 100 100 97
100 100 100 98 60 97 96 100 100 100 100 100 100 100 78 65 63 66 56 5 5 22 71 98 51 57 61 75 29 36 21 5 7 79 100 100 99 100 100 100 100 98 100
100 100 100 100 100 100 98 100 100 100 100 100 100 100 100 100 100 71 83 6 66 99 100 100 100 100 100 100 100 100 96 100 99 100 16 35 39 78 91 100 100 100 100
100 100 100 76 86 100 72 47 85 100 100 100 100 100 100 68 83 78 84 86 79 93 85 94 100 100 100 100 100 100 100 100 100 100 92 44 100 100 93 98 87 100 100
100 100 100 100 100 100 99 100 100 100 100 100 100 100 100 99 100 95 73 81 77 62 69 75 100 100 100 100 100 100 100 100 100 100 100 100 100 100 100 100 100 100 100
100 100 100 100 100 100 100 100 100 100 100 100 100 100 100 100 100 100 100 100 100 100 100 100 100 100 100 100 100 100 100 100 100 100 100 100 100 100 100 100 100 100 100
100 100 100 100 100 100 100 100 100 100 100 100 100 100 100 100 100 100 100 100 100 100 100 100 100 100 100 100 100 100 100 100 100 100 100 100 100 100 100 100 100 100 100
100 100 100 100 100 100 100 100 100 100 100 100 100 100 100 100 100 100 100 100 100 100 100 100 100 100 100 100 100 100 100 100 100 100 100 100 100 100 100 100 100 100 100

GFSMA_prec_cloud_096.txt.gz
Cloud_Cover
97 83 95 99 100 99 100 100 100 100 100 100 100 100 100 88 100 68 58 100 100 100 95 99 80 100 100 100 88 73 100 100 100 100 100 100 100 100 100 87 100 100 100
99 68 57 85 94 100 100 100 100 100 100 100 100 100 100 100 100 88 92 100 100 67 100 100 100 100 100 100 100 100 100 100 100 100 100 100 100 100 100 100 100 100 100
94 98 98 91 92 100 100 100 100 100 100 100 100 100 100 100 100 65 94 100 100 100 53 70 87 100 100 100 100 100 100 100 100 100 100 100 100 100 100 100 100 100 96
93 86 99 100 100 100 100 100 100 100 100 100 100 100 100 94 7 60 100 100 100 100 91 100 100 98 100 100 100 100 100 100 100 100 100 100 100 100 100 100 100 99 96
96 100 100 100 100 100 100 100 100 100 100 100 100 100 100 100 100 79 94 100 100 86 65 95 93 100 100 100 100 100 99 100 100 100 100 100 100 100 100 100 100 100 100
100 100 100 100 100 100 100 100 100 100 100 100 100 100 100 100 100 100 100 100 100 97 86 97 100 68 100 69 100 100 100 100 100 100 100 100 100 100 100 100 100 100 100
100 100 100 100 100 100 100 100 100 100 100 100 100 100 100 100 100 100 100 100 90 78 76 10 10 71 61 38 30 100 100 100 100 100 100 100 100 100 100 100 100 100 100
100 100 100 100 100 100 100 100 100 100 100 100 100 100 100 100 100 100 100 95 54 81 49 92 58 100 100 100 100 100 100 100 100 100 100 100 100 100 100 100 100 100 100
100 100 100 100 100 100 100 100 100 100 100 100 100 100 100 97 100 98 100 100 88 100 100 100 100 100 100 100 95 100 100 100 100 100 100 100 100 100 100 100 100 100 100
100 100 100 100 100 100 100 100 100 100 100 100 100 100 100 100 93 92 100 100 100 100 100 100 100 100 100 100 100 100 100 100 100 100 100 100 100 100 100 100 100 100 100
100 100 100 100 100 100 100 100 100 100 100 100 100 95 100 100 87 98 100 67 80 100 100 100 100 100 100 100 100 100 100 100 100 100 100 100 100 100 100 100 100 100 100
100 100 100 100 100 100 100 100 100 100 100 100 100 100 100 100 100 100 96 100 100 100 100 100 100 100 100 100 100 100 100 100 100 100 100 100 100 100 100 100 100 100 100
100 100 100 100 100 100 100 100 100 100 100 100 100 100 100 100 100 100 100 100 100 100 100 100 100 100 100 100 100 100 100 100 100 100 100 100 100 100 100 100 100 100 100
100 100 100 100 100 100 100 100 100 100 100 100 100 100 100 100 100 100 100 100 100 100 100 100 100 100 100 100 100 100 100 100 100 100 100 100 100 100 100 100 100 100 41
100 100 100 100 100 100 100 100 100 100 100 100 100 100 100 100 100 100 100 100 100 100 100 100 100 100 100 100 100 100 100 100 100 100 100 100 100 100 100 100 88 100 100
97 100 100 100 100 100 100 100 100 100 100 100 100 100 100 100 100 100 100 100 100 100 100 100 100 100 100 100 100 100 100 100 100 100 100 100 100 100 87 97 99 100 100
100 99 100 100 100 100 100 100 100 100 100 100 100 100 100 78 83 67 82 96 100 98 90 99 94 91 93 89 14 56 32 35 54 99 100 100 100 99 100 100 71 19 82
100 100 96 100 100 90 100 100 100 100 100 59 11 100 100 100 43 88 100 92 55 93 100 100 100 100 97 67 18 87 33 52 46 6 88 100 100 100 100 100 65 26 87
80 96 95 94 100 100 100 100 94 44 61 67 71 95 100 94 100 55 71 100 100 100 100 94 14 33 29 20 18 5 5 5 5 5 22 81 72 90 25 46 98 88 60
100 100 100 100 99 98 100 100 100 96 99 98 100 100 100 100 100 100 100 43 55 88 100 100 31 35 40 5 18 5 5 5 21 70 62 95 77 73 83 83 41 88 61
100 100 100 100 100 100 100 100 100 100 100 100 100 100 100 100 100 100 90 36 66 74 72 96 100 70 25 60 70 8 65 98 98 97 74 39 43 20 31 52 86 100 5
100 100 100 100 100 100 100 100 100 100 100 100 100 76 46 38 56 99 100 100 100 100 100 100 100 100 70 100 100 70 75 100 99 100 100 82 98 97 100 100 100 100 96
100 100 100 100 100 100 100 98 79 64 96 100 100 100 100 100 100 100 100 100 100 100 100 100 100 100 100 100 100 100 100 100 100 100 100 100 100 100 100 100 100 100 100
100 100 100 100 100 100 100 100 100 100 100 100 100 100 100 100 100 100 100 100 100 100 100 100 100 100 100 100 100 100 100 100 100 100 100 100 100 100 100 100 100 100 100
100 100 100 100 100 100 100 100 100 100 100 100 100 100 100 100 100 100 100 100 100 100 100 100 100 100 100 100 100 100 100 100 100 100 100 100 100 100 100 100 100 100 100
100 100 100 100 100 100 100 100 100 100 100 100 100 100 100 100 100 100 100 100 100 100 100 100 100 100 100 100 100 100 100 100 100 100 100 100 100 100 100 100 100 100 100

GFSMA_prec_cloud_099.txt.gz
Cloud_Cover
24 5 76 99 87 44 100 99 86 100 100 100 100 100 100 100 100 100 100 100 88 100 100 100 31 100 34 100 100 100 98 100 90 77 96 100 100 100 100 100 100 100 100
22 42 84 52 64 39 100 100 100 100 100 100 100 100 100 100 100 100 100 93 18 100 100 100 89 31 50 100 100 100 87 92 100 100 100 100 100 100 100 100 100 100 100
79 100 78 33 44 13 71 100 100 100 100 100 100 100 100 100 100 100 100 98 38 100 100 100 96 30 94 100 100 100 100 100 100 100 100 100 100 100 100 100 100 100 100
33 98 23 100 100 53 78 98 100 100 100 100 100 100 100 100 100 100 100 95 97 100 96 100 100 41 17 100 100 100 100 100 100 100 100 100 100 100 100 100 100 100 100
39 97 54 98 97 70 91 67 100 100 100 100 100 100 100 100 100 100 100 72 42 100 100 96 100 71 72 52 100 100 100 100 100 100 100 100 100 100 100 100 100 100 100
73 79 91 99 92 96 85 95 100 100 100 100 100 100 100 100 100 92 40 9 89 100 100 100 100 100 86 99 96 100 77 100 72 98 100 100 100 100 100 100 100 100 100
33 77 86 100 100 100 96 100 100 100 100 100 100 100 100 100 100 99 80 98 100 100 100 100 100 89 88 95 65 93 100 100 100 100 100 100 100 100 100 100 100 100 100
46 52 81 100 100 100 100 100 100 100 100 100 100 100 100 100 100 100 100 100 100 100 100 53 94 93 64 99 100 100 100 100 100 100 100 100 100 100 100 100 100 100 100
90 100 100 100 100 100 100 100 100 100 100 100 100 100 100 100 100 100 100 100 100 98 58 71 59 97 98 100 100 100 100 100 100 100 100 100 100 100 100 100 100 100 100
99 100 100 100 100 100 100 100 100 100 100 100 100 100 100 100 100 100 100 100 100 100 84 86 60 98 100 100 100 100 100 100 100 100 100 100 100 100 100 100 100 100 100
100 100 100 100 100 100 100 100 100 100 100 100 100 100 100 100 100 100 100 100 83 76 55 90 59 53 97 100 100 100 100 100 100 100 100 100 100 100 100 100 100 100 100
100 100 100 100 100 100 100 100 100 100 100 100 100 100 100 100 100 100 100 71 71 80 75 11 76 98 100 100 100 100 100 100 100 100 100 100 100 100 100 100 100 100 100
100 100 100 100 100 100 100 100 100 100 100 100 100 100 100 100 100 100 99 85 91 94 92 80 77 100 100 100 100 100 100 100 100 100 100 100 100 100 100 100 100 100 100
100 100 100 100 100 100 100 100 100 100 100 100 100 100 100 100 100 100 100 100 100 100 100 100 100 100 100 100 100 100 100 100 100 100 100 100 100 100 100 100 100 100 100
100 100 100 100 100 100 100 100 100 100 100 100 100 100 100 100 100 100 100 100 100 100 100 100 100 100 100 100 100 100 100 100 100 100 100 100 100 100 100 100 100 100 100
100 100 100 100 100 100 100 100 100 100 100 100 100 100 100 100 100 100 100 100 100 100 100 100 100 100 100 100 100 100 100 100 100 100 99 100 99 94 80 97 74 38 6
100 100 100 100 100 100 100 100 100 100 100 100 100 100 100 100 100 100 100 100 100 100 54 77 8 92 66 100 100 99 100 72 19 100 100 97 92 48 18 8 73 97 94
96 100 100 100 100 100 100 100 100 100 100 100 100 100 100 100 100 100 100 100 77 100 93 63 5 10 100 47 62 77 8 81 5 5 5 5 6 8 21 19 15 5 56
100 100 86 100 100 100 100 100 100 100 100 100 100 100 100 100 100 65 100 6 17 32 5 31 13 78 19 5 5 5 5 5 5 5 5 5 5 6 5 5 13 73 100
82 91 98 93 97 100 100 93 100 100 100 100 100 97 100 39 100 78 95 100 97 78 99 91 11 42 15 4 5 5 28 5 6 20 22 5 5 5 5 10 93 100 98
100 81 99 91 99 99 100 100 100 97 65 46 52 96 80 98 100 100 100 100 100 100 100 100 100 100 38 43 40 32 79 52 65 59 43 60 73 90 100 100 99 99 85
100 100 100 100 100 100 100 100 100 100 100 100 100 100 100 100 100 100 100 100 100 100 100 100 99 55 65 44 52 100 100 100 100 99 100 100 100 100 100 100 99 100 100
100 100 100 100 100 100 100 100 100 100 100 100 100 100 98 100 100 99 93 93 99 100 100 100 100 100 100 100 100 100 100 100 100 100 100 100 100 100 100 100 100 100 100
100 100 100 100 100 100 100 100 100 98 100 100 100 100 100 100 100 100 100 100 100 100 100 100 100 100 100 100 100 100 100 100 100 100 100 100 100 100 100 100 100 100 100
100 100 100 100 100 100 100 100 100 100 100 100 100 100 100 100 100 100 100 100 100 100 100 100 100 100 100 100 100 100 100 100 100 100 100 100 100 100 100 100 100 100 100
100 100 100 100 100 100 100 100 100 100 100 100 100 100 100 100 100 100 100 100 100 100 100 100 100 100 100 100 100 100 100 100 100 100 100 100 100 100 100 100 100 100 100

GFSMA_prec_cloud_102.txt.gz
Cloud_Cover
16 0 2 58 21 13 89 31 10 98 100 100 100 100 100 100 100 100 100 100 100 100 79 100 100 100 100 87 100 96 100 100 40 94 89 100 100 100 100 100 100 100 100
0 0 0 22 28 38 99 56 80 100 100 100 100 100 100 100 100 100 100 100 100 100 95 98 100 100 100 100 100 100 100 100 100 100 99 100 100 100 100 100 100 100 100
0 0 0 0 0 4 11 24 91 100 100 100 100 100 100 100 100 100 100 100 100 100 94 98 100 100 100 38 64 100 100 100 100 100 100 100 100 100 100 100 100 100 100
0 26 100 100 4 2 5 26 56 100 100 100 100 100 100 100 100 100 100 100 100 100 99 67 94 100 100 56 66 69 100 100 100 100 100 100 100 100 100 100 100 100 100
4 3 49 2 11 41 30 42 63 100 100 100 100 100 100 100 100 100 100 100 100 100 80 100 100 100 98 68 98 71 100 100 100 100 100 100 100 100 100 100 100 100 100
0 6 29 3 21 15 57 58 74 89 95 100 100 100 100 100 100 100 100 100 100 100 67 77 100 100 99 100 99 100 86 72 98 99 100 100 90 96 100 100 100 100 100
0 6 43 5 5 99 91 81 100 82 97 100 100 100 100 100 100 100 100 100 100 93 36 100 100 100 100 74 100 99 100 100 97 59 100 100 100 92 98 100 100 100 100
0 0 17 72 60 93 96 73 100 93 96 100 100 100 100 100 100 100 100 100 98 100 37 99 97 77 100 99 100 100 100 99 100 100 100 100 100 100 100 100 100 100 100
0 0 18 96 98 88 100 100 100 100 100 100 100 100 100 100 100 100 100 100 100 100 100 100 100 100 99 100 89 100 100 100 100 100 100 100 100 100 100 100 100 100 100
6 52 71 89 100 99 100 100 100 100 100 100 100 100 100 100 100 100 100 100 100 100 100 100 100 100 100 100 79 96 100 100 100 100 100 100 100 100 100 100 100 100 100
93 100 100 100 100 100 100 100 100 100 100 100 100 100 100 100 100 100 100 100 100 100 100 100 100 95 97 98 100 100 99 94 100 100 100 100 100 100 98 100 100 100 100
98 100 100 100 100 100 100 100 100 100 100 100 100 100 100 100 100 100 100 100 100 100 100 100 99 90 95 100 97 96 100 100 82 100 100 100 100 100 100 100 100 100 100
98 100 97 100 100 100 100 100 100 100 100 100 100 100 100 100 100 100 100 100 100 100 100 100 95 91 95 97 100 78 78 89 81 94 97 100 100 100 100 100 100 100 100
100 100 100 100 100 100 100 100 100 100 100 100 100 100 100 100 100 100 100 100 99 100 100 99 100 100 100 96 100 69 98 100 100 100 100 100 100 100 100 100 100 100 100
100 68 100 100 100 100 100 100 100 100 100 100 100 100 100 100 100 100 100 100 100 100 100 100 100 100 96 100 100 100 100 100 100 100 100 100 99 93 62 86 80 83 81
100 100 98 100 100 100 100 100 100 100 100 100 100 100 100 100 100 100 100 100 100 100 100 96 100 100 100 100 100 76 66 78 76 93 100 89 62 36 23 72 63 18 82
76 98 97 100 100 100 100 100 100 100 100 100 100 100 100 97 100 100 100 100 100 100 100 100 100 100 100 94 73 99 75 97 89 13 8 89 81 71 53 5 60 62 44
39 96 100 100 100 100 100 100 100 100 100 100 100 100 100 100 100 100 100 100 100 100 100 100 100 100 59 100 89 40 61 33 7 5 5 5 50 100 100 100 100 99 97
100 94 100 100 100 100 100 100 100 100 100 100 100 100 100 100 100 100 100 100 100 100 100 100 99 39 4 13 15 8 10 6 10 32 95 76 5 12 81 100 100 100 100
100 91 80 93 100 100 100 100 100 100 100 100 100 100 100 100 100 100 100 100 100 100 100 83 5 5 5 36 79 92 59 76 100 95 92 84 79 95 100 100 99 100 100
100 100 100 92 96 100 100 100 100 100 100 100 100 100 100 100 100 100 100 100 100 97 16 99 98 100 98 100 100 100 79 88 80 98 100 100 100 100 100 100 100 100 100
100 100 100 100 100 100 100 100 100 100 100 100 100 100 100 100 100 100 100 99 100 100 100 100 100 100 100 100 92 98 100 100 100 92 100 100 100 100 100 100 100 100 100
100 100 100 100 100 100 100 100 100 100 100 100 100 100 100 100 100 100 100 100 100 100 100 100 100 100 100 100 100 99 100 100 100 100 100 100 100 100 100 100 100 100 100
100 100 100 100 100 100 100 100 100 100 100 100 100 100 100 100 100 100 100 100 100 100 100 100 100 100 100 100 100 100 100 100 100 100 100 100 100 100 100 100 100 100 100
100 100 100 100 100 100 100 100 100 100 100 100 100 100 100 100 100 100 100 100 100 100 100 100 100 100 100 100 100 100 100 100 100 100 100 95 100 100 100 100 100 100 100
100 100 100 100 100 100 100 100 100 100 100 100 100 100 100 100 100 100 100 100 100 100 100 100 100 100 100 100 100 100 100 75 96 100 99 88 100 100 100 100 100 100 100

GFSMA_prec_cloud_105.txt.gz
Cloud_Cover
0 0 5 100 69 90 26 30 30 68 88 100 100 100 100 100 100 100 100 100 100 100 100 100 100 16 100 100 100 100 100 100 100 100 98 100 100 100 100 100 100 100 100
0 0 0 13 100 76 6 5 97 100 97 95 100 100 100 100 100 100 100 100 100 100 100 100 95 100 100 100 100 93 92 86 100 100 100 100 100 100 100 100 100 100 100
0 0 0 2 3 12 9 5 71 100 100 99 100 100 100 100 100 100 100 100 96 100 100 100 100 100 100 100 100 20 82 100 100 100 100 100 100 100 100 100 100 100 100
6 100 4 0 0 22 1 17 58 100 79 99 90 100 100 100 100 100 100 100 100 100 100 100 100 100 100 94 64 43 43 30 100 100 100 100 100 100 100 100 100 100 100
2 0 0 0 0 14 32 75 100 96 79 80 100 100 100 100 100 100 100 100 100 100 100 100 100 100 100 80 100 74 96 26 37 50 100 100 100 100 100 100 100 100 100
0 15 14 11 10 13 46 96 79 69 92 76 98 75 100 100 100 100 100 100 89 100 100 100 100 97 99 68 100 100 82 26 100 100 94 75 94 100 100 99 100 100 100
0 10 16 11 7 6 44 41 88 54 100 75 69 100 100 100 100 100 100 100 100 100 100 100 100 100 65 96 100 100 100 66 100 86 96 8 94 100 100 100 100 100 100
0 16 22 26 25 40 40 77 49 99 94 70 71 100 100 100 100 100 100 100 98 100 100 100 100 100 41 39 100 99 100 100 100 100 100 100 99 96 100 100 100 100 100
4 0 0 16 47 63 89 100 74 100 100 100 91 100 100 100 100 100 100 100 100 100 100 100 100 100 100 92 100 100 100 100 100 100 100 100 100 100 100 100 100 100 100
1 0 21 20 50 95 100 72 100 100 100 100 100 100 100 100 100 100 100 100 100 100 100 100 100 100 100 100 100 100 100 100 100 100 100 100 100 100 100 100 100 100 100
93 35 38 99 49 100 100 89 100 100 100 100 100 100 100 100 100 100 100 100 100 100 100 100 100 100 100 100 100 95 68 95 32 100 100 100 98 100 100 100 100 100 100
93 84 100 100 100 100 100 100 100 100 100 100 100 100 100 100 100 100 100 100 100 100 100 100 100 100 100 100 100 100 100 100 100 100 100 100 100 100 100 100 100 100 100
89 100 100 100 100 100 100 100 100 100 100 100 100 100 100 100 100 100 100 100 100 100 100 100 100 100 100 100 100 100 100 72 100 93 78 100 100 100 100 100 100 100 100
93 100 98 100 100 96 100 100 100 100 100 100 100 100 100 100 100 100 100 100 100 100 100 100 100 100 100 100 100 100 100 100 100 100 100 100 100 100 100 99 99 78 47
91 26 100 100 96 100 100 100 100 100 100 100 100 100 100 100 100 100 100 100 97 94 100 100 100 100 100 100 100 100 100 97 100 100 100 100 100 100 100 100 100 100 100
8 100 100 100 100 100 100 100 100 100 100 100 100 100 100 100 100 100 100 97 100 100 99 100 100 97 100 100 100 100 100 100 100 99 100 96 100 100 100 100 100 100 100
38 99 100 100 100 100 100 100 100 100 100 100 100 100 100 100 100 100 100 100 100 100 100 100 100 100 100 100 97 100 100 82 93 86 98 99 86 100 100 100 100 100 100
72 100 100 100 100 95 100 100 100 100 100 100 100 100 100 100 100 100 100 100 100 100 100 100 100 100 100 94 100 100 100 98 18 5 12 96 99 100 100 100 99 100 68
100 100 100 100 100 88 100 100 100 100 100 100 100 100 100 100 100 100 100 100 100 100 100 100 100 100 100 100 100 100 100 100 98 97 97 97 100 100 100 99 100 89 75
100 100 97 100 100 100 81 100 100 100 100 100 100 100 100 100 100 100 100 100 100 100 100 100 100 100 100 100 100 97 92 72 60 89 69 100 100 100 100 100 100 100 96
100 100 100 100 100 100 100 100 100 100 100 100 100 100 100 100 100 100 100 100 100 100 100 100 100 100 100 100 92 100 90 94 100 100 100 100 100 100 100 100 100 100 100
100 100 100 100 100 100 100 100 100 100 100 100 100 100 100 100 100 100 100 100 100 100 100 100 100 100 74 100 100 100 100 100 92 73 87 100 100 100 100 100 100 100 100
100 100 100 100 100 100 100 100 100 100 100 100 100 100 100 100 100 100 100 100 100 100 100 100 100 100 100 100 100 100 100 100 100 100 100 100 100 100 100 100 100 100 100
100 100 100 100 100 100 100 100 100 100 100 100 100 100 100 100 100 100 100 100 100 100 100 100 100 100 100 100 100 100 100 100 100 100 100 100 100 100 100 100 100 100 100
100 100 100 100 100 100 100 100 100 100 100 100 100 100 100 100 100 100 100 100 100 100 100 100 100 100 100 100 100 100 100 100 100 100 100 100 100 100 100 100 100 100 100
100 100 100 100 100 100 100 100 100 100 100 100 100 100 100 100 100 100 100 100 100 100 100 100 100 100 100 100 100 100 100 100 100 100 100 80 100 100 97 100 100 100 98

GFSMA_prec_cloud_108.txt.gz
Cloud_Cover
100 58 67 94 82 36 11 35 33 32 23 49 70 100 100 100 100 100 100 100 100 100 100 100 100 100 100 100 94 100 100 100 100 100 100 100 100 100 100 100 100 100 100
41 22 51 53 54 34 12 9 19 40 32 97 39 32 100 100 100 100 100 100 100 100 100 100 100 100 100 66 100 100 100 100 100 100 100 100 100 100 100 100 100 100 88
1 1 23 40 14 20 98 38 35 63 53 99 86 57 100 100 100 100 100 100 100 100 100 100 99 100 100 91 100 100 100 93 100 96 99 90 100 100 100 100 100 100 100
0 1 12 16 24 26 27 33 69 100 99 93 88 83 86 100 100 100 100 100 100 100 100 100 100 100 100 100 100 100 98 100 100 100 98 65 100 100 76 96 100 100 100
0 3 7 0 0 6 13 42 91 87 100 100 100 80 97 100 100 100 100 100 100 100 99 100 100 100 100 100 100 100 98 100 100 98 10 98 92 84 100 100 100 100 100
27 1 14 3 2 19 60 95 95 100 100 100 100 83 88 100 100 100 100 100 100 100 100 100 100 100 100 100 97 73 100 100 100 100 100 100 100 98 50 78 88 100 100
33 34 9 7 15 27 78 100 100 100 100 100 99 100 100 100 100 100 100 100 100 100 100 100 100 100 100 100 100 100 100 100 100 100 100 100 100 100 100 78 80 84 100
28 45 41 39 46 49 81 100 100 100 100 100 55 100 100 100 100 100 100 100 100 100 100 97 100 100 100 100 100 100 98 100 100 100 100 100 100 100 100 100 100 100 100
37 39 58 51 49 76 74 100 100 100 100 100 95 99 100 100 100 100 100 100 100 100 100 100 100 100 100 100 100 100 100 100 100 100 100 100 100 100 98 100 100 100 100
45 50 51 56 56 94 100 100 100 100 99 100 94 83 100 100 100 100 100 100 100 100 100 100 100 100 97 100 100 100 100 100 100 100 94 100 100 97 100 100 100 100 100
99 100 97 36 56 84 78 99 100 100 100 74 98 100 100 100 100 100 100 100 100 100 100 100 100 100 100 100 100 100 100 100 100 100 100 100 100 97 97 100 95 100 100
72 62 100 93 52 98 100 100 100 100 100 100 100 100 100 100 100 100 100 100 100 100 100 100 100 100 100 100 100 96 100 100 100 100 100 100 100 100 100 100 89 95 100
100 100 100 100 96 100 100 92 100 100 100 100 100 100 100 100 100 100 100 100 100 100 100 100 100 100 100 100 100 100 100 100 100 100 100 100 100 100 89 90 91 67 96
100 95 100 100 100 100 100 100 100 100 100 100 100 100 100 100 100 100 100 100 100 100 100 100 100 100 100 100 100 100 100 100 100 94 100 100 97 98 100 98 99 91 100
100 100 100 100 100 100 100 100 100 100 100 100 100 100 100 100 100 100 100 100 100 100 100 100 100 100 100 100 100 100 100 100 100 100 100 97 71 75 100 96 90 100 100
100 100 100 99 75 100 94 97 100 100 100 100 100 100 100 100 100 100 100 100 100 100 100 100 100 100 100 100 100 96 100 100 100 88 10 89 93 100 94 98 100 86 100
100 100 100 64 100 100 100 100 100 100 100 100 100 100 100 100 100 100 100 100 100 100 100 100 100 100 100 100 100 100 100 100 99 100 100 100 100 100 100 100 82 73 31
100 100 100 74 100 100 100 100 100 100 100 100 100 100 100 100 100 100 100 100 100 100 100 100 100 100 100 100 100 100 100 97 97 97 100 100 100 88 91 45 80 19 5
100 100 100 94 100 100 100 100 100 100 100 100 100 100 100 100 100 100 100 100 100 100 100 100 100 100 100 100 100 100 100 99 100 100 100 100 48 54 97 98 78 80 56
100 100 99 100 100 100 100 100 100 100 100 100 100 100 100 100 100 100 100 100 100 100 100 100 100 100 100 100 100 100 100 100 100 100 100 100 100 100 100 100 100 100 100
90 100 100 100 100 100 100 100 100 100 100 100 100 100 100 100 100 100 100 100 100 100 100 100 100 88 95 100 100 100 100 100 100 100 100 100 100 98 100 96 100 100 100
100 100 100 100 100 100 100 100 100 100 100 100 100 100 100 100 100 100 100 100 100 100 100 100 100 100 100 100 100 100 100 100 100 100 100 100 100 100 100 100 100 100 100
100 100 100 100 100 100 100 100 100 100 100 100 100 100 100 100 100 100 100 100 100 100 100 100 100 100 100 100 100 100 100 100 100 100 100 100 100 100 100 100 100 100 100
100 100 100 100 100 100 100 100 100 100 100 100 100 100 100 100 100 100 100 100 100 100 100 100 100 100 100 100 100 100 100 100 100 100 100 100 100 100 100 100 100 100 100
100 100 100 100 100 100 100 100 100 100 100 100 100 100 100 100 100 100 100 100 100 100 100 100 100 100 100 100 100 100 100 100 100 100 100 100 100 100 100 100 100 100 100
100 100 100 100 100 100 100 100 100 100 100 100 100 100 100 100 100 100 100 100 100 100 100 100 100 100 100 100 100 100 100 100 100 100 100 100 100 100 100 100 100 100 100

GFSMA_prec_cloud_111.txt.gz
Cloud_Cover
59 100 100 100 100 98 48 47 31 28 10 1 1 5 29 100 100 100 100 100 100 100 100 100 100 100 79 96 100 100 100 100 100 100 100 100 100 100 100 100 100 98 100
100 100 100 100 100 78 37 29 26 25 27 24 31 70 24 99 100 100 100 100 100 100 100 100 100 100 38 78 97 100 100 100 100 100 100 100 100 100 100 100 14 72 97
100 90 100 100 100 72 29 31 34 54 47 37 44 57 99 90 100 100 100 100 100 100 100 100 100 100 87 100 100 100 100 100 100 100 100 100 100 100 100 50 74 61 98
54 54 82 98 74 71 38 47 40 65 98 97 57 32 100 100 100 100 100 100 100 100 100 100 100 100 95 100 100 100 100 100 100 100 100 71 100 100 97 76 35 24 20
16 19 43 50 63 76 86 80 81 23 99 100 100 55 81 42 71 100 100 100 100 100 100 100 100 100 100 100 100 100 100 100 100 100 100 98 100 100 84 100 100 100 83
30 24 32 34 55 74 91 90 81 100 80 100 100 100 100 62 64 100 100 100 100 100 100 100 100 100 100 100 100 100 100 100 100 100 100 100 84 98 100 100 100 74 63
33 41 46 32 52 70 85 78 83 96 100 100 100 100 100 69 99 100 100 100 100 100 100 100 100 100 100 100 100 100 100 100 100 100 100 100 100 100 100 88 62 74 96
25 42 44 54 56 83 81 99 94 100 100 100 100 100 100 100 100 100 100 100 100 100 100 100 100 100 100 100 100 100 100 100 100 100 100 100 100 62 77 91 100 76 97
73 58 46 85 74 87 100 100 100 100 100 100 84 100 100 100 100 100 100 100 100 100 100 100 100 100 99 100 100 100 100 100 100 100 100 100 100 100 98 48 94 74 48
61 97 99 66 97 100 100 100 100 100 100 100 98 100 77 82 100 100 100 100 100 100 100 100 100 100 100 100 100 100 100 100 100 100 100 100 100 89 98 90 61 97 97
75 94 100 100 100 100 94 95 100 100 100 100 100 100 100 100 100 100 100 100 100 100 100 100 100 100 100 100 100 100 100 100 100 100 100 100 98 100 100 41 99 100 100
100 96 100 100 100 100 100 100 89 100 100 100 100 100 100 98 96 100 100 80 100 100 100 100 100 100 100 100 100 100 100 100 100 100 100 100 100 100 100 34 88 78 36
100 100 79 100 100 100 100 99 100 100 100 100 100 100 100 100 100 100 100 100 100 100 100 100 100 100 100 100 100 100 100 100 100 100 86 100 91 100 100 98 27 100 56
100 100 97 58 70 100 100 100 100 100 99 96 100 100 100 100 100 100 100 100 100 100 100 100 100 100 100 100 100 100 100 100 100 100 100 100 100 100 99 62 9 62 67
100 100 100 97 87 100 100 100 100 100 100 100 100 100 100 100 100 100 100 100 100 100 100 100 100 100 100 100 100 100 100 100 100 100 100 100 100 100 98 8 17 71 66
100 100 100 70 99 100 100 100 100 100 100 100 100 100 100 100 100 100 100 100 100 100 100 100 100 100 100 100 100 100 100 100 100 100 97 100 100 98 5 5 92 97 100
100 100 100 100 100 100 100 100 100 100 100 100 100 100 100 100 100 100 100 100 100 100 100 100 100 100 100 100 100 100 100 100 100 100 100 100 98 89 64 83 80 100 100
97 100 100 100 100 88 100 100 100 100 100 100 100 100 100 100 100 100 100 100 100 100 100 100 100 100 100 100 100 100 100 100 100 100 100 100 100 100 73 98 97 100 100
100 100 100 100 100 100 97 100 100 100 100 100 100 100 100 100 100 100 100 100 100 100 100 100 100 100 100 100 100 100 100 100 100 100 100 100 100 100 100 100 100 100 90
100 100 100 100 100 100 100 100 100 100 100 100 100 100 100 100 100 100 100 100 100 100 100 100 100 100 100 100 100 100 100 100 100 100 92 89 100 100 100 100 100 100 88
100 100 100 100 100 100 100 100 100 100 100 100 100 100 100 100 100 100 100 100 100 100 100 100 100 100 100 100 100 100 100 100 100 100 100 100 100 100 100 100 100 100 94
100 100 100 100 100 100 100 100 100 100 100 100 100 98 100 100 100 100 100 100 100 100 100 100 100 100 100 100 100 100 100 100 100 100 100 100 100 100 100 100 100 100 100
100 100 100 100 100 100 100 100 100 100 100 100 100 100 100 100 100 100 100 100 100 100 100 100 100 100 100 100 100 100 100 100 100 100 100 100 100 100 100 100 100 100 100
100 100 100 100 100 100 100 100 100 100 100 100 100 100 100 100 100 100 100 100 100 100 100 100 100 100 100 100 100 100 100 100 100 100 100 100 100 100 100 100 100 100 100
100 100 100 100 100 100 100 100 100 100 100 100 100 100 100 100 100 100 100 100 100 100 100 100 100 100 100 100 100 100 100 100 100 100 100 100 100 100 100 100 100 100 100
100 100 100 100 100 100 100 100 100 100 100 100 100 100 100 100 100 100 100 100 100 100 100 100 100 100 100 100 100 100 100 100 100 100 100 100 100 100 100 100 100 100 100

GFSMA_prec_cloud_114.txt.gz
Cloud_Cover
100 100 74 77 100 79 76 53 35 25 11 2 0 0 15 25 82 100 100 100 100 100 100 100 100 100 100 93 32 44 100 100 100 100 100 100 100 100 100 100 100 100 100
100 100 100 100 100 100 73 35 34 32 37 16 3 0 0 17 24 100 100 100 100 100 100 100 100 100 100 95 100 100 100 100 100 100 100 100 100 100 100 100 100 54 100
100 100 100 100 100 100 44 37 36 34 60 90 3 6 1 16 28 88 100 100 100 100 100 100 100 100 100 94 100 100 100 100 100 100 100 100 100 100 100 100 49 61 27
100 100 100 100 100 100 56 43 96 98 43 78 47 24 28 33 32 53 100 100 100 100 100 100 100 100 100 100 100 100 98 100 100 100 100 100 100 100 100 100 80 100 100
95 99 100 100 100 100 98 78 97 57 66 55 100 60 33 44 83 73 98 100 100 100 100 100 100 100 100 100 100 100 100 100 100 100 100 100 100 100 100 95 100 100 96
100 65 96 100 100 100 100 100 100 100 21 28 81 100 100 94 100 100 100 100 100 100 100 100 100 100 100 100 100 100 100 100 100 100 100 100 100 100 100 95 100 96 77
68 53 100 92 100 100 100 100 100 100 100 100 100 100 100 100 100 100 100 100 100 100 100 100 100 100 100 100 100 100 100 100 100 100 100 100 100 100 100 100 100 100 41
52 59 85 99 100 100 100 100 100 100 100 100 100 100 100 100 100 100 100 100 100 100 100 100 100 100 100 100 100 100 100 100 100 100 100 100 100 100 100 99 94 31 16
58 57 82 96 100 100 100 100 100 100 100 100 100 100 100 100 100 100 100 100 100 100 100 100 100 100 100 100 100 100 100 100 100 100 100 100 100 100 100 100 100 90 54
78 77 80 90 96 100 100 100 98 100 100 100 100 100 100 100 100 100 100 100 100 100 100 100 100 100 100 100 100 100 100 100 100 100 100 100 100 100 100 100 97 90 74
100 100 100 99 86 100 100 100 100 100 100 100 78 100 100 100 100 100 100 100 100 100 100 100 100 100 100 100 100 98 71 100 100 100 100 100 100 100 100 100 100 100 100
99 100 100 100 100 100 94 98 100 100 100 100 100 100 100 100 100 100 100 100 97 100 100 100 100 100 100 100 100 100 100 100 100 100 100 100 100 100 100 100 99 100 100
100 100 100 100 100 100 100 100 100 100 100 100 100 100 100 100 100 100 100 100 100 100 100 100 100 100 100 100 100 100 100 100 100 100 100 100 100 100 99 100 100 100 100
100 100 100 100 100 100 100 100 100 100 100 100 100 100 100 100 100 100 100 100 100 100 100 100 100 100 100 100 100 100 100 100 100 100 100 100 100 100 100 100 100 96 83
100 100 100 100 100 100 100 100 100 100 100 100 100 100 100 100 100 100 100 100 100 100 100 100 100 100 100 100 100 100 100 100 100 100 100 100 100 100 100 100 97 97 70
100 100 100 100 100 100 100 100 100 100 100 100 100 100 100 100 98 100 100 100 100 100 100 100 100 100 100 100 100 100 100 100 100 100 100 100 100 100 100 100 100 100 8
100 100 100 100 100 100 100 100 100 100 100 100 100 100 100 100 100 100 100 100 100 100 100 100 100 100 100 100 100 100 100 100 100 100 100 100 100 100 100 100 100 100 16
100 100 100 100 100 100 100 100 100 100 100 100 100 71 100 100 100 100 100 100 100 100 100 100 100 100 100 100 100 100 100 100 100 100 100 100 100 100 100 100 69 67 7
100 100 100 100 100 100 100 100 100 100 82 100 100 100 100 100 100 100 100 100 100 100 100 100 100 100 100 100 86 100 100 100 100 100 100 100 100 100 100 100 100 100 92
100 100 100 100 100 100 100 100 100 67 100 100 100 100 100 100 100 100 100 100 100 100 100 100 100 100 100 100 100 100 100 100 100 100 100 100 100 100 100 100 100 100 100
100 100 100 100 100 100 100 100 100 100 100 100 100 100 100 100 100 89 100 100 100 100 100 100 100 100 100 100 100 100 100 100 100 100 100 100 100 100 100 100 100 100 100
100 100 100 100 100 100 100 100 100 100 100 100 100 100 97 100 100 100 100 100 100 100 100 100 100 100 100 100 100 100 100 100 100 100 100 100 100 100 100 100 100 100 100
100 100 100 100 100 100 100 100 100 100 100 100 100 100 100 100 100 100 100 100 100 100 100 100 100 100 100 100 100 100 100 100 100 100 100 100 100 100 100 100 100 100 100
100 100 100 100 100 100 100 100 100 100 100 100 100 100 100 100 100 100 100 100 100 100 100 100 100 100 100 100 100 100 100 100 100 100 100 100 100 100 100 100 100 100 100
100 100 100 100 100 100 100 100 100 100 100 100 100 100 100 100 100 99 100 100 100 100 100 100 100 100 100 100 100 100 100 100 100 100 100 100 100 100 100 100 100 100 100
100 100 100 100 100 100 100 100 100 100 100 100 100 100 100 100 100 100 100 100 100 100 100 100 100 100 100 100 100 100 100 100 100 100 100 100 100 100 100 100 100 100 100

GFSMA_prec_cloud_117.txt.gz
Cloud_Cover
100 57 95 88 22 46 99 100 36 0 0 10 39 41 21 27 25 38 100 100 100 100 100 100 100 100 70 71 100 100 100 100 100 100 100 100 100 98 92 100 100 100 100
100 94 98 67 100 98 100 98 74 5 2 6 21 26 13 23 17 7 98 100 100 100 100 100 100 100 100 97 95 100 100 100 100 100 100 100 100 100 100 100 98 100 100
100 100 100 100 100 82 100 80 31 17 3 10 17 2 0 6 21 64 33 100 100 100 100 100 100 80 72 79 100 100 100 100 100 100 100 100 100 100 100 100 100 100 100
100 100 100 100 100 68 100 81 62 51 30 18 18 8 0 2 15 29 68 97 100 100 100 100 100 100 100 87 100 100 100 100 100 100 100 100 100 100 100 100 100 94 100
100 100 100 100 100 100 100 100 100 45 76 37 24 35 47 31 35 41 55 98 100 100 100 100 100 100 100 96 98 100 100 100 100 100 100 100 100 100 100 100 100 100 100
100 100 100 100 100 100 100 100 100 94 41 34 63 100 97 86 81 95 84 94 100 100 100 100 100 100 100 99 100 100 100 100 100 100 100 100 100 100 100 100 100 100 100
100 100 100 100 100 100 100 100 100 100 100 90 92 89 100 100 100 100 100 100 100 100 100 100 100 100 100 100 100 100 100 100 100 100 100 100 100 100 100 100 100 100 100
100 100 100 100 100 100 100 100 100 100 100 82 94 100 98 99 100 100 96 86 100 100 100 100 100 100 100 100 100 100 100 100 100 100 100 100 100 100 100 100 100 100 100
84 97 100 100 100 100 100 100 100 100 100 100 100 100 100 100 100 100 100 99 100 100 100 100 100 100 100 100 100 100 100 100 100 100 100 100 100 100 100 100 100 100 100
95 97 100 100 100 100 100 100 100 100 100 99 100 100 91 81 86 100 100 100 100 100 100 100 100 100 100 100 100 100 99 100 100 100 100 100 100 100 100 100 100 100 100
100 100 100 100 100 100 100 100 100 100 100 100 79 92 100 42 84 55 100 100 100 100 100 100 100 100 100 100 100 100 100 100 100 100 100 100 100 100 100 100 100 100 100
100 100 100 100 100 100 100 99 96 100 100 95 78 100 100 91 98 96 100 99 100 100 100 100 100 100 100 100 100 100 100 100 100 100 100 100 100 100 100 100 100 100 100
100 100 100 100 100 100 100 100 100 100 100 100 100 100 100 100 100 88 43 100 100 100 100 100 100 100 100 100 100 81 100 100 100 100 100 100 100 100 100 100 100 100 100
100 100 100 100 100 100 100 100 100 100 100 100 100 100 100 100 38 40 100 100 100 100 100 100 100 100 100 100 100 100 99 100 100 100 100 100 100 100 100 100 100 100 100
100 100 100 100 100 100 100 100 100 100 100 100 100 100 100 100 100 100 100 100 100 100 100 100 96 100 100 100 100 100 100 100 100 100 100 100 100 100 100 100 100 100 100
100 100 100 100 100 100 100 100 100 100 100 100 100 100 100 100 100 100 100 100 100 100 100 100 100 100 100 100 100 99 100 100 100 100 100 100 100 100 100 100 100 100 100
100 100 100 100 100 100 100 100 100 100 100 100 100 100 100 100 100 100 100 100 100 100 100 100 100 100 100 100 100 99 100 100 100 100 100 100 100 100 100 100 100 100 100
100 100 100 100 100 100 100 100 100 100 100 100 100 100 100 100 100 100 100 100 100 100 100 100 100 100 100 100 100 100 100 100 100 100 100 100 100 100 100 100 100 100 100
100 100 100 100 100 100 100 100 100 100 100 100 100 100 100 100 89 99 100 100 100 100 100 100 100 100 100 100 100 100 100 100 100 100 100 100 100 100 100 100 100 100 100
100 100 100 100 100 100 100 100 100 100 100 100 100 100 98 73 97 100 100 100 100 100 100 100 100 100 100 100 100 100 100 100 100 100 100 100 100 100 100 100 100 100 100
100 100 100 100 100 100 100 100 100 100 100 100 100 100 100 97 91 100 100 100 100 100 100 100 100 100 100 100 100 100 100 100 100 100 100 100 100 100 100 100 100 100 100
100 100 100 100 100 100 100 100 100 100 100 100 100 100 100 100 100 100 100 100 100 100 100 100 100 100 100 100 100 100 100 100 100 100 100 100 100 100 100 100 100 100 100
100 100 100 100 100 100 100 100 100 100 100 100 100 100 100 100 100 100 100 100 100 100 100 100 100 100 100 100 100 100 100 100 100 100 100 100 100 100 100 100 100 100 100
100 100 100 100 100 100 100 100 100 100 100 100 100 100 100 100 100 100 100 100 100 100 100 100 100 100 100 100 100 100 100 100 100 100 100 100 100 100 100 100 100 100 100
100 100 100 100 100 100 100 100 100 100 100 100 100 100 100 100 100 100 100 100 100 100 100 100 100 100 100 100 100 100 100 100 100 100 100 100 100 100 100 100 100 100 100
100 100 100 100 100 100 100 100 100 100 100 100 100 100 100 100 100 100 100 100 100 100 100 100 100 100 100 100 100 100 100 100 100 100 100 100 100 100 100 100 100 100 100

GFSMA_prec_cloud_120.txt.gz
Cloud_Cover
69 99 94 100 100 100 100 89 100 100 12 38 87 98 95 48 31 24 16 49 100 99 100 100 100 100 79 100 100 100 87 100 100 100 100 100 100 100 100 58 100 100 100
60 62 96 100 100 100 100 93 100 100 13 23 44 72 100 93 49 42 32 11 90 100 100 100 100 100 100 87 100 100 100 100 100 100 100 100 100 100 100 95 88 100 100
100 16 60 55 100 100 100 100 100 98 58 32 33 67 76 80 61 60 51 32 58 100 100 100 100 100 100 79 82 95 99 100 100 100 100 100 100 100 100 100 100 100 100
100 100 100 99 70 100 100 100 100 100 78 68 25 33 45 85 98 68 52 38 47 92 100 100 100 100 100 100 99 79 100 99 100 100 100 100 100 100 100 100 95 100 100
100 100 100 100 100 100 100 100 100 100 100 100 82 65 66 67 99 100 89 62 45 39 100 100 100 100 100 100 100 88 100 100 100 100 100 100 100 99 100 95 100 100 98
100 100 100 100 100 100 100 100 100 97 100 100 100 96 86 62 81 69 67 65 58 29 100 100 100 100 100 100 100 100 100 100 100 100 100 100 100 100 100 100 100 100 100
100 100 100 100 100 100 88 100 100 100 100 100 100 97 100 91 63 100 100 77 33 60 100 100 96 100 100 100 100 100 100 100 100 100 100 100 100 100 100 100 100 100 100
100 100 100 100 100 100 100 100 98 100 100 100 99 100 92 62 83 79 62 93 73 51 100 100 100 98 93 100 100 100 100 100 100 100 100 100 100 100 100 100 100 100 100
100 100 100 100 100 100 100 100 90 100 100 100 100 49 65 24 11 49 45 51 81 88 75 74 84 100 96 100 100 94 100 100 100 100 100 100 100 100 100 100 100 100 100
16 100 100 100 100 100 100 100 100 100 100 100 100 72 55 44 43 59 39 38 95 99 71 67 100 84 100 100 100 100 100 100 98 100 100 100 100 100 100 100 99 100 100
36 100 100 100 100 100 100 100 98 100 100 100 100 81 96 58 68 49 95 64 67 27 93 82 88 92 91 100 100 100 96 98 100 100 100 100 100 100 100 100 100 85 100
88 100 100 100 100 100 100 100 100 100 100 100 100 100 100 100 69 94 54 4 55 95 82 100 98 81 100 98 100 100 100 100 100 100 100 100 100 100 100 100 100 100 100
100 100 97 100 100 100 100 100 100 100 100 100 100 100 81 70 48 100 100 97 51 75 91 90 91 96 100 100 100 100 100 100 100 100 100 100 100 100 100 100 100 100 100
100 100 100 100 100 100 100 100 100 100 98 100 100 100 80 34 100 100 100 46 100 50 52 50 100 100 100 100 98 100 100 100 100 100 100 100 100 100 100 100 100 100 100
98 100 100 100 100 100 100 100 100 100 100 100 100 100 93 66 74 100 95 73 19 79 100 98 96 100 100 100 74 100 100 100 100 100 97 100 100 100 100 100 100 100 100
100 100 100 100 100 100 100 100 100 100 100 100 100 100 100 100 100 100 100 44 94 63 100 100 72 89 100 100 99 98 100 100 100 100 100 100 100 100 100 100 100 100 100
100 100 100 100 100 100 100 100 100 100 100 100 100 100 100 100 100 100 100 79 61 100 100 100 100 100 100 100 100 100 100 100 89 100 100 100 100 100 100 100 100 100 100
100 100 100 100 100 100 100 100 100 100 100 100 100 100 100 100 100 100 100 100 100 99 100 100 100 100 100 100 100 100 100 100 100 92 99 97 100 100 100 100 100 100 100
100 100 100 100 100 100 100 100 100 100 100 100 100 100 100 100 100 100 100 100 100 48 95 100 100 100 100 100 100 100 100 100 100 100 100 98 97 100 100 100 100 100 100
100 100 100 100 100 100 100 100 100 100 100 100 100 100 100 100 100 100 100 100 87 100 100 100 100 100 100 100 100 100 100 100 100 100 100 100 100 100 100 100 100 100 100
100 100 100 100 100 100 100 100 100 100 100 100 100 100 100 100 100 100 100 100 86 100 100 100 100 100 100 100 100 100 100 100 100 100 100 100 100 100 100 100 100 100 100
100 100 100 100 100 100 100 100 100 100 100 100 100 100 100 100 100 100 100 100 100 100 100 100 100 100 100 100 100 100 100 100 100 100 100 100 100 100 100 100 100 100 100
92 100 100 100 100 100 100 100 100 100 100 100 100 100 100 100 100 100 100 100 100 100 100 100 100 100 100 100 99 100 100 100 100 100 100 100 100 100 100 100 100 100 100
100 100 100 100 100 100 100 100 100 100 100 100 100 100 100 100 100 100 100 100 100 100 100 100 100 100 100 100 100 100 100 100 100 100 100 100 100 100 100 100 100 100 100
100 100 100 100 100 100 100 100 100 100 100 100 100 100 100 100 100 100 100 100 100 100 100 100 100 100 100 100 100 100 100 100 100 100 100 100 100 100 100 100 100 100 100
100 100 100 100 100 100 100 100 100 100 100 100 100 100 100 100 100 100 100 100 100 100 100 100 100 100 100 100 100 100 100 100 100 100 100 100 100 100 100 100 100 100 100

GFSMA_prec_cloud_123.txt.gz
Cloud_Cover
18 57 74 81 95 86 82 15 95 100 100 100 100 99 84 89 100 63 29 8 100 99 100 100 100 100 100 100 100 100 100 100 100 100 100 92 100 99 100 100 23 100 100
35 1 17 35 73 98 100 100 93 100 100 100 100 96 91 99 100 99 30 11 20 100 94 100 100 100 100 100 100 100 100 100 100 100 100 100 100 100 100 100 100 100 94
73 17 28 27 47 98 100 100 100 100 100 100 100 99 100 43 100 100 71 23 0 43 100 100 100 100 100 100 100 100 100 100 100 100 100 100 100 100 100 100 100 100 100
87 5 26 100 75 100 100 100 59 99 100 100 100 100 100 100 100 100 100 73 14 41 50 99 100 100 100 100 100 100 100 100 100 100 100 100 100 100 100 100 100 100 100
100 73 5 4 61 97 96 78 99 100 100 100 100 100 100 100 100 100 100 87 50 11 59 42 95 100 100 100 100 100 100 100 100 100 100 100 100 100 100 100 100 100 100
100 100 89 89 40 100 100 86 100 100 100 98 100 100 100 100 100 100 100 100 90 20 83 52 30 29 100 98 80 100 100 100 100 100 100 99 100 100 100 100 100 100 100
100 100 100 100 100 100 100 100 49 96 100 100 88 41 100 19 8 22 96 76 96 77 20 30 64 91 60 100 96 100 100 100 100 100 100 100 100 100 100 100 100 100 100
90 100 100 100 100 100 100 100 100 90 100 100 68 93 98 12 14 58 32 78 78 84 98 77 44 72 90 81 100 100 100 100 100 100 100 100 100 100 100 100 100 100 100
59 100 100 100 100 100 100 100 100 100 100 100 100 99 92 6 11 16 8 81 67 92 98 71 100 100 100 80 38 100 100 100 100 100 100 100 100 100 100 100 100 100 100
94 100 100 100 100 100 100 100 100 100 100 62 100 100 48 5 19 50 18 10 15 100 96 83 45 100 100 80 61 19 68 100 100 100 100 100 100 100 100 100 100 100 100
34 96 100 100 100 100 100 100 100 100 100 46 100 100 85 14 15 5 6 79 67 10 17 26 57 84 95 99 76 64 100 100 100 100 100 100 98 100 100 100 100 100 100
46 60 96 100 100 100 100 100 100 100 100 72 100 100 95 100 100 97 93 66 11 93 14 8 36 36 19 98 23 20 73 100 100 100 100 100 100 70 100 100 100 100 100
100 100 100 87 100 100 100 100 100 100 100 100 100 100 78 95 100 100 81 32 25 62 91 13 51 39 22 63 100 8 99 89 100 100 100 100 100 100 100 100 100 100 100
100 100 100 100 100 89 100 100 100 100 100 100 100 99 38 98 100 100 99 69 12 5 80 20 35 49 50 81 79 89 98 100 100 100 100 100 100 100 100 100 100 100 100
100 100 100 100 100 100 100 100 100 100 100 69 71 100 100 100 100 100 95 99 23 64 83 87 5 16 54 53 100 100 100 98 100 100 100 100 100 100 100 100 100 100 100
100 100 100 100 100 100 100 100 100 100 100 100 94 100 100 100 100 100 100 100 100 44 76 63 56 84 19 58 100 100 98 94 100 100 100 100 100 100 100 100 100 100 100
100 100 100 100 100 100 100 100 100 100 100 100 100 100 100 100 100 100 100 100 100 92 92 100 47 50 26 43 98 97 100 100 95 100 100 100 100 100 100 100 100 100 100
100 100 100 100 100 100 100 100 100 100 100 100 100 100 100 100 100 100 100 100 100 100 100 52 91 100 43 21 49 100 100 100 100 100 100 100 100 100 100 100 100 100 100
100 100 100 100 100 100 100 100 100 100 100 100 100 100 100 100 100 100 100 100 100 100 97 100 84 100 100 84 100 100 100 100 100 100 100 100 100 97 100 100 100 100 100
100 100 100 100 100 100 100 100 100 100 100 100 100 100 100 100 100 100 100 100 100 100 100 74 100 100 100 100 100 100 100 100 100 100 100 100 100 100 100 100 100 100 100
100 100 100 100 100 100 100 100 100 100 100 100 100 100 100 100 100 100 100 100 100 100 100 100 100 100 100 100 100 100 100 100 100 100 100 100 100 100 100 100 100 100 100
100 100 100 100 100 100 100 99 100 100 100 100 100 100 100 100 100 100 100 100 100 100 100 100 100 100 100 100 100 100 100 100 100 100 100 100 100 100 100 100 100 100 100
100 100 100 100 100 100 90 96 87 100 100 100 100 100 100 100 100 100 100 100 100 100 100 100 100 100 100 100 100 100 100 100 100 100 100 100 100 100 100 100 100 100 100
100 100 100 100 100 100 100 96 74 95 100 100 100 100 100 100 100 100 100 100 100 100 100 100 100 100 100 100 100 100 100 100 100 100 100 100 100 100 100 100 100 100 100
100 100 100 100 100 100 100 97 98 95 100 100 100 100 100 100 100 100 100 100 100 100 100 100 100 100 100 100 100 100 100 100 100 100 100 100 100 100 100 100 100 100 100
100 100 100 100 100 100 100 100 100 100 100 86 100 100 100 100 100 100 100 100 100 100 100 100 100 100 100 100 100 100 100 100 100 100 100 100 100 100 100 100 100 100 100

GFSMA_prec_cloud_126.txt.gz
Cloud_Cover
5 5 5 4 5 9 3 0 0 3 9 63 66 100 88 13 100 68 16 5 0 89 77 100 100 100 100 100 100 100 100 100 100 100 100 100 100 100 100 100 78 99 98
21 5 5 5 34 14 14 4 0 12 0 77 55 100 84 100 100 21 18 9 0 12 70 48 100 100 100 100 100 100 100 100 100 100 99 100 100 100 100 100 100 100 100
0 4 5 5 5 9 5 5 16 37 100 100 100 100 100 100 100 100 91 0 0 7 95 68 94 100 100 100 100 100 100 100 100 100 100 100 100 100 100 98 100 100 100
0 5 5 11 34 7 5 5 64 65 100 99 100 100 100 100 100 100 100 46 0 0 2 50 100 88 100 100 100 100 100 100 100 100 100 100 100 100 100 100 100 100 100
0 0 5 5 58 14 6 18 74 38 4 88 100 100 100 100 100 100 100 100 22 0 2 0 10 78 100 90 100 100 99 100 100 100 100 100 100 100 100 100 100 100 100
0 0 1 23 5 40 18 93 13 6 17 5 16 95 100 100 100 100 100 100 100 27 0 5 0 4 14 93 100 100 100 100 100 100 100 100 100 100 100 100 100 100 100
9 87 5 21 8 67 5 5 0 10 5 19 11 37 99 100 100 56 5 66 100 88 5 5 4 5 5 5 5 62 100 100 100 100 100 100 100 100 100 100 100 100 100
100 99 99 73 21 8 40 35 48 47 7 16 5 8 60 11 5 63 15 10 4 0 5 19 5 5 5 12 10 5 4 73 100 100 100 100 100 100 100 100 100 100 100
100 100 100 100 96 87 99 98 100 100 27 5 22 9 17 96 5 11 5 5 0 1 0 6 5 5 55 64 3 4 5 4 100 100 100 100 100 100 100 100 100 100 100
100 100 100 100 100 100 100 100 100 100 100 5 66 5 5 53 5 34 5 6 2 0 4 0 5 9 99 100 29 1 5 89 5 67 100 100 100 100 100 100 100 100 100
99 98 39 100 100 100 100 100 100 100 100 57 8 83 10 5 11 31 94 23 22 20 5 1 0 5 7 99 100 5 5 5 5 5 5 100 100 100 100 100 100 90 100
99 98 100 100 100 100 100 100 100 100 100 100 37 54 16 89 24 5 5 43 6 96 90 2 0 2 5 7 95 53 21 80 12 46 58 100 100 100 100 100 100 100 100
100 100 100 100 100 100 100 100 100 100 100 100 99 81 90 94 5 5 29 5 53 100 100 76 14 4 5 5 5 5 15 87 82 26 90 100 100 100 100 100 100 100 100
100 100 100 100 100 100 100 100 100 100 100 100 100 100 100 100 21 90 49 83 98 100 100 28 5 18 28 5 5 5 18 86 42 95 100 93 100 100 100 100 100 100 100
100 100 100 100 100 100 100 100 100 100 100 100 93 58 95 100 95 96 92 97 100 100 100 100 89 34 82 12 5 9 78 19 58 100 99 100 100 100 100 100 100 100 100
100 100 100 100 100 100 100 100 100 100 100 100 91 82 100 100 100 100 100 100 100 100 100 100 100 100 100 55 4 7 30 65 99 100 99 95 100 100 100 100 100 100 100
100 100 100 100 100 100 100 100 100 100 100 100 100 100 76 100 100 100 100 100 100 100 100 100 100 100 100 28 42 15 7 54 88 100 88 100 100 100 100 100 100 100 100
100 100 100 100 100 100 100 100 100 100 100 100 100 100 100 100 100 100 100 100 100 100 100 100 100 100 100 100 86 46 83 80 96 94 95 100 100 100 100 100 100 100 100
100 100 100 100 100 100 100 100 100 100 100 100 100 100 100 100 98 100 100 100 93 75 100 98 100 100 100 100 54 55 89 100 81 100 98 100 100 100 100 100 100 100 99
100 100 100 100 100 100 100 100 100 100 100 100 100 100 100 100 100 100 100 100 100 100 100 100 100 100 100 100 100 81 100 100 100 100 100 100 100 100 100 100 100 100 100
100 100 100 100 100 100 100 100 100 100 100 100 100 100 100 100 100 100 100 100 100 100 100 100 100 100 100 100 100 100 100 100 100 100 100 100 100 100 100 100 100 100 100
100 100 100 100 100 100 100 100 100 100 100 100 100 100 100 100 100 100 100 100 100 100 100 100 100 100 100 100 100 100 100 100 100 100 100 100 100 100 100 100 100 100 100
100 100 100 100 100 100 100 100 100 100 100 100 100 99 100 100 100 100 100 100 100 100 100 100 100 100 100 100 99 100 100 100 100 100 100 100 100 100 100 100 100 100 100
100 100 100 100 100 100 100 100 100 99 100 100 90 100 100 100 100 93 86 100 100 100 100 100 100 100 100 100 100 100 100 100 100 100 100 100 100 100 100 100 100 100 100
100 100 100 100 100 100 100 100 100 100 100 100 100 100 100 100 100 81 100 100 100 100 100 100 100 100 100 100 100 100 100 100 100 100 100 100 100 100 100 100 100 100 100
100 100 100 100 100 100 100 100 100 100 100 100 100 100 100 100 100 76 97 100 100 100 96 100 100 100 100 100 100 100 100 100 100 100 100 100 100 100 100 100 100 100 100